     2              OBSERVATION DATA    GPS                 RINEX VERSION / TYPE
teqc 1998Oct22 19990723 00:04:27UTC                         PGM / RUN BY / DATE
                                                            COMMENT
Original Marker Name: 0094                                  COMMENT
Campaign Name: UCLA LA area 1999                            COMMENT
4-Character Station Name: 0094                              COMMENT
6-Character Antenna Code: DMRCHT                            COMMENT
Vertical Measurement Point: BCR                             COMMENT
Vertical Offset to Rinex Ref. Point: 0.0349                 COMMENT
Radial Measurement Point: ECF                               COMMENT
Radial Offset to Rinex Ref. Point: 0.1896                   COMMENT
Antenna Height from Field Measurement: 1.2905 m             COMMENT
Additional Antenna Identification Info.:                    COMMENT
Turborogue and Ashtech Choke Ring                           COMMENT
Original XYZ: 0.0000 0.0000 0.0000                          COMMENT
New XYZ position is based on association with SCEC monument COMMENT
E1C7Y8S0+0011. Position of that monument is believed to be  COMMENT
valid to within 1 m horizontally; vertical accuracy         COMMENT
should be no worse than 3-times this value.                 COMMENT
                                                            COMMENT
Revised Rinex header created by UCSD GPS archive for        COMMENT
GSAC on 31-Aug-1999 (1999:243) 21:45:53 GMT                 COMMENT
For assistance contact dagnew@ucsd.edu or hjohnson@ucsd.edu COMMENT
                                                            COMMENT
GPS 0094 1992                                               MARKER NAME
HYU UNIV CALIF LOS ANGELES                                  OBSERVER / AGENCY
107 ASHTECH Z-XII3 1F50                                     REC # / TYPE / VERS
768 DORNE-MARGOL. TYPE T                                    ANT # / TYPE
 -2542604.0000 -4632451.0000  3560028.0000                  APPROX POSITION XYZ
        1.2416        0.0000        0.0000                  ANTENNA: DELTA H/E/N
     1     1     0                                          WAVELENGTH FACT L1/2
     7    C1    L1    L2    P1    P2    S1    S2            # / TYPES OF OBSERV
     0                                                      INTERVAL
  1999     4     3    16    54   30.000000                  TIME OF FIRST OBS
  1999     4     3    20     4   30.000000                  TIME OF LAST OBS
                                                            END OF HEADER
 99  4  3 16 54 30.0000000  0  6G26G 2G27G19G 7G13
                    -20507.47145                                  20267286.231
       226.000
                       156.000
       244.000          74.000
                      4203.07047                                  18215009.710
       242.000
                       189.000
       212.000          74.000
                    -13346.22746                                  18147862.660
       243.000
                       176.000
       229.000          74.000
 99  4  3 16 55  0.0000000  0  6G26G 2G27G19G 7G13
  20257064.583      -93869.59049    -62333.07246  20257064.316    20257073.139
       226.000         176.000
                    -23876.18447                                  18802315.976
       244.000         201.000
  18217404.866       20225.11549     14039.61247  18217404.054    18217411.908
       244.000
                       208.000
       207.000          74.000
  18136332.515      -93842.12749    -60529.91747  18136331.989    18136340.132
       243.000         210.000
  20469278.415       90233.65449     59111.80346  20469279.183    20469287.006
       227.000         164.000
 99  4  3 16 55 30.0000000  0  6G26G 2G27G19G 7G13
  22645646.039     -145151.68149   -102293.15946  22645646.395    22645653.643
       227.000         179.000
  21197629.248      -49283.78649    -36239.56447  21197628.677    21197636.351
       245.000         209.000
  20618586.442       35163.00549     25679.47447  20618586.320    20618594.359
       243.000         211.000
                    135326.30044                                  24142144.674
       211.000         100.000
  20523594.037     -152057.97749   -105892.90548  20523593.572    20523601.842
       243.000         214.000
  22881423.188      162780.22549    115641.52546  22881423.630    22881431.915
       228.000         170.000
 99  4  3 16 56  0.0000000  0  6G26G 2G27G19G 7G13
  22636388.345     -193799.64249   -140200.67646  22636389.284    22636396.457
       227.000         180.000
  21195044.528      -62866.72949    -46823.69847  21195044.016    21195051.609
       244.000         211.000
  20621929.750       52732.72649     39370.12147  20621929.755    20621937.473
       242.000         211.000
  24156194.108      257326.61449    192886.47845  24156189.848    24156202.524
       213.000         143.000
  20513009.973     -207679.24549   -149234.14648  20513009.279    20513017.470
       244.000         215.000
  22895671.945      237654.76449    173985.24246  22895672.466    22895680.487
       228.000         170.000
 99  4  3 16 56 30.0000000  0  6G26G 2G27G19G 7G13
  22556557.723     -613311.87649   -467093.34246  22556558.480    22556566.375
       225.000         179.000
  21121815.714     -447686.52049   -346683.29047  21121815.361    21121823.114
       244.000         211.000
  20554702.158     -300551.52149   -235916.35847  20554701.956    20554709.800
       241.000         210.000
  24099615.607      -39991.22249    -38789.95045  24099614.424    24099627.336
       215.000         149.000
  20431849.031     -634183.15449   -481574.84548  20431848.446    20431856.378
       244.000         215.000
  22839283.360      -58669.89949    -56917.18846  22839283.903    22839292.623
       228.000         170.000
 99  4  3 16 57  0.0000000  0  7G26G 2G27G19G 7G15G13
  22551824.389     -638185.74149   -486475.58546  22551824.607    22551832.608
       225.000         179.000
  21123609.883     -438258.46349   -339336.77247  21123609.290    21123617.089
       244.000         211.000
  20562573.184     -259188.80549   -203685.72147  20562573.247    20562581.018
       241.000         210.000
  24118072.710       57005.99549     36792.09345  24118070.937    24118083.325
       210.000         152.000
  20425782.307     -666063.46649   -506416.64048  20425781.576    20425789.595
       244.000         216.000
  23647574.281     -406244.70059   -311988.40145  23647573.835    23647585.423
       215.000         149.000
  22857927.011       39301.73549     19424.25646  22857927.546    22857935.486
       229.000         172.000
 99  4  3 16 57 30.0000000  0  7G26G 2G27G19G 7G15G13
  22547120.383     -662905.96749   -505738.12546  22547120.623    22547127.497
       228.000         180.000
  21125353.593     -429095.27249   -332196.64847  21125353.062    21125360.840
       243.000         211.000
  20570471.252     -217684.32849   -171344.61447  20570471.519    20570479.197
       242.000         210.000
  24136497.004      153828.19549    112237.81145  24136495.972    24136508.346
       208.000         151.000
  20419739.951     -697815.89149   -531158.78248  20419739.528    20419747.519
       243.000         216.000
  23648610.834     -400810.13249   -307753.70145  23648607.879    23648618.212
       216.000         152.000
  22876533.151      137077.93149     95613.38846  22876533.835    22876542.088
       227.000         171.000
 99  4  3 16 58  0.0000000  0  7G26G 2G27G19G 7G15G13
  22542434.427     -687531.16249   -524926.60546  22542434.238    22542442.745
       227.000         181.000
  21127035.005     -420259.36049   -325311.53847  21127034.448    21127042.357
       244.000         211.000
  20578380.939     -176118.96749   -138956.07747  20578380.913    20578389.160
       242.000         211.000
  24154873.911      250400.56849    187488.81845  24154874.059    24154884.107
       209.000         144.000
  20413706.325     -729522.59049   -555865.29548  20413705.696    20413713.821
       243.000         215.000
  23649669.952     -395238.06649   -303411.80545  23649668.365    23649680.161
       216.000         154.000
  22895091.554      234602.53549    171606.50546  22895091.138    22895100.187
       227.000         170.000
 99  4  3 16 58 30.0000000  0  7G26G 2G27G19G 7G15G13
  22537761.542     -712087.42749   -544061.38046  22537761.672    22537769.735
       227.000         181.000
  21128648.285     -411781.73849   -318705.62047  21128647.961    21128655.335
       244.000         211.000
  20586287.396     -134570.79049   -106580.93247  20586287.700    20586295.644
       242.000         211.000
  24173194.438      346677.09849    262509.22745  24173195.845    24173205.200
       215.000         147.000
  20407668.403     -761252.48049   -580589.88248  20407668.115    20407675.947
       243.000         216.000
  23650747.330     -389574.92249   -298999.02145  23650746.539    23650757.816
       217.000         157.000
  22913594.280      331834.23949    247371.37446  22913595.558    22913603.247
       229.000         170.000
 99  4  3 16 59  0.0000000  0  7G26G 2G27G19G 7G15G13
  22533120.974     -736474.33249   -563064.17646  22533120.825    22533129.426
       227.000         181.000
  21130213.987     -403554.23649   -312294.59047  21130213.687    21130221.699
       244.000         211.000
  20594203.997      -92969.59249    -74164.46547  20594204.199    20594212.154
       242.000         211.000
  24191479.136      442762.99349    337381.21045  24191478.928    24191492.584
       214.000         149.000
  20401642.782     -792917.68949   -605264.06248  20401642.167    20401650.325
       243.000         216.000
  23651861.193     -383720.70449   -294437.30045  23651859.698    23651871.151
       217.000         157.000
  22932058.904      428866.42249    322980.76246  22932060.315    22932068.338
       227.000         171.000
 99  4  3 16 59 30.0000000  0  7G26G 2G27G19G 7G15G13
  22528560.560     -760439.79949   -581738.58446  22528561.971    22528568.821
       228.000         180.000
  21131781.795     -395315.82749   -305875.06747  21131781.512    21131789.416
       244.000         211.000
  20602177.615      -51068.50849    -41514.31747  20602177.719    20602185.636
       242.000         211.000
  24209775.242      538908.08049    412299.20145  24209774.962    24209785.429
       210.000         148.000
  20395678.863     -824258.42849   -629685.40848  20395678.186    20395686.304
       243.000         215.000
  23653059.767     -377422.13449   -289529.35045  23653057.879    23653068.834
       213.000         156.000
  22950533.970      525952.31949    398632.01346  22950535.205    22950543.071
       227.000         171.000
 99  4  3 17  0  0.0000000  0  7G26G 2G27G19G 7G15G13
  22524093.032     -783917.04349   -600032.56746  22524093.355    22524101.307
       227.000         181.000
  21133368.550     -386977.80449   -299377.93147  21133368.014    21133375.871
       244.000         211.000
  20610223.663       -8786.62449     -8567.44847  20610223.549    20610231.563
       242.000         210.000
  24228097.630      635192.77549    487326.07445  24228098.696    24228111.196
       217.000         146.000
  20389794.011     -855183.53449   -653782.88648  20389793.260    20389801.584
       243.000         216.000
  23654356.985     -370604.25849   -284216.74745  23654356.850    23654366.781
       216.000         155.000
  22969033.649      623167.72249    474384.16646  22969033.869    22969042.893
       226.000         169.000
 99  4  3 17  0 30.0000000  0  7G26G 2G27G19G 7G15G13
  22519721.361     -806890.65349   -617934.11046  22519722.111    22519729.455
       228.000         181.000
  21134978.916     -378515.52649   -292783.95847  21134978.349    21134985.748
       245.000         211.000
  20618349.326       33913.82549     24705.58647  20618349.394    20618357.246
       242.000         210.000
  24246454.172      731655.57149    562491.69945  24246454.539    24246466.468
       212.000         146.000
  20383997.147     -885646.64749   -677520.36948  20383996.683    20384004.535
       243.000         216.000
  23655758.418     -363238.88049   -278477.52245  23655756.371    23655768.420
       212.000         153.000
  22987562.972      720538.98349    550257.76946  22987563.231    22987571.060
       226.000         169.000
 99  4  3 17  1  0.0000000  0  7G26G 2G27G19G 7G15G13
  22515466.313     -829251.50149   -635358.16546  22515466.587    22515474.221
       229.000         181.000
  21136633.987     -369818.48549   -286007.06847  21136633.533    21136641.164
       244.000         211.000
  20626579.840       77164.69249     58407.51747  20626579.596    20626587.877
       241.000         210.000
  24264867.376      828417.37449    637890.35745  24264865.243    24264882.369
       197.000         150.000
  20378311.391     -915525.55349   -700802.62648  20378310.849    20378318.630
       243.000         216.000
  23657287.192     -355204.39649   -272216.90245  23657287.471    23657296.314
       217.000         152.000
  23006145.054      818188.29049    626348.02146  23006145.837    23006154.506
       224.000         168.000
 99  4  3 17  1 30.0000000  0  7G26G 2G27G19G 7G15G13
  22511348.761     -850889.70449   -652219.12846  22511348.488    22511356.501
       228.000         181.000
  21138353.084     -360784.79349   -278967.84347  21138352.363    21138360.294
       244.000         211.000
  20634936.774      121081.03149     92627.99547  20634936.701    20634944.784
       241.000         210.000
  24283354.620      925570.95949    713594.10945  24283355.333    24283363.734
       208.000         141.000
  20372756.197     -944718.25949   -723550.17848  20372755.425    20372763.711
       243.000         216.000
  23658962.648     -346400.92249   -265357.07445  23658961.692    23658972.790
       214.000         152.000
  23024799.316      916217.18549    702734.05346  23024798.863    23024808.329
       223.000         167.000
 99  4  3 17  2  0.0000000  0  7G26G 2G27G19G 7G15G13
  22507374.881     -871772.73949   -668491.65046  22507375.758    22507382.723
       229.000         181.000
  21140138.361     -351403.23949   -271657.57047  21140137.657    21140145.171
       244.000         211.000
  20643424.554      165684.21449    127383.66847  20643424.515    20643432.540
       242.000         210.000
  24301919.189     1023129.00849    789613.16345  24301920.281    24301935.296
       215.000         143.000
  20367332.512     -973219.97349   -745759.30348  20367332.029    20367339.949
       244.000         216.000
  23660787.894     -336808.05849   -257882.19645  23660788.357    23660797.672
       214.000         151.000
  23043528.391     1014639.13149    779426.36946  23043528.367    23043535.751
       222.000         165.000
 99  4  3 17  2 30.0000000  0  7G26G 2G27G19G 7G15G13
  22503530.680     -891974.33349   -684233.16346  22503530.380    22503538.113
       229.000         181.000
  21141971.413     -341770.38249   -264151.47147  21141970.978    21141978.814
       244.000         211.000
  20652026.136      210885.14249    162605.12247  20652025.890    20652034.073
       241.000         210.000
  24320541.431     1120987.38649    865866.35045  24320542.699    24320553.758
       211.000         141.000
  20362024.220    -1001115.45149   -767496.02748  20362023.664    20362031.666
       244.000         216.000
  23662747.611     -326509.60949   -249857.42245  23662746.422    23662757.588
       212.000         149.000
  23062315.446     1113365.75149    856356.08246  23062315.701    23062323.985
       223.000         165.000
 99  4  3 17  3  0.0000000  0  7G26G 2G27G19G 7G15G13
  22499819.615     -911476.43949   -699429.63746  22499820.149    22499827.631
       228.000         181.000
  21143855.093     -331871.82449   -256438.33447  21143854.604    21143862.490
       242.000         210.000
  20660744.298      256698.94249    198304.14747  20660743.945    20660752.144
       241.000         210.000
  24339220.231     1219142.95949    942350.88045  24339220.278    24339235.091
       200.000         143.000
  20356834.055    -1028390.12549   -788749.01848  20356833.657    20356841.466
       244.000         216.000
  23664842.601     -315499.71749   -241278.35445  23664841.581    23664852.045
       211.000         147.000
  23081160.547     1212396.73349    933522.96846  23081161.015    23081167.442
       223.000         165.000
 99  4  3 17  3 30.0000000  0  7G26G 2G27G19G 7G15G13
  22496234.500     -930316.73849   -714110.41246  22496235.021    22496242.264
       228.000         182.000
  21145783.172     -321739.33749   -248542.91747  21145783.199    21145790.837
       244.000         210.000
  20669573.338      303095.45049    234457.22147  20669573.492    20669581.067
       242.000         210.000
  24357946.821     1317551.76149   1019032.80545  24357947.324    24357959.722
       211.000         143.000
  20351756.292    -1055074.42649   -809541.97248  20351755.713    20351763.535
       243.000         216.000
  23667066.894     -303811.48749   -232170.70245  23667065.172    23667075.960
       211.000         147.000
  23100053.853     1311680.98949   1010887.18646  23100054.145    23100061.458
       222.000         164.000
 99  4  3 17  4  0.0000000  0  7G26G 2G27G19G 7G15G13
  22492766.914     -948539.19149   -728309.75546  22492767.291    22492775.329
       228.000         182.000
  21147750.119     -311403.38849   -240488.96147  21147749.598    21147757.506
       243.000         210.000
  20678508.277      350048.18749    271043.72647  20678508.027    20678516.162
       242.000         209.000
  24376719.453     1416200.24249   1095901.52745  24376719.818    24376732.802
       211.000         148.000
  20346787.246    -1081186.66949   -829889.16948  20346786.503    20346794.447
       243.000         216.000
  23669415.391     -291469.91549   -222553.99545  23669414.465    23669425.187
       208.000         147.000
  23118988.874     1411185.76149   1088423.26546  23118989.487    23118997.498
       221.000         165.000
 99  4  3 17  4 30.0000000  0  7G26G 2G27G19G 7G15G13
  22489411.280     -966172.73749   -742050.21146  22489411.504    22489419.571
       229.000         182.000
  21149756.865     -300857.57149   -232271.48147  21149756.618    21149764.591
       243.000         210.000
  20687549.445      397559.75649    308065.68647  20687549.408    20687557.298
       242.000         209.000
  24395536.626     1515083.25949   1172952.98345  24395533.953    24395546.238
       204.000         135.000
  20341924.317    -1106741.15849   -849801.75848  20341924.019    20341931.622
       243.000         216.000
  23671885.009     -278492.36249   -212441.69145  23671885.715    23671895.769
       210.000         147.000
  23137965.331     1510907.44849   1166128.36246  23137965.270    23137974.496
       223.000         167.000
 99  4  3 17  5  0.0000000  0  7G26G 2G27G19G 7G15G13
  22486158.996     -983263.89649   -755368.01846  22486159.536    22486167.456
       228.000         182.000
  21151796.232     -290140.86449   -223920.83547  21151795.627    21151803.544
       243.000         210.000
  20696690.781      445597.10149    345497.33847  20696690.889    20696698.247
       242.000         209.000
  24414391.650     1614166.49649   1250160.46345  24414389.790    24414405.542
       203.000         138.000
  20337153.329    -1131813.08649   -869338.32548  20337152.762    20337160.779
       243.000         216.000
  23674466.148     -264929.38249   -201873.24045  23674465.549    23674477.010
       205.000         147.000
  23156973.374     1610794.34749   1243962.20346  23156974.240    23156983.030
       223.000         165.000
 99  4  3 17  5 30.0000000  0  7G26G 2G27G19G 7G15G13
  22483002.011     -999854.10849   -768295.47646  22483002.361    22483010.334
       228.000         182.000
  21153857.856     -279307.07549   -215478.96247  21153857.389    21153865.575
       243.000         210.000
  20705922.022      494107.09749    383297.29447  20705921.919    20705929.929
       241.000         209.000
  24433276.829     1713407.49349   1327490.81045  24433277.494    24433287.873
       210.000         144.000
  20332462.980    -1156461.09049   -888544.56548  20332462.479    20332470.480
       244.000         216.000
  23677149.695     -250826.85949   -190884.36845  23677148.751    23677160.420
       208.000         148.000
  23176004.232     1710800.96449   1321889.30546  23176004.046    23176014.483
       225.000         165.000
 99  4  3 17  6  0.0000000  0  7G26G 2G27G19G 7G15G13
  22479926.704    -1016015.35649   -780888.69646  22479927.030    22479934.194
       229.000         182.000
  21155926.197     -268438.07649   -207009.64347  21155925.627    21155933.740
       243.000         209.000
  20715227.354      543006.87749    421400.98247  20715227.536    20715235.269
       242.000         209.000
  24452175.025     1812718.24149   1404875.55545  24452175.901    24452190.585
       211.000         144.000
  20327839.178    -1180759.52649   -907478.41348  20327838.780    20327846.588
       244.000         216.000
  23679920.057     -236268.39149   -179540.21745  23679920.692    23679931.750
       210.000         150.000
  23195042.709     1810847.21649   1399847.30946  23195043.835    23195051.722
       226.000         166.000
 99  4  3 17  6 30.0000000  0  7G26G 2G27G19G 7G15G13
  22476955.501    -1031629.14249   -793055.30746  22476956.357    22476963.228
       228.000         182.000
  21158019.826     -257436.40549   -198436.95547  21158019.438    21158027.551
       243.000         209.000
  20724623.373      592383.17649    459875.97047  20724623.002    20724631.278
       240.000         208.000
  24471101.922     1912180.09549   1482377.99245  24471103.448    24471112.860
       207.000         136.000
  20323299.766    -1204614.49749   -926066.70448  20323299.173    20323307.219
       244.000         216.000
  23682796.632     -221152.79249   -167761.91745  23682796.151    23682807.491
       209.000         150.000
  23214104.703     1911017.80749   1477902.19746  23214104.820    23214113.123
       225.000         166.000
 99  4  3 17  7  0.0000000  0  7G26G 2G27G19G 7G15G13
  22474090.199    -1046685.99349   -804787.95246  22474090.881    22474098.032
       228.000         181.000
  21160136.011     -246316.00349   -189771.74647  21160135.523    21160143.640
       243.000         209.000
  20734105.558      642212.58249    498704.03847  20734105.318    20734113.435
       241.000         208.000
  24490059.096     2011800.09149   1560003.75345  24490060.254    24490072.585
       202.000         136.000
  20318849.190    -1228002.20649   -944290.89748  20318848.574    20318856.560
       244.000         216.000
  23685781.724     -205466.64549   -155539.00345  23685781.695    23685791.728
       209.000         147.000
  23233187.553     2011298.15449   1556042.61346  23233188.948    23233196.991
       224.000         165.000
 99  4  3 17  7 30.0000000  0  7G26G 2G27G19G 7G15G13
  22471314.266    -1061274.17849   -816155.39846  22471314.563    22471323.125
       230.000         182.000
  21162259.568     -235156.60049   -181076.14247  21162259.223    21162267.115
       243.000         209.000
  20743655.515      692397.31549    537808.97447  20743655.506    20743663.666
       241.000         208.000
  24509032.923     2111506.57949   1637696.84345  24509032.710    24509047.854
       210.000         140.000
  20314480.431    -1250960.02149   -962180.10748  20314479.818    20314487.686
       244.000         216.000
  23688862.650     -189277.19849   -142923.93745  23688862.632    23688873.411
       212.000         146.000
  23252277.833     2111617.54949   1634213.43646  23252278.772    23252286.687
       222.000         164.000
 99  4  3 17  8  0.0000000  0  7G26G 2G27G19G 7G15G13
  22468639.613    -1075329.96649   -827107.99746  22468640.084    22468647.567
       231.000         183.000
  21164407.175     -223871.18549   -172282.34547  21164406.786    21164414.961
       243.000         209.000
  20753286.770      743009.15049    577246.71247  20753286.818    20753294.692
       241.000         208.000
  24528037.091     2211373.28349   1715514.67445  24528038.832    24528051.566
       212.000         145.000
  20310208.424    -1273409.76549   -979673.41848  20310207.866    20310215.839
       244.000         216.000
  23692054.279     -172505.54049   -129855.14945  23692053.713    23692063.648
       213.000         145.000
  23271389.127     2212047.71849   1712470.58846  23271389.522    23271398.664
       223.000         163.000
 99  4  3 17  8 30.0000000  0  7G26G 2G27G19G 7G15G13
  22466058.658    -1088893.00449   -837676.62246  22466058.961    22466066.180
       229.000         182.000
  21166575.683     -212475.87249   -163402.91547  21166575.575    21166583.389
       243.000         209.000
  20762993.975      794020.68949    616995.91547  20762993.769    20763002.110
       240.000         208.000
  24547068.381     2311382.46149   1793443.60045  24547067.559    24547082.382
       207.000         142.000
  20306024.497    -1295396.63049   -996806.03948  20306024.082    20306031.985
       244.000         217.000
  23695351.871     -155177.26749   -116352.66145  23695351.190    23695363.200
       211.000         145.000
  23290516.957     2312564.87249   1790795.53145  23290517.720    23290526.314
       221.000         162.000
 99  4  3 17  9  0.0000000  0  7G26G 2G27G19G 7G15G13
  22463571.852    -1101961.24249   -847859.67346  22463572.273    22463580.139
       228.000         182.000
  21168770.031     -200944.63049   -154417.56647  21168769.576    21168777.350
       241.000         209.000
  20772783.367      845464.67549    657082.08247  20772782.982    20772791.310
       238.000         207.000
  24566130.573     2411553.26249   1871498.57345  24566130.612    24566145.188
       212.000         139.000
  20301932.415    -1316900.88149  -1013562.59248  20301932.065    20301939.798
       243.000         217.000
  23698758.347     -137276.18449   -102403.82045  23698758.631    23698767.424
       207.000         142.000
  23309668.244     2413206.39749   1869217.38545  23309669.691    23309677.867
       221.000         161.000
 99  4  3 17  9 30.0000000  0  7G26G 2G27G19G 7G15G13
  22461197.062    -1114440.98249   -857584.20146  22461196.687    22461205.499
       228.000         181.000
  21171009.009     -189178.95249   -145249.52847  21171008.606    21171016.732
       242.000         210.000
  20782675.860      897450.52449    697590.48847  20782676.043    20782684.038
       240.000         205.000
  24585235.704     2511949.18349   1949728.86545  24585237.045    24585250.808
       202.000         134.000
  20297946.347    -1337847.96349  -1029884.98748  20297946.024    20297953.759
       244.000         217.000
  23702289.465     -118721.33549    -87945.52345  23702288.567    23702301.106
       205.000         144.000
  23328859.815     2514058.96849   1947803.67645  23328860.546    23328870.070
       220.000         161.000
 99  4  3 17 10  0.0000000  0  7G26G 2G27G19G 7G15G13
  22458935.784    -1126324.23749   -866843.91546  22458935.952    22458944.237
       232.000         181.000
  21173291.626     -177183.58449   -135902.51847  21173291.106    21173299.513
       241.000         208.000
  20792672.152      949980.94049    738523.21747  20792672.233    20792680.464
       244.000         209.000
  24604380.029     2612551.74249   2028120.01445  24604381.851    24604395.154
       212.000         141.000
  20294060.837    -1358267.01149  -1045795.92448  20294060.444    20294068.067
       244.000         216.000
  23705941.963      -99526.92449    -72988.86245  23705941.298    23705953.134
       214.000         148.000
  23348088.256     2615104.92049   2026540.65545  23348088.155    23348097.087
       217.000         158.000
 99  4  3 17 10 30.0000000  0  6G26G 2G27G 7G15G13
  22456762.373    -1137745.96749   -875743.99346  22456762.817    22456770.210
       229.000         182.000
  21175584.778     -165133.38549   -126512.77247  21175584.638    21175592.483
       243.000         210.000
  20802742.396     1002899.82549    779758.66147  20802742.381    20802750.398
       240.000         207.000
  20290246.088    -1378313.83849  -1061416.82448  20290245.405    20290253.280
       244.000         217.000
  23709685.202      -79855.37449    -57660.45545  23709684.567    23709695.268
       212.000         148.000
  23367321.616     2716176.49149   2105297.58445  23367322.449    23367331.709
       217.000         158.000
 99  4  3 17 11  0.0000000  0  6G26G 2G27G 7G15G13
  22454675.843    -1148711.19749   -884288.35546  22454675.691    22454683.658
       229.000         184.000
  21177880.975     -153066.96949   -117110.40447  21177880.778    21177888.676
       242.000         209.000
  20812883.333     1056190.41849    821283.75347  20812883.371    20812891.500
       241.000         207.000
  20286501.606    -1397991.10049  -1076749.74348  20286500.908    20286508.859
       243.000         217.000
  23713515.503      -59727.68749    -41976.48645  23713514.685    23713526.943
       213.000         150.000
  23386554.284     2817244.85249   2184052.01445  23386555.574    23386564.504
       218.000         160.000
 99  4  3 17 11 30.0000000  0  6G26G 2G27G 7G15G13
  22452691.403    -1159139.93449   -892414.68346  22452691.485    22452699.045
       230.000         183.000
  21180192.022     -140922.57649   -107647.25847  21180191.968    21180199.811
       243.000         209.000
  20823106.875     1109915.26749    863147.21947  20823106.983    20823115.123
       240.000         207.000
  20282838.386    -1417241.32349  -1091749.91048  20282837.864    20282845.594
       245.000         217.000
  23717445.665      -39075.05449    -25883.53045  23717444.695    23717457.205
       213.000         153.000
  23405796.342     2918361.03749   2262843.68845  23405797.843    23405806.321
       218.000         160.000
 99  4  3 17 12  0.0000000  0  6G26G 2G27G 7G15G13
  22450812.320    -1169014.74849   -900109.37346  22450811.876    22450820.167
       217.000         182.000
  21182522.154     -128677.92749    -98106.00047  21182521.655    21182529.983
       243.000         209.000
  20833415.308     1164085.74249    905357.91947  20833415.317    20833423.225
       240.000         207.000
  20279260.473    -1436043.71949  -1106401.13348  20279259.960    20279267.892
       244.000         217.000
  23721480.335      -17872.50249     -9362.02845  23721479.961    23721490.714
       217.000         154.000
  23425052.355     3019551.76449   2341693.48345  23425052.404    23425060.375
       218.000         159.000
 99  4  3 17 12 30.0000000  0  6G26G 2G27G 7G15G13
  22449043.303    -1178311.51749   -907353.64846  22449043.311    22449050.729
       227.000         181.000
  21184878.384     -116295.76049    -88457.58647  21184877.904    21184886.432
       242.000         209.000
  20843815.758     1218740.26149    947945.81347  20843815.657    20843824.104
       240.000         207.000
  20275774.612    -1454361.99149  -1120675.10948  20275774.124    20275781.853
       245.000         218.000
  23725626.972        3917.69249      7617.35245  23725626.481    23725637.802
       215.000         154.000
  23444329.229     3120850.89149   2420627.72245  23444329.179    23444337.722
       219.000         158.000
 99  4  3 17 13  0.0000000  0  6G26G 2G27G 7G15G13
  22447379.460    -1187054.90249   -914166.70446  22447379.762    22447387.797
       229.000         182.000
  21187263.440     -103762.35149    -78691.32247  21187263.443    21187271.334
       243.000         209.000
  20854307.099     1273872.33149    990905.81847  20854306.714    20854315.349
       240.000         207.000
  20272380.309    -1472199.41949  -1134574.40848  20272379.843    20272387.810
       244.000         218.000
  23729886.009       26297.69749     25056.36945  23729885.782    23729896.310
       215.000         154.000
  23463629.479     3222273.29449   2499658.03745  23463630.237    23463639.327
       218.000         159.000
 99  4  3 17 13 30.0000000  0  6G26G 2G27G 7G15G13
  22445805.346    -1195327.26049   -920612.73446  22445806.362    22445813.387
       229.000         182.000
  21189666.998      -91132.69149    -68850.05047  21189666.549    21189674.713
       242.000         209.000
  20864872.955     1329395.95249   1034170.92247  20864872.689    20864880.965
       239.000         207.000
  20269062.754    -1489633.23749  -1148159.20748  20269062.100    20269070.160
       244.000         218.000
  23734243.301       49195.69949     42898.97445  23734242.096    23734252.824
       211.000         152.000
  23482938.942     3323745.63949   2578727.26145  23482939.689    23482948.794
       220.000         158.000
 99  4  3 17 14  0.0000000  0  6G26G 2G27G 7G15G13
  22444323.660    -1203114.18449   -926680.50046  22444324.008    22444332.082
       230.000         183.000
  21192092.793      -78385.05749    -58916.85447  21192092.470    21192100.325
       244.000         209.000
  20875518.039     1385336.40649   1077760.83247  20875517.960    20875526.262
       240.000         206.000
  20265830.317    -1506619.90849  -1161395.57948  20265829.888    20265837.507
       245.000         218.000
  23738703.217       72633.59849     61162.27845  23738701.809    23738713.686
       211.000         151.000
  23502262.160     3425288.26749   2657851.23845  23502263.681    23502271.305
       221.000         158.000
 99  4  3 17 14 30.0000000  0  6G26G 2G27G 7G15G13
  22442939.493    -1210388.50749   -932348.82746  22442939.117    22442947.466
       228.000         182.000
  21194545.500      -65496.28049    -48873.67947  21194544.802    21194552.826
       242.000         209.000
  20886250.873     1441737.66649   1121709.81347  20886250.979    20886259.058
       241.000         206.000
  20262690.329    -1523120.76349  -1174253.38348  20262689.832    20262697.643
       244.000         218.000
  23743272.083       96643.24749     79871.06845  23743271.215    23743283.044
       209.000         149.000
  23521604.164     3526929.84049   2737052.34045  23521605.182    23521612.606
       220.000         159.000
 99  4  3 17 15  0.0000000  0  6G26G 2G27G 7G15G13
  22441653.570    -1217146.22349   -937614.62046  22441654.206    22441662.031
       229.000         183.000
  21197026.090      -52460.61149    -38716.04147  21197025.674    21197033.977
       242.000         209.000
  20897072.619     1498605.87949   1166022.65547  20897072.198    20897080.549
       239.000         206.000
  20259645.697    -1539120.37849  -1186720.61648  20259645.140    20259653.133
       244.000         217.000
  23747950.774      121230.84249     99030.23545  23747951.156    23747961.895
       211.000         151.000
  23540966.294     3628676.91549   2816335.62545  23540967.547    23540976.587
       219.000         159.000
 99  4  3 17 15 30.0000000  0  6G26G 2G27G 7G15G13
  22440471.167    -1223359.95849   -942456.52646  22440471.645    22440479.384
       229.000         183.000
  21199536.451      -39268.21849    -28436.28347  21199535.867    21199544.092
       242.000         208.000
  20907989.862     1555976.20249   1210726.74947  20907989.830    20907998.294
       239.000         206.000
  20256700.009    -1554599.91349  -1198782.59448  20256699.469    20256707.233
       244.000         217.000
  23752743.375      146415.41649    118654.55445  23752743.968    23752753.947
       211.000         149.000
  23560347.707     3730524.80249   2895697.46245  23560348.860    23560357.281
       220.000         159.000
 99  4  3 17 16  0.0000000  0  6G26G 2G27G 7G15G13
  22439394.907    -1229015.71949   -946863.63646  22439395.300    22439402.915
       229.000         183.000
  21202076.945      -25917.71049    -18033.31647  21202076.488    21202084.760
       241.000         208.000
  20919005.253     1613862.60949   1255832.99447  20919005.104    20919013.571
       239.000         205.000
  20253854.394    -1569554.04749  -1210435.16748  20253854.109    20253861.729
       244.000         217.000
  23757650.873      172204.72449    138750.11245  23757649.531    23757661.943
       211.000         147.000
  23579748.907     3832479.12949   2975142.25645  23579749.599    23579757.937
       222.000         159.000
 99  4  3 17 16 30.0000000  0  6G26G 2G27G 7G15G13
  22438423.987    -1234117.78449   -950839.29546  22438424.212    22438431.805
       230.000         183.000
  21204645.577      -12419.62749     -7515.36147  21204645.349    21204653.380
       242.000         208.000
  20930114.120     1672239.75449   1301321.63247  20930114.064    20930122.337
       240.000         205.000
  20251102.818    -1584013.76749  -1221702.48448  20251102.344    20251110.222
       244.000         218.000
  23762671.048      198586.05149    159307.01045  23762669.616    23762682.891
       212.000         148.000
  23599166.745     3934519.93749   3054654.43545  23599166.737    23599176.343
       217.000         158.000
 99  4  3 17 17  0.0000000  0  6G26G 2G27G 7G15G13
  22437547.592    -1238723.86949   -954428.47046  22437547.589    22437555.428
       228.000         183.000
  21207229.467        1158.29749      3064.81047  21207229.141    21207237.140
       243.000         208.000
  20941298.151     1731011.39049   1347117.65647  20941297.791    20941306.370
       239.000         205.000
  20248431.102    -1598053.52549  -1232642.55848  20248430.443    20248438.131
       245.000         218.000
  23767789.880      225485.33449    180267.49745  23767789.742    23767800.124
       215.000         151.000
  23618584.267     4036560.21249   3134166.19045  23618584.084    23618594.013
       217.000         157.000
 99  4  3 17 17 30.0000000  0  6G26G 2G27G 7G15G13
  22436792.239    -1242693.46549   -957521.70846  22436792.622    22436800.436
       229.000         183.000
  21209851.484       14936.76449     13801.24447  21209851.276    21209859.124
       242.000         208.000
  20952579.476     1790295.16249   1393312.74747  20952579.611    20952587.831
       239.000         205.000
  20245862.199    -1611553.18249  -1243161.78548  20245861.822    20245869.413
       244.000         218.000
  23773030.840      253026.30349    201727.99045  23773030.054    23773041.489
       214.000         151.000
  23638024.186     4138717.34149   3213769.00645  23638024.876    23638034.586
       220.000         155.000
 99  4  3 17 18  0.0000000  0  6G26G 2G27G 7G15G13
  22436146.096    -1246088.98849   -960167.59146  22436146.689    22436154.133
       231.000         184.000
  21212501.732       28863.16049     24652.95747  21212501.291    21212509.754
       242.000         208.000
  20963942.825     1850010.09249   1439843.81547  20963942.734    20963951.185
       239.000         205.000
  20243386.173    -1624565.00249  -1253300.86348  20243385.776    20243393.561
       246.000         218.000
  23778381.169      281141.39749    223635.83445  23778380.690    23778392.134
       218.000         152.000
  23657476.710     4240939.31949   3293422.34745  23657478.408    23657486.751
       218.000         156.000
 99  4  3 17 18 30.0000000  0  6G26G 2G27G 7G15G13
  22435608.188    -1248916.07749   -962370.53846  22435608.501    22435616.067
       230.000         185.000
  21215178.563       42929.51149     35613.72347  21215178.318    21215186.181
       243.000         208.000
  20975387.918     1910154.29349   1486709.37847  20975387.701    20975396.163
       239.000         205.000
  20241001.505    -1637096.76849  -1263065.88148  20241001.047    20241008.747
       245.000         218.000
  23783839.789      309826.47249    245987.81245  23783839.461    23783850.373
       213.000         152.000
  23676940.013     4343217.87349   3373119.77145  23676940.395    23676949.878
       218.000         155.000
 99  4  3 17 19  0.0000000  0  6G26G 2G27G 7G15G13
  22435177.430    -1251180.08149   -964134.73046  22435177.940    22435185.725
       230.000         183.000
  21217882.953       57141.08549     46687.64747  21217882.775    21217890.493
       242.000         208.000
  20986917.863     1970744.03249   1533922.09747  20986917.839    20986926.332
       239.000         205.000
  20238708.171    -1649148.48649  -1272456.83348  20238707.574    20238715.636
       245.000         218.000
  23789406.539      339080.53749    268783.13345  23789405.018    23789418.235
       211.000         152.000
  23696415.618     4445561.65949   3452868.01645  23696417.731    23696425.265
       218.000         154.000
 99  4  3 17 19 30.0000000  0  6G26G 2G27G 7G15G13
  22434827.607    -1253018.59249   -965567.35946  22434827.962    22434835.654
       230.000         183.000
  21220592.467       71379.41149     57782.42147  21220592.090    21220600.103
       243.000         208.000
  20998512.259     2031672.98449   1581399.14947  20998512.432    20998520.869
       239.000         205.000
  20236479.579    -1660859.89749  -1281582.61148  20236479.007    20236486.930
       246.000         218.000
  23795057.768      368778.30349    291924.20245  23795056.645    23795068.710
       208.000         152.000
  23715881.505     4547855.32249   3532577.20645  23715882.926    23715890.630
       217.000         153.000
 99  4  3 17 20  0.0000000  0  6G26G 2G27G 7G15G13
  22434588.361    -1254276.00249   -966547.19146  22434588.428    22434596.468
       229.000         183.000
  21223341.704       85826.54349     69039.90047  21223341.486    21223349.154
       243.000         208.000
  21010205.772     2093122.60049   1629281.91347  21010206.077    21010214.205
       240.000         204.000
  20234346.724    -1672068.26149  -1290316.40248  20234346.254    20234354.127
       246.000         218.000
  23800826.094      399090.97149    315544.40945  23800825.132    23800836.981
       205.000         150.000
  23735369.470     4650264.12549   3612376.11745  23735369.586    23735379.541
       217.000         152.000
 99  4  3 17 20 30.0000000  0  6G26G 2G27G 7G15G13
  22434446.788    -1255019.93549   -967126.89146  22434446.656    22434454.891
       230.000         183.000
  21226115.670      100403.62749     80398.63747  21226115.226    21226123.502
       242.000         208.000
  21021989.070     2155043.48849   1677531.89747  21021989.360    21021997.470
       240.000         204.000
  20232293.401    -1682858.54149  -1298724.41248  20232293.035    20232300.886
       246.000         218.000
  23806699.595      429956.71149    339595.60745  23806698.785    23806711.701
       208.000         148.000
  23754866.274     4752718.66049   3692210.64545  23754866.738    23754876.277
       213.000         151.000
 99  4  3 17 21  0.0000000  0  6G26G 2G27G 7G15G13
  22434407.213    -1255227.84349   -967288.93346  22434407.653    22434415.377
       230.000         183.000
  21228921.320      115147.22749     91887.12547  21228920.984    21228928.944
       242.000         208.000
  21033867.967     2217466.73449   1726173.32347  21033868.336    21033876.479
       239.000         204.000
  20230326.954    -1693192.22649  -1306776.63748  20230326.426    20230334.327
       245.000         218.000
  23812684.083      461405.51549    364101.12345  23812682.913    23812695.772
       208.000         149.000
  23774379.117     4855260.34549   3772113.10845  23774378.101    23774387.954
       211.000         149.000
 99  4  3 17 21 30.0000000  0  6G26G 2G27G 7G15G13
  22434456.174    -1254971.14649   -967088.96246  22434456.819    22434464.396
       229.000         183.000
  21231743.342      129977.13949    103442.87047  21231742.930    21231751.169
       242.000         208.000
  21045827.014     2280311.43349   1775143.15947  21045827.057    21045835.296
       239.000         204.000
  20228437.324    -1703122.26249  -1314514.32748  20228436.775    20228444.706
       246.000         218.000
  23818766.469      493368.90449    389007.63345  23818765.911    23818777.072
       206.000         148.000
  23793895.160     4957819.79549   3852029.38545  23793894.679    23793905.516
       215.000         150.000
 99  4  3 17 22  0.0000000  0  6G26G 2G27G 7G15G13
  22434597.198    -1254229.74649   -966511.28246  22434597.571    22434605.077
       230.000         183.000
  21234581.484      144891.62349    115064.51047  21234581.185    21234589.121
       242.000         208.000
  21057867.130     2343582.32249   1824445.08047  21057867.442    21057875.428
       239.000         204.000
  20226630.563    -1712617.12649  -1321912.93748  20226630.165    20226637.917
       246.000         218.000
  23824949.733      525861.72449    414326.67645  23824949.581    23824960.918
       212.000         150.000
  23813416.034     5060404.26149   3931965.16145  23813417.464    23813427.034
       212.000         148.000
 99  4  3 17 22 30.0000000  0  6G26G 2G27G 7G15G13
  22434834.165    -1252984.44049   -965540.93746  22434834.227    22434842.245
       229.000         182.000
  21237435.118      159887.39149    126749.48347  21237434.790    21237442.799
       243.000         208.000
  21069987.190     2407273.32649   1874074.37847  21069987.451    21069995.037
       239.000         203.000
  20224910.829    -1721654.54449  -1328955.07848  20224910.196    20224917.817
       246.000         218.000
  23831236.013      558895.77349    440067.42745  23831235.239    23831247.466
       205.000         150.000
  23832945.042     5163030.35349   4011933.35645  23832945.345    23832955.744
       210.000         147.000
 99  4  3 17 23  0.0000000  0  8G26G 2G27G 9G 4G 7G15G13
  22435185.361    -1251139.04549   -964103.00746  22435186.034    22435193.312
       230.000         183.000
  21240323.941      175067.85349    138578.37147  21240323.680    21240331.279
       243.000         208.000
  21082202.566     2471465.12349   1924093.90147  21082202.465    21082210.893
       239.000         203.000

       200.000          83.000
  24380752.348    -5586305.64759  -3068237.13145  24380752.506    24380764.332
       211.000         140.000
  20223299.779    -1730120.56849  -1335551.98648  20223299.171    20223306.995
       246.000         218.000
  23837643.185      592565.58849    466303.60045  23837643.813    23837654.564
       212.000         150.000
  23852497.783     5265780.59149   4091998.33145  23852498.979    23852509.219
       212.000         147.000
 99  4  3 17 23 30.0000000  0  8G26G 2G27G 9G 4G 7G15G13
  22435643.983    -1248729.73349   -962225.65546  22435644.117    22435652.201
       230.000         183.000
  21243238.735      190384.59449    150513.45847  21243238.352    21243246.232
       243.000         208.000
  21094504.062     2536109.78249   1974466.29447  21094503.759    21094512.058
       238.000         203.000

       200.000          74.000
  24361210.595    -5688997.32549  -3148256.42045  24361208.706    24361223.947
       208.000         142.000
  20221788.574    -1738061.94949  -1341740.07648  20221788.127    20221795.810
       246.000         218.000
  23844162.109      626822.22549    492997.00545  23844162.080    23844173.173
       214.000         152.000
  23872058.640     5368572.14749   4172095.43745  23872060.616    23872068.352
       214.000         147.000
 99  4  3 17 24  0.0000000  0  8G26G 2G27G 9G 4G 7G15G13
  22436206.322    -1245774.88149   -959923.20846  22436207.067    22436214.054
       230.000         184.000
  21246179.450      205838.37949    162555.33147  21246179.106    21246187.054
       242.000         208.000
  21106889.950     2601197.98249   2025184.31147  21106889.684    21106898.625
       238.000         202.000

       207.000          74.000
  24341654.747    -5791763.65849  -3228333.78645  24341653.094    24341666.190
       205.000         139.000
  20220372.613    -1745502.87849  -1347538.21348  20220372.208    20220380.093
       246.000         218.000
  23850789.548      661649.02749    520134.70545  23850789.382    23850800.587
       212.000         150.000
  23891622.236     5471376.08149   4252202.23945  23891622.524    23891632.606
       215.000         149.000
 99  4  3 17 24 30.0000000  0  8G26G 2G27G 9G 4G 7G15G13
  22436863.580    -1242321.08349   -957231.98546  22436863.942    22436871.529
       229.000         183.000
  21249143.195      221412.63749    174691.08047  21249142.705    21249150.778
       243.000         208.000
  21119353.147     2666692.61449   2076219.02847  21119353.256    21119361.939
       237.000         202.000

       198.000          74.000
  24322077.833    -5894639.59649  -3308496.61445  24322076.887    24322090.756
       208.000         140.000
  20219044.050    -1752484.60849  -1352978.52648  20219043.707    20219051.651
       245.000         218.000
  23857517.339      697003.14149    547683.33145  23857516.965    23857527.877
       217.000         149.000
  23911180.137     5574151.26349   4332286.61145  23911180.444    23911189.028
       214.000         147.000
 99  4  3 17 25  0.0000000  0  8G26G 2G27G 9G 4G 7G15G13
  22437625.247    -1238318.48749   -954113.12246  22437625.355    22437633.392
       230.000         182.000
  21252143.643      237179.76949    186977.11647  21252143.207    21252151.176
       242.000         207.000
  21131905.728     2732656.79049   2127619.61947  21131906.496    21131914.330
       240.000         203.000

       208.000          74.000
  24302489.188    -5997574.69249  -3388705.59645  24302487.428    24302499.915
       204.000         138.000
  20217811.183    -1758963.49849  -1358027.02048  20217810.571    20217818.600
       246.000         218.000
  23864354.646      732932.82749    575680.41545  23864353.822    23864365.600
       213.000         147.000
  23930741.206     5676943.52049   4412384.27845  23930741.243    23930751.888
       214.000         147.000
 99  4  3 17 25 30.0000000  0  8G26G 2G27G 9G 4G 7G15G13
  22438486.304    -1233793.97049   -950587.56446  22438486.719    22438494.611
       229.000         183.000
  21255175.427      253111.95149    199391.77047  21255175.158    21255182.669
       242.000         207.000
  21144541.358     2799056.33649   2179359.46747  21144541.578    21144549.251
       238.000         203.000

       211.000          74.000
  24282883.231    -6100602.77449  -3468986.99545  24282881.271    24282896.297
       203.000         137.000
  20216662.973    -1764997.58549  -1362728.91248  20216662.666    20216670.436
       246.000         218.000
  23871294.311      769400.70849    604096.89545  23871293.447    23871306.479
       213.000         149.000
  23950301.583     5779734.47849   4492480.95545  23950302.581    23950310.927
       211.000         148.000
 99  4  3 17 26  0.0000000  0  8G26G 2G27G 9G 4G 7G15G13
  22439444.640    -1228757.94849   -946663.43246  22439445.005    22439452.566
       229.000         183.000
  21258238.127      269206.17149    211932.68847  21258237.598    21258245.568
       243.000         207.000
  21157255.986     2865871.50949   2231423.17447  21157256.556    21157263.548
       240.000         202.000
  24418516.171    -3993217.51749   -413417.94944  24418514.814    24418525.503
       205.000         128.000
  24263263.754    -6203702.58849  -3549324.26345  24263263.332    24263275.456
       200.000         137.000
  20215596.329    -1770603.27349  -1367096.98648  20215595.764    20215603.581
       246.000         218.000
  23878335.916      806405.03649    632931.42245  23878334.823    23878347.140
       214.000         149.000
  23969866.260     5882550.51149   4572597.17545  23969867.096    23969877.144
       213.000         148.000
 99  4  3 17 26 30.0000000  0  8G26G 2G27G 9G 4G 7G15G13
  22440508.611    -1223167.34149   -942307.15346  22440509.269    22440516.959
       229.000         183.000
  21261335.030      285480.18849    224613.70147  21261334.664    21261342.427
       243.000         206.000
  21170054.511     2933127.31449   2283830.23147  21170054.336    21170063.103
       239.000         202.000
  24399663.714    -4092287.35749   -490615.13445  24399663.744    24399672.864
       205.000         140.000
  24243640.109    -6306823.47549  -3629677.96045  24243640.477    24243654.006
       208.000         139.000
  20214615.654    -1775756.73349  -1371112.67448  20214615.203    20214623.051
       246.000         217.000
  23885486.646      843981.67849    662211.82345  23885486.492    23885496.435
       215.000         147.000
  23989444.432     5985433.93249   4652765.88545  23989445.013    23989455.737
       208.000         146.000
 99  4  3 17 27  0.0000000  0  8G26G 2G27G 9G 4G 7G15G13
  22441671.075    -1217059.00849   -937547.45846  22441671.474    22441679.554
       230.000         182.000
  21264452.259      301861.37449    237378.22147  21264451.846    21264459.868
       242.000         205.000
  21182927.850     3000776.92349   2336544.15247  21182927.724    21182936.421
       237.000         200.000

       200.000         134.000
  24224000.493    -6410031.08449  -3710099.31245  24224001.763    24224014.157
       208.000         140.000
  20213709.233    -1780520.16949  -1374824.44948  20213708.571    20213716.550
       245.000         216.000
  23892737.048      882081.80849    691900.21845  23892737.422    23892748.605
       215.000         147.000
  24009024.981     6088330.13249   4732944.57045  24009027.876    24009036.281
       215.000         145.000
 99  4  3 17 27 30.0000000  0  8G26G 2G27G 9G 4G 7G15G13
  22442926.210    -1210463.63849   -932408.25246  22442926.136    22442934.337
       230.000         183.000
  21267582.574      318311.18349    250196.21747  21267582.189    21267590.186
       243.000         206.000
  21195871.207     3068794.68049   2389544.94147  21195871.444    21195879.639
       238.000         201.000
  24361979.536    -4290318.77749   -644925.31945  24361979.562    24361987.065
       207.000         135.000
  24204339.041    -6513350.58949  -3790607.78045  24204338.465    24204352.700
       204.000         136.000
  20212874.129    -1784908.75049  -1378244.12248  20212873.529    20212881.568
       245.000         217.000
  23900083.293      920685.54649    721980.98045  23900081.738    23900094.596
       207.000         146.000
  24028602.341     6191206.73349   4813107.98345  24028604.803    24028614.187
       214.000         148.000
 99  4  3 17 28  0.0000000  0  8G26G 2G27G 9G 4G 7G15G13
  22444288.367    -1203305.69049   -926830.69546  22444288.722    22444296.105
       231.000         182.000
  21270742.157      334914.43649    263133.77847  21270741.882    21270749.860
       242.000         206.000
  21208903.838     3137280.93649   2442910.78747  21208904.021    21208911.934
       239.000         201.000
  24343163.120    -4389199.47149   -721975.13945  24343162.699    24343172.318
       206.000         141.000
  24184675.382    -6616685.20449  -3871128.07645  24184676.847    24184688.173
       210.000         139.000
  20212130.605    -1788815.77349  -1381288.56848  20212130.163    20212137.940
       246.000         218.000
  23907541.640      959880.39949    752522.32745  23907539.885    23907552.184
       206.000         141.000
  24048188.348     6294129.67949   4893307.46045  24048190.004    24048199.195
       214.000         146.000
 99  4  3 17 28 30.0000000  0  8G26G 2G27G 9G 4G 7G15G13
  22445745.075    -1195650.60049   -920865.74046  22445745.174    22445753.889
       230.000         183.000
  21273919.042      351608.88549    276142.39947  21273918.483    21273926.777
       242.000         207.000
  21222016.652     3206188.68649   2496605.06847  21222016.584    21222025.009
       238.000         201.000
  24324358.613    -4488018.72759   -798976.85245  24324359.506    24324366.971
       207.000         140.000
  24164994.437    -6720111.93249  -3951720.20545  24164993.703    24165007.855
       208.000         143.000
  20211467.743    -1792299.45449  -1384003.12948  20211467.382    20211475.120
       246.000         218.000
  23915098.947      999594.47049    783468.29545  23915098.942    23915110.464
       201.000         140.000
  24067766.355     6397009.51549   4973473.35045  24067768.820    24067775.551
       214.000         147.000
 99  4  3 17 29  0.0000000  0  8G26G 2G27G 9G 4G 7G15G13
  22447299.540    -1187482.13649   -914500.76346  22447299.688    22447308.225
       230.000         184.000
  21277120.025      368430.13449    289249.82247  21277120.086    21277127.909
       243.000         207.000
  21235216.178     3275552.32849   2550654.59447  21235216.236    21235224.702
       238.000         201.000
  24305566.987    -4586770.28249   -875926.12945  24305566.536    24305576.489
       206.000         141.000
  24145300.948    -6823599.52749  -4032359.66345  24145302.195    24145314.304
       205.000         144.000
  20210892.361    -1795323.56549  -1386359.58748  20210891.871    20210899.771
       246.000         218.000
  23922759.345     1039850.76349    814836.71145  23922756.360    23922771.615
       198.000         138.000
  24087338.291     6499859.42049   5053615.95145  24087341.041    24087348.414
       214.000         146.000
 99  4  3 17 29 30.0000000  0  8G26G 2G27G 9G 4G 7G15G13
  22448953.599    -1178790.22249   -907727.89546  22448954.512    22448961.937
       230.000         184.000
  21280351.281      385409.97249    302480.83547  21280350.800    21280358.885
       242.000         207.000
  21248503.515     3345377.58849   2605063.81947  21248503.277    21248511.999
       237.000         201.000
  24286788.994    -4685449.05249   -952818.62045  24286788.886    24286797.053
       210.000         143.000
  24125604.464    -6927105.17349  -4113013.25045  24125604.302    24125616.636
       208.000         140.000
  20210410.122    -1797857.94349  -1388334.42948  20210409.714    20210417.404
       246.000         218.000
  23930526.437     1080667.19749    846641.64945  23930527.790    23930538.001
       209.000         142.000
  24106910.285     6602707.68149   5133757.24345  24106910.743    24106921.389
       212.000         144.000
 99  4  3 17 30  0.0000000  0  8G26G 2G27G 9G 4G 7G15G13
  22450710.615    -1169556.96849   -900533.20446  22450711.326    22450719.645
       230.000         184.000
  21283614.968      402560.58649    315844.91247  21283614.340    21283622.537
       242.000         207.000
  21261878.737     3415664.77249   2659832.97647  21261878.398    21261887.262
       237.000         201.000
  24268023.453    -4784063.22158  -1029660.77245  24268022.148    24268031.176
       172.000         137.000
  24105908.075    -7030611.99849  -4193667.73645  24105907.847    24105919.831
       207.000         140.000
  20210022.420    -1799895.54449  -1389922.17348  20210021.993    20210029.639
       247.000         218.000
  23938401.278     1122048.76249    878886.99045  23938401.719    23938413.410
       205.000         143.000
  24126485.002     6705573.75649   5213912.40545  24126485.152    24126494.528
       209.000         145.000
 99  4  3 17 30 30.0000000  0  7G26G 2G27G 4G 7G15G13
  22452569.751    -1159788.03449   -892921.09346  22452569.889    22452578.204
       229.000         184.000
  21286907.628      419863.86849    329327.95747  21286907.021    21286915.419
       241.000         206.000
  21275339.277     3486400.93949   2714952.00547  21275338.749    21275348.118
       236.000         200.000
  24086207.123    -7134139.72749  -4274338.56045  24086207.016    24086219.076
       205.000         141.000
  20209726.850    -1801448.89349  -1391132.57448  20209726.218    20209734.258
       246.000         218.000
  23946382.649     1163989.07049    911567.63245  23946384.563    23946393.639
       212.000         150.000
  24146064.176     6808461.75949   5294084.72345  24146063.488    24146074.111
       206.000         138.000
 99  4  3 17 31  0.0000000  0  8G26G 2G27G 9G 4G 7G15G13
  22454526.389    -1149506.07849   -884909.23146  22454526.934    22454534.615
       230.000         184.000
  21290224.689      437295.02849    342910.63747  21290224.764    21290232.747
       243.000         207.000
  21288878.317     3557548.46649   2770391.55147  21288878.276    21288886.677
       237.000         200.000

       207.000          74.000
  24066498.911    -7237704.62049  -4355038.23945  24066496.981    24066510.177
       199.000         139.000
  20209517.536    -1802548.96549  -1391989.77748  20209516.903    20209524.843
       246.000         218.000
  23954465.525     1206463.71349    944664.70945  23954464.629    23954476.669
       213.000         150.000
  24165643.019     6911350.49449   5374257.54845  24165642.034    24165654.133
       200.000         138.000
 99  4  3 17 31 30.0000000  0  8G26G 2G27G 9G 4G 7G15G13
  22456582.434    -1138701.68149   -876490.26446  22456582.701    22456590.275
       229.000         184.000
  21293570.138      454874.44449    356608.84847  21293569.758    21293577.818
       242.000         207.000
  21302498.317     3629122.11649   2826163.14547  21302498.027    21302507.318
       236.000         200.000

       205.000          74.000
  24046785.530    -7341297.58949  -4435759.85845  24046785.777    24046798.076
       211.000         140.000
  20209396.027    -1803187.42349  -1392487.28148  20209395.487    20209403.199
       246.000         218.000
  23962652.375     1249485.65049    978188.20545  23962652.261    23962663.179
       212.000         152.000
  24185225.102     7014258.17149   5454445.15645  24185223.818    24185237.338
       206.000         140.000
 99  4  3 17 32  0.0000000  0  8G26G 2G27G 9G 4G 7G15G13
  22458738.388    -1127372.03049   -867662.00946  22458738.569    22458746.831
       231.000         184.000
  21296945.148      472610.22149    370428.90547  21296944.882    21296952.962
       242.000         207.000
  21316203.400     3701142.67149   2882282.98247  21316203.489    21316212.135
       237.000         200.000
                  -1281495.00745                                  24193056.716
       205.000         134.000
  24027065.821    -7444925.23749  -4516508.50345  24027062.641    24027076.540
       198.000         140.000
  20209360.789    -1803372.69249  -1392631.64748  20209360.201    20209367.883
       246.000         218.000
  23970944.062     1293058.08849   1012140.70545  23970944.970    23970954.316
       216.000         150.000
  24204807.576     7117165.56249   5534632.53345  24204806.951    24204820.187
       205.000         142.000
 99  4  3 17 32 30.0000000  0  8G26G 2G27G 9G 4G 7G15G13
  22460990.713    -1115536.16049   -858439.29846  22460990.910    22460998.691
       230.000         184.000
  21300347.021      490486.63049    384358.54147  21300346.537    21300354.834
       243.000         207.000
  21329990.603     3773594.54349   2938738.90747  21329990.765    21329999.441
       237.000         199.000
  24174335.843    -1763004.19449  -1358114.58245  24174336.315    24174346.267
       208.000         141.000
  24007337.280    -7548595.52249  -4597290.37745  24007336.986    24007350.129
       206.000         137.000
  20209406.595    -1803132.04849  -1392444.13848  20209406.279    20209413.969
       246.000         218.000
  23979337.992     1337168.30449   1046512.26745  23979337.720    23979349.010
       211.000         148.000
  24224384.333     7220044.64649   5614797.84745  24224383.518    24224397.581
       202.000         138.000
 99  4  3 17 33  0.0000000  0  8G26G 2G27G 9G 4G 7G15G13
  22463333.955    -1103222.48449   -848844.27446  22463334.177    22463342.194
       230.000         184.000
  21303773.373      508492.29649    398388.88947  21303772.805    21303781.426
       242.000         207.000
  21343854.630     3846450.08849   2995509.38047  21343854.577    21343863.374
       236.000         199.000
  24155638.910    -1861264.36549  -1434680.93245  24155639.069    24155646.818
       207.000         143.000
  23987600.878    -7652309.52849  -4678106.35645  23987600.330    23987613.312
       200.000         143.000
  20209527.901    -1802494.94049  -1391947.69848  20209527.545    20209535.254
       246.000         219.000
  23987829.676     1381792.55849   1081284.35245  23987828.952    23987840.062
       210.000         146.000
  24243950.169     7322866.17149   5694918.32145  24243951.392    24243963.733
       199.000         135.000
 99  4  3 17 33 30.0000000  0  8G26G 2G27G 9G 4G 7G15G13
  22465775.464    -1090392.61249   -838847.01146  22465775.447    22465783.781
       230.000         184.000
  21307230.004      526657.04949    412543.21047  21307229.562    21307237.715
       242.000         207.000
  21357802.757     3919748.11149   3052624.64147  21357802.811    21357811.602
       237.000         198.000
  24136961.933    -1959412.78149  -1511160.13445  24136961.279    24136970.759
       208.000         146.000
  23967862.650    -7756033.90349  -4758930.24545  23967862.624    23967876.386
       213.000         146.000
  20209732.631    -1801419.26049  -1391109.51548  20209731.944    20209739.803
       247.000         219.000
  23996426.335     1426967.27049   1116485.35645  23996425.830    23996436.158
       211.000         149.000
  24263512.993     7425669.23549   5775024.43145  24263514.019    24263526.015
       207.000         138.000
 99  4  3 17 34  0.0000000  0  8G26G 2G27G 9G 4G 7G15G13
  22468312.286    -1077061.51149   -828459.18046  22468312.831    22468320.223
       229.000         183.000
  21310710.739      544947.95549    426795.82947  21310710.392    21310718.392
       243.000         207.000
  21371828.030     3993451.27849   3110055.59247  21371827.732    21371836.731
       235.000         198.000
  24118302.102    -2057470.96249  -1587569.07745  24118300.518    24118310.301
       209.000         146.000
  23948121.432    -7859777.27349  -4839769.14445  23948122.250    23948133.308
       206.000         145.000
  20210016.297    -1799928.76049  -1389948.10348  20210015.517    20210023.360
       246.000         219.000
  24005122.236     1472665.80449   1152094.52945  24005122.809    24005134.216
       214.000         148.000
  24283067.665     7528426.27949   5855094.60045  24283068.731    24283080.030
       208.000         138.000
 99  4  3 17 34 30.0000000  0  8G26G 2G27G 9G 4G 7G15G13
  22470937.234    -1063267.63949   -817710.75646  22470937.364    22470945.908
       230.000         183.000
  21314209.508      563333.83649    441122.45447  21314208.940    21314217.122
       241.000         206.000
  21385922.849     4067519.72049   3167771.17947  21385922.984    21385931.422
       236.000         198.000
  24099650.517    -2155483.95549  -1663942.87745  24099649.830    24099658.430
       209.000         141.000
  23928371.822    -7963558.66649  -4920637.59645  23928370.844    23928383.540
       210.000         142.000
  20210375.051    -1798043.09949  -1388478.77448  20210374.459    20210382.267
       246.000         219.000
  24013912.300     1518857.87749   1188088.29245  24013911.225    24013923.408
       210.000         146.000
  24302611.107     7631125.84849   5935120.00245  24302612.022    24302623.908
       203.000         137.000
 99  4  3 17 35  0.0000000  0  8G26G 2G27G 9G 4G 7G15G13
  22473659.298    -1048963.23649   -806564.50946  22473659.209    22473668.023
       230.000         183.000
  21317735.757      581864.46649    455561.86247  21317735.429    21317743.360
       241.000         206.000
  21400097.224     4142006.48649   3225812.73047  21400097.321    21400105.729
       236.000         197.000
  24081011.837    -2253429.33149  -1740263.84945  24081011.133    24081019.987
       208.000         145.000
  23908622.286    -8067344.38249  -5001509.41245  23908622.915    23908634.610
       210.000         147.000
  20210818.511    -1795712.85749  -1386663.01648  20210818.002    20210825.698
       246.000         219.000
  24022803.067     1565578.87349   1224494.20245  24022802.530    24022813.570
       211.000         144.000
  24322150.337     7733804.95049   6015129.46545  24322152.254    24322162.426
       205.000         136.000
 99  4  3 17 35 30.0000000  0  8G26G 2G27G 9G 4G 7G15G13
  22476480.310    -1034139.12549   -795013.29346  22476479.957    22476488.601
       229.000         184.000
  21321289.536      600539.23949    470113.59847  21321289.079    21321297.320
       242.000         206.000
  21414349.023     4216899.71149   3284171.00547  21414349.125    21414357.679
       235.000         197.000
  24062386.106    -2351308.34749  -1816533.18045  24062386.167    24062395.596
       210.000         145.000
  23888869.327    -8171147.12849  -5082394.55245  23888870.429    23888882.918
       217.000         153.000
  20211347.867    -1792931.20249  -1384495.51048  20211347.225    20211355.105
       246.000         219.000
  24031793.998     1612825.89349   1261310.04445  24031793.396    24031805.582
       212.000         145.000
  24341682.590     7836446.40649   6095109.63745  24341685.052    24341696.375
       208.000         136.000
 99  4  3 17 36  0.0000000  0  8G26G 2G27G 9G 4G 7G15G13
  22479402.961    -1018780.01049   -783045.19946  22479402.993    22479411.304
       230.000         183.000
  21324877.300      619392.95249    484804.76047  21324876.515    21324884.944
       242.000         206.000
  21428681.499     4292217.06249   3342859.75647  21428681.483    21428690.398
       235.000         197.000
  24043777.854    -2449094.56049  -1892730.20545  24043776.100    24043787.095
       202.000         141.000
  23869119.665    -8274933.98049  -5163267.25445  23869119.502    23869132.443
       210.000         152.000
  20211967.767    -1789673.48449  -1381957.04448  20211967.226    20211974.887
       246.000         218.000
  24040890.327     1660627.60649   1298558.12145  24040891.167    24040901.403
       207.000         141.000
  24361210.990     7939066.49849   6175073.06745  24361213.413    24361222.587
       207.000         136.000
 99  4  3 17 36 30.0000000  0  8G26G 2G27G 9G 4G 7G15G13
  22482430.935    -1002867.97049   -770646.24146  22482431.437    22482439.260
       229.000         183.000
  21328503.814      638450.67949    499654.89447  21328503.344    21328511.432
       242.000         206.000
  21443100.372     4367988.44649   3401902.30047  21443100.540    21443109.511
       236.000         196.000
  24025192.036    -2546762.62949  -1968835.07645  24025191.786    24025200.940
       201.000         143.000
  23849374.535    -8378695.42149  -5244120.17445  23849374.242    23849384.971
       216.000         146.000
  20212681.714    -1785921.62749  -1379033.53148  20212681.062    20212689.063
       246.000         218.000
  24050096.113     1709004.49349   1336254.31145  24050094.376    24050107.242
       201.000         138.000
  24380737.569     8041677.41749   6255029.41645  24380738.086    24380750.010
       206.000         134.000
 99  4  3 17 37  0.0000000  0  8G26G 2G27G 9G 4G 7G15G13
  22485560.323     -986423.08149   -757832.09046  22485560.880    22485568.861
       227.000         183.000
  21332159.736      657662.86649    514625.38547  21332159.044    21332167.311
       242.000         206.000
  21457597.446     4444170.57149   3461264.91147  21457597.215    21457606.281
       234.000         196.000
  24006625.699    -2644330.19749  -2044861.72745  24006625.819    24006633.371
       211.000         147.000
  23829625.962    -8482474.64849  -5324987.01145  23829627.003    23829638.292
       217.000         155.000
  20213480.641    -1781723.04449  -1375761.92348  20213480.009    20213487.989
       247.000         218.000
  24059404.133     1757917.22649   1374368.02245  24059404.671    24059415.926
       207.000         138.000
  24400252.694     8144229.94949   6334940.24745  24400254.156    24400265.224
       201.000         135.000
 99  4  3 17 37 30.0000000  0  8G26G 2G27G 9G 4G 7G15G13
  22488780.697     -969500.42749   -744645.65446  22488780.921    22488789.430
       230.000         184.000
  21335836.727      676984.94449    529681.50547  21335836.238    21335844.526
       242.000         206.000
  21472162.696     4520711.37749   3520907.00747  21472162.421    21472171.986
       235.000         196.000
  23988074.446    -2741817.84749  -2120826.10545  23988073.912    23988082.848
       209.000         147.000
  23809868.337    -8586302.16549  -5405891.33945  23809867.592    23809878.290
       211.000         153.000
  20214356.720    -1777119.07149  -1372174.42248  20214356.062    20214363.881
       246.000         218.000
  24068806.695     1807328.13349   1412869.94445  24068806.462    24068817.523
       207.000         137.000
  24419751.350     8246697.66249   6414784.94945  24419752.747    24419765.260
       202.000         135.000
 99  4  3 17 38  0.0000000  0  8G26G 2G27G 9G 4G 7G15G13
  22492098.503     -952065.97149   -731060.40646  22492098.634    22492106.715
       230.000         183.000
  21339540.851      696450.11049    544849.12547  21339540.414    21339548.505
       241.000         206.000
  21486807.622     4597670.35549   3580874.95047  21486807.283    21486816.550
       234.000         195.000
  23969546.359    -2839181.96449  -2196694.21245  23969544.939    23969556.359
       205.000         143.000
  23790111.946    -8690122.74149  -5486790.38245  23790112.738    23790121.987
       213.000         150.000
  20215315.039    -1772082.89749  -1368250.14048  20215314.379    20215322.283
       244.000         218.000
  24078311.282     1857274.02249   1451788.73745  24078310.003    24078324.613
       199.000         136.000
  24439245.099     8349138.83349   6494608.97545  24439246.841    24439259.107
       207.000         135.000
 99  4  3 17 38 30.0000000  0  8G26G 2G27G 9G 4G 7G15G13
  22495515.845     -934107.84749   -717067.11546  22495516.688    22495524.266
       230.000         183.000
  21343268.952      716041.59149    560115.15747  21343268.753    21343277.051
       243.000         206.000
  21501533.613     4675055.52249   3641174.98347  21501534.018    21501542.118
       234.000         195.000
  23951042.758    -2936417.83149  -2272462.40945  23951041.089    23951052.880
       207.000         144.000
  23770356.755    -8793936.12749  -5567683.75845  23770356.535    23770366.606
       214.000         150.000
  20216355.977    -1766612.98649  -1363987.89048  20216355.738    20216363.578
       244.000         218.000
  24087916.609     1907749.65948   1491120.26144  24087913.824    24087927.363
       186.000         129.000
  24458735.508     8451556.74749   6574414.90645  24458739.437    24458748.430
       206.000         136.000
 99  4  3 17 39  0.0000000  0  8G26G 2G27G 9G 4G 7G15G13
  22499024.613     -915669.35249   -702699.50946  22499025.039    22499033.141
       229.000         183.000
  21347014.751      735725.76049    575453.41847  21347014.180    21347022.516
       241.000         206.000
  21516331.845     4752820.07549   3701770.64547  21516331.833    21516340.711
       234.000         195.000
  23932556.937    -3033560.69549  -2348158.11745  23932557.265    23932565.709
       212.000         148.000
  23750597.983    -8897766.77249  -5648590.66745  23750596.074    23750608.993
       207.000         148.000
  20217472.233    -1760747.12849  -1359417.10448  20217471.446    20217479.559
       244.000         218.000
  24097615.295     1958717.49859   1530835.29444  24097614.718    24097625.644
       199.000         127.000
  24478215.230     8553920.24649   6654178.41345  24478217.463    24478227.557
       207.000         136.000
 99  4  3 17 39 30.0000000  0  8G26G 2G27G 9G 4G 7G15G13
  22502626.677     -896740.05849   -687949.46146  22502626.476    22502635.987
       228.000         183.000
  21350787.317      755550.66049    590901.34547  21350786.858    21350795.051
       241.000         205.000
  21531209.939     4831004.35449   3762693.35947  21531210.263    21531219.054
       234.000         195.000
  23914090.975    -3130601.00049  -2423773.91545  23914090.350    23914099.045
       208.000         148.000
  23730845.371    -9001563.69349  -5729471.16345  23730843.769    23730858.505
       208.000         151.000
  20218672.481    -1754439.64849  -1354502.19748  20218671.635    20218679.828
       244.000         218.000
  24107413.457     2010204.76249   1570955.09544  24107412.865    24107425.247
       201.000         131.000
  24497689.009     8656252.71249   6733917.72345  24497691.321    24497700.721
       212.000         136.000
 99  4  3 17 40  0.0000000  0  8G26G 2G27G 9G 4G 7G15G13
  22506325.071     -877305.00249   -672805.30246  22506325.375    22506333.187
       229.000         183.000
  21354587.923      775522.91549    606464.09247  21354587.417    21354595.878
       240.000         205.000
  21546169.727     4909618.38449   3823950.95647  21546169.727    21546178.660
       233.000         195.000
  23895643.843    -3227540.56549  -2499311.20445  23895643.790    23895654.163
       213.000         148.000
  23711102.162    -9105312.29949  -5810314.06745  23711102.675    23711113.436
       213.000         151.000
  20219959.267    -1747677.24349  -1349232.80248  20219958.614    20219966.668
       245.000         218.000
  24117311.459     2062219.47249   1611485.92945  24117311.713    24117323.632
       207.000         138.000
  24517156.284     8758548.00449   6813628.10545  24517159.214    24517168.563
       207.000         134.000
 99  4  3 17 40 30.0000000  0  8G26G 2G27G 9G 4G 7G15G13
  22510116.386     -857381.70649   -657280.70746  22510116.161    22510125.005
       229.000         183.000
  21358415.190      795634.96549    622135.77447  21358414.567    21358423.156
       241.000         205.000
  21561205.394     4988631.03949   3885519.16247  21561205.638    21561214.578
       234.000         195.000
  23877213.299    -3324393.91149  -2574781.33145  23877213.239    23877222.514
       213.000         153.000
  23691365.317    -9209029.11649  -5891132.27245  23691364.460    23691377.102
       209.000         146.000
  20221330.373    -1740472.05549  -1343618.38448  20221330.045    20221337.898
       245.000         218.000
  24127306.920     2114745.72249   1652415.36345  24127306.223    24127318.025
       211.000         139.000
  24536610.750     8860777.29949   6893286.97145  24536614.455    24536623.892
       213.000         134.000
 99  4  3 17 41  0.0000000  0  8G26G 2G27G 9G 4G 7G15G13
  22514004.940     -836947.48849   -641357.99246  22514005.338    22514013.404
       230.000         183.000
  21362279.809      815943.59249    637960.62247  21362279.432    21362288.053
       241.000         205.000
  21576322.409     5068070.34349   3947419.81747  21576322.463    21576331.735
       232.000         195.000
  23858805.812    -3421126.04849  -2650156.96045  23858805.952    23858813.806
       214.000         153.000
  23671645.375    -9312658.91649  -5971882.57045  23671646.900    23671657.721
       209.000         150.000
  20222791.204    -1732795.66749  -1337636.79048  20222790.663    20222798.601
       244.000         218.000
  24137405.796     2167815.17449   1693768.04645  24137404.972    24137419.151
       210.000         143.000
  24556057.511     8962964.89649   6972913.42845  24556059.264    24556068.960
       208.000         138.000
 99  4  3 17 41 30.0000000  0  8G26G 2G27G 9G 4G 7G15G13
  22517987.312     -816020.76249   -625051.51346  22517987.961    22517995.825
       229.000         183.000
  21366174.288      836409.30649    653907.88547  21366174.095    21366182.773
       240.000         204.000
  21591515.835     5147912.80149   4009634.62247  21591515.795    21591525.881
       233.000         194.000
  23840416.241    -3517764.18449  -2725459.37745  23840416.863    23840424.945
       214.000         151.000
  23651934.815    -9416239.01849  -6052594.10645  23651936.145    23651947.613
       217.000         151.000
  20224334.851    -1724683.78849  -1331315.86148  20224334.265    20224342.244
       244.000         218.000
  24147601.697     2221394.81849   1735518.31345  24147601.453    24147613.414
       209.000         140.000
  24575486.716     9065065.98449   7052472.42645  24575487.404    24575498.283
       203.000         133.000
 99  4  3 17 42  0.0000000  0  8G26G 2G27G 9G 4G 7G15G13
  22522059.397     -794621.85149   -608377.09146  22522059.713    22522068.267
       230.000         183.000
  21370092.106      856997.41149    669950.51747  21370091.603    21370100.538
       240.000         205.000
  21606779.789     5228125.18949   4072137.67647  21606779.698    21606789.141
       233.000         193.000
  23822044.246    -3614310.01049  -2800689.85645  23822044.772    23822053.393
       216.000         153.000
  23632225.997    -9519812.78449  -6133300.72045  23632224.342    23632236.681
       211.000         153.000
  20225951.865    -1716186.43949  -1324694.56548  20225951.465    20225959.264
       244.000         218.000
  24157889.102     2275454.69249   1777642.78745  24157889.881    24157900.344
       211.000         144.000
  24594893.965     9167050.71449   7131940.76145  24594894.829    24594905.214
       211.000         134.000
 99  4  3 17 42 30.0000000  0  8G26G 2G27G 9G 4G 7G15G13
  22526225.855     -772727.57749   -591316.66946  22526225.898    22526234.539
       229.000         182.000
  21374039.491      877741.02449    686114.32547  21374039.540    21374047.735
       241.000         205.000
  21622119.857     5308737.37949   4134952.26847  21622120.168    21622129.036
       234.000         194.000
  23803696.805    -3710727.06149  -2875819.99045  23803697.353    23803705.680
       216.000         152.000
  23612523.616    -9623347.37949  -6213976.84245  23612523.450    23612533.953
       213.000         148.000
  20227645.715    -1707285.57149  -1317758.84448  20227645.562    20227653.229
       245.000         218.000
  24168272.130     2330017.52049   1820159.15245  24168272.173    24168284.991
       219.000         150.000
  24614283.942     9268944.07149   7211337.91745  24614285.435    24614294.607
       208.000         136.000
 99  4  3 17 43  0.0000000  0  8G26G 2G27G 9G 4G 7G15G13
  22530482.482     -750359.38949   -573886.96546  22530483.221    22530491.253
       230.000         182.000
  21378014.610      898629.67849    702391.15047  21378014.159    21378022.933
       241.000         205.000
  21637534.794     5389742.01549   4198072.66447  21637534.806    21637543.890
       234.000         194.000
  23785370.589    -3807032.20849  -2950862.91945  23785370.171    23785378.869
       217.000         153.000
  23592825.744    -9726858.84849  -6294634.98945  23592826.696    23592837.739
       217.000         150.000
  20229415.378    -1697986.50749  -1310512.83248  20229414.638    20229422.679
       245.000         218.000
  24178747.891     2385066.76349   1863054.54945  24178747.042    24178757.805
       216.000         151.000
  24633653.465     9370731.21049   7290652.28445  24633652.387    24633664.265
       202.000         135.000
 99  4  3 17 43 30.0000000  0  8G26G 2G27G 9G 4G 7G15G13
  22534828.343     -727521.86849   -556091.56046  22534828.773    22534837.134
       229.000         182.000
  21382016.399      919658.98549    718777.57847  21382016.028    21382024.474
       241.000         205.000
  21653025.955     5471147.57449   4261505.46247  21653025.472    21653034.680
       234.000         193.000
  23767065.580    -3903226.02449  -3025819.08945  23767065.383    23767073.422
       214.000         153.000
  23573128.097    -9830372.97249  -6375295.13245  23573127.543    23573137.556
       216.000         154.000
  20231262.285    -1688280.85449  -1302950.00648  20231261.659    20231269.468
       245.000         218.000
  24189316.627     2440605.21549   1906331.12845  24189317.394    24189326.831
       213.000         150.000
  24653004.214     9472422.95649   7369892.25945  24653006.659    24653016.761
       204.000         132.000
 99  4  3 17 44  0.0000000  0  8G26G 2G27G 9G 4G 7G15G13
  22539263.875     -704213.38649   -537929.15446  22539264.532    22539272.820
       228.000         183.000
  21386049.660      940853.48449    735292.72847  21386049.526    21386058.048
       242.000         205.000
  21668595.453     5552965.80849   4325259.82347  21668595.224    21668605.319
       233.000         193.000
  23748784.892    -3999292.27049  -3100675.87345  23748785.208    23748793.270
       214.000         154.000
  23553434.683    -9933860.15449  -6455934.32345  23553433.008    23553444.405
       211.000         148.000
  20233190.320    -1678148.78249  -1295054.90348  20233189.654    20233197.705
       245.000         218.000
  24199981.479     2496649.61749   1950001.97945  24199981.491    24199992.139
       216.000         150.000
  24672342.672     9574049.19449   7449081.24744  24672343.362    24672354.078
       200.000         131.000
 99  4  3 17 44 30.0000000  0  8G26G 2G27G 9G 4G 7G15G13
  22543787.226     -680443.08049   -519406.89146  22543787.381    22543795.648
       228.000         182.000
  21390113.566      962209.07549    751933.40347  21390113.213    21390121.830
       241.000         205.000
  21684239.654     5635176.33649   4389319.87347  21684239.713    21684249.242
       234.000         192.000
  23730522.700    -4095260.50849  -3175456.27845  23730522.841    23730531.083
       215.000         155.000
  23533744.997   -10037328.09649  -6536558.47945  23533744.648    23533755.848
       214.000         151.000
  20235200.496    -1667585.22449  -1286823.58048  20235200.182    20235207.862
       245.000         218.000
  24210741.498     2553192.11749   1994060.99745  24210741.492    24210752.880
       215.000         152.000
  24691668.923     9675610.04549   7528219.27244  24691667.175    24691679.646
       195.000         126.000
 99  4  3 17 45  0.0000000  0  8G26G 2G27G 9G 4G 7G15G13
  22548409.218     -656154.49049   -500480.77146  22548409.581    22548417.886
       229.000         182.000
  21394215.802      983766.20749    768731.11747  21394215.453    21394224.031
       242.000         205.000
  21699967.330     5717825.08649   4453721.38747  21699967.275    21699976.254
       233.000         193.000
  23712289.251    -4191077.99049  -3250119.21745  23712288.025    23712296.485
       215.000         151.000
  23514065.669   -10140744.14849  -6617142.34545  23514065.311    23514077.761
       212.000         150.000
  20237301.895    -1656542.57249  -1278218.93348  20237301.488    20237309.498
       245.000         218.000
  24221605.541     2610282.48249   2038546.86945  24221604.232    24221616.587
       212.000         153.000
  24710991.195     9777151.96549   7607342.49444  24710992.696    24711003.269
       199.000         125.000
 99  4  3 17 45 30.0000000  0  7G26G 2G27G 9G 4G 7G15
  22553125.505     -631370.14749   -481168.35946  22553125.556    22553134.338
       229.000         182.000
  21398345.729     1005468.63749    785642.05847  21398345.154    21398354.005
       241.000         205.000
  21715768.108     5800858.12149   4518422.33847  21715768.586    21715777.382
       233.000         192.000
  23694078.652    -4286775.71449  -3324688.83145  23694079.050    23694085.832
       215.000         154.000
  23494389.682   -10244139.33149  -6697709.80745  23494389.812    23494401.786
       215.000         154.000
  20239483.393    -1645079.13949  -1269286.40548  20239483.017    20239490.745
       245.000         218.000
  24232565.884     2667879.62149   2083427.64645  24232565.994    24232576.857
       214.000         153.000
 99  4  3 17 46  0.0000000  0  7G26G 2G27G 9G 4G 7G15
  22557941.308     -606063.00549   -461448.56146  22557941.302    22557950.494
       228.000         181.000
  21402506.251     1027331.93149    802678.34447  21402506.063    21402514.422
       242.000         205.000
  21731641.242     5884271.43849   4583419.62247  21731641.548    21731650.318
       234.000         192.000
  23675893.123    -4382340.83449  -3399155.14745  23675892.441    23675901.129
       217.000         157.000
  23474725.509   -10347475.04149  -6778230.96645  23474725.436    23474737.520
       219.000         154.000
  20241745.894    -1633189.85049  -1260022.03748  20241745.551    20241753.188
       245.000         218.000
  24243624.514     2725993.05049   2128710.72645  24243624.678    24243636.822
       213.000         153.000
 99  4  3 17 46 30.0000000  0  7G26G 2G27G 9G 4G 7G15
  22562855.116     -580241.35349   -441327.84446  22562855.650    22562864.184
       230.000         182.000
  21406693.991     1049338.55749    819826.32147  21406693.804    21406701.908
       241.000         204.000
  21747583.134     5968045.58349   4648698.06947  21747583.131    21747591.916
       233.000         192.000
  23657729.033    -4477793.37949  -3473533.70545  23657728.315    23657737.094
       218.000         156.000
  23455070.111   -10450765.68849  -6858717.04745  23455070.083    23455079.873
       215.000         155.000
  20244085.366    -1620895.91449  -1250442.36448  20244084.832    20244092.695
       245.000         218.000
  24254777.299     2784600.84149   2174379.06145  24254775.788    24254789.141
       208.000         150.000
 99  4  3 17 47  0.0000000  0  7G26G 2G27G 9G 4G 7G15
  22567878.065     -553846.26149   -420760.29646  22567878.373    22567886.906
       230.000         182.000
  21410919.225     1071541.93949    837127.61247  21410918.959    21410927.383
       242.000         205.000
  21763604.054     6052236.24349   4714301.08047  21763603.980    21763613.299
       231.000         191.000
  23639598.795    -4573067.97649  -3547773.61445  23639598.606    23639607.202
       219.000         157.000
  23435436.453   -10553941.07349  -6939113.39045  23435437.124    23435447.743
       214.000         156.000
  20246510.914    -1608149.79449  -1240510.34248  20246510.482    20246518.407
       245.000         218.000
  24266033.717     2843754.43949   2220472.63845  24266032.725    24266046.004
       207.000         149.000
 99  4  3 17 47 30.0000000  0  7G26G 2G27G 9G 4G 7G15
  22572986.666     -527000.67749   -399841.71346  22572986.836    22572995.339
       229.000         181.000
  21415163.979     1093847.90749    854508.83947  21415163.481    21415172.168
       241.000         205.000
  21779682.745     6136729.99049   4780140.25147  21779682.540    21779692.234
       232.000         191.000
  23621480.371    -4668281.00249  -3621965.55345  23621480.619    23621488.662
       220.000         159.000
  23415808.605   -10657083.47849  -7019483.90845  23415809.233    23415819.814
       222.000         156.000
  20249002.790    -1595055.10849  -1230306.70948  20249002.327    20249010.201
       245.000         218.000
  24277373.075     2903342.14749   2266904.52045  24277373.964    24277384.301
       211.000         151.000
 99  4  3 17 48  0.0000000  0  7G26G 2G27G 9G 4G 7G15
  22578186.479     -499675.95549   -378549.77246  22578187.036    22578195.108
       229.000         182.000
  21419440.988     1116323.50549    872022.24247  21419440.230    21419448.975
       240.000         204.000
  21795832.001     6221594.14749   4846268.06047  21795831.850    21795841.332
       232.000         190.000
  23603385.913    -4763368.14249  -3696059.41545  23603385.176    23603394.563
       220.000         160.000
  23396197.995   -10760137.65949  -7099785.71945  23396197.889    23396209.737
       217.000         158.000
  20251573.742    -1581544.87149  -1219779.26548  20251573.198    20251580.945
       245.000         218.000
  24288805.108     2963416.81749   2313715.85645  24288804.990    24288817.206
       209.000         152.000
 99  4  3 17 48 30.0000000  0  7G26G 2G27G 9G 4G 7G15
  22583478.463     -471866.73549   -356880.30646  22583478.133    22583486.861
       228.000         182.000
  21423751.326     1138974.58649    889672.39047  21423750.796    21423759.593
       241.000         204.000
  21812056.797     6306855.33149   4912705.22947  21812057.097    21812066.163
       232.000         189.000
  23585322.262    -4858292.35149  -3770026.27945  23585322.741    23585330.134
       221.000         159.000
  23376605.957   -10863093.92549  -7180011.36445  23376606.062    23376616.383
       217.000         158.000
  20254228.668    -1567593.36649  -1208907.97848  20254228.160    20254236.192
       245.000         218.000
  24300332.874     3023994.51049   2360919.12545  24300331.501    24300342.879
       205.000         148.000
 99  4  3 17 49  0.0000000  0  6G26G 2G27G 9G 4G 7
  22588854.862     -443613.51249   -334864.86646  22588855.181    22588863.322
       229.000         181.000
  21428090.222     1161775.47349    907439.26847  21428089.602    21428098.306
       241.000         204.000
  21828353.732     6392495.65849   4979437.83447  21828353.515    21828362.978
       232.000         189.000
  23567288.878    -4953058.86149  -3843870.30245  23567289.565    23567298.013
       222.000         160.000
  23357029.130   -10965969.67849  -7260174.14945  23357028.656    23357040.815
       216.000         157.000
  20256965.175    -1553213.09249  -1197702.58648  20256964.545    20256972.514
       245.000         218.000
 99  4  3 17 49 30.0000000  0  6G26G 2G27G 9G 4G 7
  22594318.814     -414900.72049   -312491.32346  22594318.958    22594327.225
       229.000         181.000
  21432462.576     1184751.98749    925343.00147  21432462.345    21432470.699
       241.000         204.000
  21844728.794     6478547.58549   5046491.17247  21844728.269    21844738.013
       229.000         188.000
  23549293.535    -5047625.10849  -3917558.27446  23549292.844    23549302.370
       221.000         164.000
  23337472.970   -11068735.87649  -7340251.62245  23337473.583    23337484.259
       217.000         158.000
  20259789.382    -1538372.02249  -1186138.13448  20259788.740    20259796.723
       245.000         218.000
 99  4  3 17 50  0.0000000  0  6G26G 2G27G 9G 4G 7
  22599868.759     -385735.78949   -289765.46946  22599869.106    22599877.213
       229.000         182.000
  21436864.453     1207883.53049    943367.53547  21436864.228    21436872.556
       241.000         203.000
  21861179.905     6564998.73749   5113855.57247  21861180.010    21861189.760
       230.000         188.000
  23531335.041    -5141997.63849  -3991095.24745  23531333.837    23531343.419
       220.000         162.000
  23317933.304   -11171420.16249  -7420265.28245  23317931.642    23317943.320
       207.000         161.000
  20262696.916    -1523092.80549  -1174232.26448  20262696.367    20262704.064
       245.000         218.000
 99  4  3 17 50 30.0000000  0  6G26G 2G27G 9G 4G 7
  22605507.031     -356106.62049   -266677.85446  22605507.093    22605515.872
       230.000         182.000
  21441296.482     1231173.79849    961515.75047  21441295.940    21441304.624
       240.000         204.000
  21877704.884     6651837.51049   5181522.03647  21877705.530    21877714.831
       231.000         188.000
  23513411.581    -5236186.11249  -4064488.87946  23513411.404    23513420.141
       223.000         163.000
  23298411.753   -11274006.36849  -7500202.56845  23298413.114    23298423.200
       219.000         160.000
  20265686.254    -1507383.81149  -1161991.50648  20265685.628    20265693.696
       245.000         218.000
 99  4  3 17 51  0.0000000  0  6G26G 2G27G 9G 4G 7
  22611236.481     -325998.50849   -243217.04146  22611236.217    22611244.604
       228.000         181.000
  21445761.082     1254635.42749    979797.49347  21445760.599    21445769.405
       240.000         203.000
  21894303.381     6739062.67749   5249489.57847  21894303.629    21894312.928
       230.000         188.000
  23495521.864    -5330197.42149  -4137744.41146  23495520.959    23495530.204
       218.000         163.000
  23278911.893   -11376477.81849  -7580050.29145  23278914.493    23278922.150
       223.000         160.000
  20268756.251    -1491251.03349  -1149420.51948  20268755.712    20268763.437
       244.000         218.000
 99  4  3 17 51 30.0000000  0  6G26G 2G27G 9G 4G 7
  22617049.556     -295451.09749   -219413.92946  22617049.642    22617058.388
       229.000         181.000
  21450247.914     1278213.20349    998169.73547  21450247.742    21450255.861
       241.000         204.000
  21910962.257     6826604.04249   5317703.50646  21910962.316    21910971.684
       232.000         187.000
  23477652.623    -5424100.69149  -4210915.75345  23477652.909    23477661.091
       223.000         162.000
  23259421.171   -11478901.33249  -7659860.75545  23259420.158    23259433.324
       215.000         159.000
  20271892.878    -1474768.02549  -1136576.62848  20271892.201    20271900.258
       245.000         218.000
 99  4  3 17 52  0.0000000  0  6G26G 2G27G 9G 4G 7
  22622956.191     -264411.49149   -195227.27746  22622956.873    22622965.294
       229.000         182.000
  21454766.229     1301956.50249   1016670.96747  21454765.465    21454774.232
       241.000         203.000
  21927691.524     6914516.18449   5386206.35546  21927691.095    21927700.363
       231.000         186.000
  23459812.448    -5517851.13849  -4283968.04845  23459812.320    23459822.132
       216.000         162.000
  23239952.147   -11581211.56649  -7739583.03345  23239949.268    23239960.410
       207.000         160.000
  20275104.037    -1457893.10449  -1123427.35648  20275103.488    20275111.287
       245.000         218.000
 99  4  3 17 52 30.0000000  0  6G26G 2G27G 9G 4G 7
  22628954.065     -232892.49949   -170667.08046  22628954.641    22628963.307
       229.000         182.000
  21459314.750     1325859.54849   1035296.67447  21459313.916    21459322.746
       240.000         203.000
  21944488.827     7002786.98549   5454988.68446  21944488.856    21944498.229
       231.000         186.000
  23442000.361    -5611453.18049  -4356904.65846  23442000.271    23442008.647
       220.000         163.000
  23220503.841   -11683410.76949  -7819218.70746  23220505.359    23220516.755
       218.000         163.000
  20278388.181    -1440634.86649  -1109979.39148  20278387.534    20278395.399
       245.000         218.000
 99  4  3 17 53  0.0000000  0  6G26G 2G27G 9G 4G 7
  22635042.994     -200895.21349   -145734.18846  22635043.336    22635052.283
       229.000         181.000
  21463893.184     1349919.68849   1054044.77247  21463892.886    21463901.392
       241.000         202.000
  21961355.106     7091419.94249   5524053.20446  21961355.030    21961365.056
       229.000         184.000
  23424218.323    -5704899.23349  -4429719.74145  23424217.152    23424226.082
       216.000         162.000
  23201073.260   -11785518.40249  -7898783.07245  23201074.970    23201084.354
       220.000         158.000
  20281744.282    -1422998.55449  -1096236.82248  20281743.681    20281751.727
       245.000         217.000
 99  4  3 17 53 30.0000000  0  6G26G 2G27G 9G 4G 7
  22641214.673     -168462.92849   -120462.33746  22641214.593    22641223.524
       229.000         180.000
  21468499.538     1374125.82249   1072906.65047  21468499.047    21468507.688
       242.000         202.000
  21978287.512     7180400.46349   5593388.55146  21978286.709    21978297.337
       229.000         183.000
  23406462.763    -5798204.69749  -4502425.26645  23406463.562    23406471.117
       217.000         160.000
  23181655.869   -11887558.44949  -7978294.67845  23181654.954    23181667.972
       216.000         161.000
  20285166.162    -1405016.58649  -1082224.91048  20285165.392    20285173.314
       245.000         217.000
 99  4  3 17 54  0.0000000  0  6G26G 2G27G 9G 4G 7
  22647457.152     -135658.55949    -94900.56246  22647457.531    22647466.224
       228.000         181.000
  21473124.204     1398428.60249   1091843.82947  21473123.706    21473132.451
       240.000         203.000
  21995280.053     7269695.99249   5662969.36446  21995280.114    21995289.858
       228.000         184.000
  23388726.565    -5891407.95249  -4575051.13645  23388727.421    23388734.575
       218.000         160.000
  23162245.916   -11989560.39049  -8057776.75245  23162246.420    23162256.751
       219.000         160.000
  20288644.959    -1386735.43049  -1067979.87448  20288644.334    20288652.484
       244.000         217.000
 99  4  3 17 54 30.0000000  0  6G26G 2G27G 9G 4G 7
  22653779.358     -102436.04649    -69012.96146  22653780.034    22653787.833
       230.000         182.000
  21477776.863     1422878.79049   1110895.86447  21477776.095    21477785.214
       240.000         203.000
  22012339.256     7359343.07749   5732824.12946  22012339.445    22012348.889
       229.000         184.000
  23371020.047    -5984456.42549  -4647556.43545  23371020.059    23371029.046
       219.000         161.000
  23142849.483   -12091490.06249  -8137202.37545  23142849.519    23142859.050
       218.000         162.000
  20292190.694    -1368102.33649  -1053460.60248  20292189.889    20292197.948
       245.000         217.000
 99  4  3 17 55  0.0000000  0  6G26G 2G27G 9G 4G 7
  22660168.965      -68858.72349    -42848.85846  22660169.571    22660177.115
       229.000         180.000
  21482443.648     1447402.59149   1130005.26847  21482443.144    21482451.884
       240.000         203.000
  22029452.070     7449270.29549   5802897.14346  22029452.497    22029461.398
       229.000         184.000
  23353328.826    -6077424.64649  -4719999.17545  23353328.347    23353337.232
       219.000         162.000
  23123455.986   -12193402.44349  -8216614.58945  23123456.484    23123468.638
       219.000         162.000
  20295790.808    -1349183.29449  -1038718.50848  20295790.217    20295798.204
       244.000         217.000
 99  4  3 17 55 30.0000000  0  6G26G 2G27G 9G 4G 7
  22666650.970      -34795.87549    -16306.45946  22666650.904    22666659.083
       227.000         179.000
  21487148.724     1472127.76349   1149271.57647  21487148.207    21487156.943
       240.000         203.000
  22046644.704     7539617.14649   5873297.15746  22046644.336    22046653.950
       228.000         183.000
  23335679.450    -6170173.24049  -4792270.75646  23335679.415    23335687.361
       218.000         163.000
  23104095.799   -12295141.82349  -8295891.95445  23104095.977    23104105.294
       220.000         161.000
  20299474.225    -1329826.86449  -1023635.60148  20299473.497    20299481.451
       244.000         217.000
 99  4  3 17 56  0.0000000  0  6G26G 2G27G 9G 4G 7
  22673213.898        -306.79649     10568.08146  22673213.751    22673222.451
       227.000         179.000
  21491876.904     1496974.16649   1168632.34547  21491876.384    21491885.010
       240.000         203.000
  22063901.332     7630301.64749   5943960.29346  22063901.529    22063910.400
       229.000         183.000
  23318060.204    -6262763.30949  -4864418.83546  23318059.923    23318068.880
       219.000         165.000
  23084755.913   -12396774.70049  -8375086.36845  23084755.466    23084766.134
       217.000         162.000
  20303230.532    -1310087.15649  -1008254.04048  20303229.926    20303237.920
       244.000         217.000
 99  4  3 17 56 30.0000000  0  6G26G 2G27G 9G 4G 7
  22679869.005       34666.37549     37819.84046  22679868.873    22679878.276
       227.000         180.000
  21496638.485     1521996.13949   1188129.92447  21496638.077    21496646.556
       241.000         202.000
  22081228.204     7721354.88649   6014910.74346  22081228.334    22081238.115
       229.000         183.000
  23300482.096    -6355137.15549  -4936398.45746  23300481.922    23300490.244
       220.000         164.000
  23065443.737   -12498259.27349  -8454165.18545  23065443.706    23065452.075
       220.000         161.000
  20307069.521    -1289913.18549   -992534.09048  20307068.829    20307077.060
       245.000         217.000
 99  4  3 17 57  0.0000000  0  6G26G 2G27G 9G 4G 7
  22686611.970       70100.39149     65430.69246  22686612.345    22686621.114
       229.000         179.000
  21501430.451     1547177.75549   1207751.89547  21501430.050    21501438.834
       241.000         203.000
  22098621.604     7812756.85649   6086132.92846  22098621.902    22098630.855
       229.000         183.000
  23282939.919    -6447321.26049  -5008230.19246  23282940.466    23282948.771
       221.000         164.000
  23046155.276   -12599620.40049  -8533147.83046  23046154.729    23046166.138
       218.000         163.000
  20310987.143    -1269326.01049   -976492.16548  20310986.487    20310994.668
       244.000         217.000
 99  4  3 17 57 30.0000000  0  6G26G 2G27G 9G 4G 7
  22693445.350      106009.24649     93411.54446  22693445.934    22693454.183
       228.000         179.000
  21506258.303     1572547.97849   1227520.84347  21506257.967    21506266.753
       242.000         203.000
  22116086.539     7904535.35149   6157648.50346  22116086.462    22116096.700
       229.000         182.000
  23265441.483    -6539276.26649  -5079883.42446  23265440.441    23265448.909
       218.000         164.000
  23026895.740   -12700829.77549  -8612012.25346  23026895.762    23026907.498
       222.000         164.000
  20314986.793    -1248307.79449   -960114.36648  20314986.318    20314994.391
       244.000         217.000
 99  4  3 17 58  0.0000000  0  6G26G 2G27G 9G 4G 7
  22700364.545      142369.47349    121744.11346  22700365.024    22700373.390
       228.000         179.000
  21511118.432     1598087.56649   1247421.75847  21511117.993    21511126.945
       241.000         203.000
  22133615.429     7996648.86849   6229425.13446  22133615.357    22133625.607
       230.000         184.000
  23247979.107    -6631040.15049  -5151387.73346  23247979.928    23247986.728
       221.000         163.000
  23007658.985   -12801918.75649  -8690782.79146  23007659.159    23007669.942
       222.000         165.000
  20319061.365    -1226896.08449   -943429.94348  20319060.857    20319068.824
       245.000         217.000
 99  4  3 17 58 30.0000000  0  6G26G 2G27G 9G 4G 7
  22707367.488      179169.64249    150419.50146  22707367.816    22707376.121
       229.000         180.000
  21516012.128     1623803.72949   1267460.26347  21516011.595    21516020.434
       240.000         203.000
  22151206.630     8089090.41649   6301457.36946  22151206.159    22151216.645
       228.000         183.000
  23230549.224    -6722634.31449  -5222759.77246  23230549.006    23230557.067
       222.000         164.000
  22988444.860   -12902888.77949  -8769460.67946  22988445.131    22988456.861
       221.000         164.000
  20323209.921    -1205095.44449   -926442.46548  20323209.445    20323217.379
       244.000         217.000
 99  4  3 17 59  0.0000000  0  6G26G 2G27G 9G 4G 7
  22714462.104      216452.06449    179470.67546  22714462.525    22714470.775
       228.000         179.000
  21520949.080     1649747.50649   1287676.12447  21520948.907    21520957.134
       240.000         203.000
  22168870.430     8181914.45149   6373787.62046  22168871.040    22168880.861
       228.000         183.000
  23213157.805    -6814026.92449  -5293974.80346  23213157.356    23213165.657
       220.000         165.000
  22969267.584   -13003667.44149  -8847989.43546  22969267.587    22969276.685
       221.000         165.000
  20327442.409    -1182853.61849   -909111.20748  20327441.885    20327449.881
       244.000         217.000
 99  4  3 17 59 30.0000000  0  6G26G 2G27G 9G 4G 7
  22721639.755      254170.95249    208861.94146  22721640.246    22721648.845
       228.000         180.000
  21525922.056     1675880.51649   1308039.45347  21525921.655    21525930.468
       242.000         203.000
  22186599.306     8275080.04049   6446384.06746  22186599.447    22186609.666
       229.000         182.000
  23195798.262    -6905250.96349  -5365058.42946  23195797.783    23195807.383
       220.000         165.000
  22950124.620   -13104264.95949  -8926377.04446  22950122.331    22950135.213
       218.000         166.000
  20331752.566    -1160203.70749   -891461.95548  20331752.061    20331760.179
       244.000         217.000
 99  4  3 18  0  0.0000000  0  6G26G 2G27G 9G 4G 7
  22728910.636      292379.38549    238634.67746  22728910.872    22728919.377
       229.000         180.000
  21530945.443     1702278.35649   1328609.13947  21530945.247    21530953.767
       241.000         203.000
  22204403.630     8368641.89049   6519289.26946  22204403.701    22204413.916
       228.000         182.000
  23178482.195    -6996247.61449  -5435964.92646  23178482.910    23178489.478
       222.000         166.000
  22931023.814   -13204639.36149  -9004590.81746  22931022.913    22931033.434
       218.000         166.000
  20336152.108    -1137083.70549   -873446.39648  20336151.245    20336159.553
       244.000         216.000
 99  4  3 18  0 30.0000000  0  6G26G 2G27G 9G 4G 7
  22736262.688      331014.05949    268739.55546  22736263.133    22736271.396
       228.000         180.000
  21536008.892     1728886.66749   1349342.82347  21536008.801    21536017.527
       241.000         203.000
  22222274.929     8462555.20449   6592468.31746  22222275.409    22222284.648
       229.000         182.000
  23161200.762    -7087062.30949  -5506729.61946  23161200.355    23161208.306
       222.000         166.000
  22911955.480   -13304842.49149  -9082671.11746  22911956.353    22911965.443
       223.000         167.000
  20340627.588    -1113564.42349   -855119.71548  20340626.907    20340635.146
       243.000         216.000
 99  4  3 18  1  0.0000000  0  6G26G 2G27G 9G 4G 7
  22743692.722      370059.28449    299164.34246  22743692.859    22743701.842
       226.000         179.000
  21541106.856     1755676.20549   1370217.72747  21541106.502    21541115.161
       240.000         203.000
  22240211.495     8556811.82349   6665914.88946  22240211.122    22240221.924
       226.000         182.000
  23143954.010    -7177695.17449  -5577352.59046  23143954.614    23143962.100
       223.000         168.000
  22892918.395   -13404883.33049  -9160624.94446  22892917.673    22892930.030
       220.000         166.000
  20345173.429    -1089676.01549   -836505.39548  20345173.230    20345181.469
       244.000         216.000
 99  4  3 18  1 30.0000000  0  6G26G 2G27G 9G 4G 7
  22751199.579      409507.90749    329903.45546  22751199.722    22751208.453
       227.000         179.000
  21546238.088     1782640.68149   1391228.95647  21546237.840    21546246.190
       240.000         202.000
  22258212.481     8651408.08649   6739626.12746  22258212.880    22258222.836
       228.000         181.000
  23126745.055    -7268128.58449  -5647820.17046  23126744.518    23126752.645
       219.000         167.000
  22873904.943   -13504798.36149  -9238480.72146  22873904.925    22873914.546
       220.000         166.000
  20349786.489    -1065434.41349   -817615.85748  20349785.657    20349793.999
       243.000         216.000
 99  4  3 18  2  0.0000000  0  6G26G 2G27G 9G 4G 7
  22758784.707      449368.03649    360963.22946  22758784.651    22758793.615
       227.000         178.000
  21551400.079     1809766.93849   1412366.24347  21551399.277    21551408.475
       240.000         202.000
  22276278.373     8746343.39449   6813601.53346  22276279.093    22276289.098
       227.000         181.000
  23109574.347    -7358360.85149  -5718130.99346  23109574.175    23109583.052
       219.000         168.000
  22854910.720   -13604612.65249  -9316258.00546  22854911.544    22854920.781
       221.000         167.000
  20354462.273    -1040862.90849   -798469.25048  20354461.999    20354470.131
       244.000         216.000
 99  4  3 18  2 30.0000000  0  6G26G 2G27G 9G 4G 7
  22766448.366      489640.53049    392344.32146  22766449.145    22766458.049
       228.000         178.000
  21556585.743     1837017.81249   1433600.64147  21556585.087    21556593.783
       241.000         202.000
  22294405.163     8841599.65849   6887827.03546  22294404.905    22294415.294
       228.000         180.000
  23092439.079    -7448407.47949  -5788297.16446  23092439.357    23092448.466
       224.000         167.000
  22835937.384   -13704317.84449  -9393950.29746  22835937.649    22835948.571
       223.000         168.000
  20359198.502    -1015973.77549   -779075.13948  20359197.971    20359206.272
       243.000         216.000
 99  4  3 18  3  0.0000000  0  6G26G 2G27G 9G 4G 7
  22774185.267      530297.82749    424025.26046  22774185.889    22774194.143
       228.000         178.000
  21561791.067     1864371.86749   1454915.42747  21561790.953    21561799.303
       239.000         202.000
  22312585.366     8937137.16849   6962271.69346  22312585.938    22312595.364
       225.000         180.000
  23075336.156    -7538284.09049  -5858330.84946  23075335.598    23075345.469
       221.000         167.000
  22816980.173   -13803938.01649  -9471576.31446  22816982.102    22816991.141
       224.000         168.000
  20363993.258     -990777.09149   -759441.37648  20363992.821    20364000.995
       244.000         216.000
 99  4  3 18  3 30.0000000  0  6G26G 2G27G 9G 4G 7
  22782010.155      571417.57849    456066.56746  22782010.382    22782019.387
       227.000         178.000
  21567032.495     1891915.67349   1476378.08547  21567032.074    21567040.600
       240.000         201.000
  22330832.729     9033027.50349   7036991.27946  22330832.896    22330843.546
       227.000         179.000
  23058281.141    -7627908.50349  -5928168.04846  23058280.375    23058289.708
       220.000         169.000
  22798054.064   -13903395.33749  -9549075.45646  22798054.825    22798066.019
       222.000         169.000
  20368862.155     -965190.99149   -739504.17248  20368861.631    20368869.779
       244.000         216.000
 99  4  3 18  4  0.0000000  0  6G26G 2G27G 9G 4G 7
  22789914.091      612952.56649    488431.41146  22789914.620    22789923.334
       227.000         178.000
  21572302.199     1919607.52649   1497956.10647  21572301.586    21572310.194
       239.000         201.000
  22349136.734     9129214.18149   7111941.78046  22349137.444    22349146.284
       227.000         179.000
  23041265.355    -7717326.37049  -5997844.26246  23041265.324    23041274.172
       221.000         170.000
  22779158.678   -14002690.62349  -9626448.32846  22779159.596    22779170.224
       221.000         168.000
  20373798.453     -939250.74349   -719291.00848  20373798.043    20373806.175
       244.000         216.000
 99  4  3 18  4 30.0000000  0  6G26G 2G27G 9G 4G 7
  22797894.088      654887.59549    521107.99146  22797894.676    22797902.976
       227.000         178.000
  21577602.353     1947460.38549   1519659.57447  21577601.437    21577610.678
       238.000         201.000
  22367495.395     9225689.41749   7187117.11846  22367495.505    22367505.857
       225.000         178.000
  23024289.973    -7806532.85649  -6067355.77846  23024290.535    23024297.974
       224.000         171.000
  22760299.336   -14101797.18749  -9703674.16146  22760299.712    22760310.653
       222.000         169.000
  20378804.826     -912942.16849   -698790.83848  20378804.187    20378812.574
       244.000         216.000
 99  4  3 18  5  0.0000000  0  6G26G 2G27G 9G 4G 7
  22805950.785      697225.72649    554098.67746  22805951.508    22805959.787
       226.000         178.000
  21582938.044     1975499.99449   1541508.58047  21582937.593    21582946.643
       239.000         201.000
  22385911.666     9322466.90149   7262527.98546  22385910.916    22385921.484
       224.000         177.000
  23007359.404    -7895503.74249  -6136683.74246  23007359.007    23007368.117
       223.000         172.000
  22741479.963   -14200693.81149  -9780736.38846  22741480.810    22741491.188
       222.000         170.000
  20383883.682     -886252.71549   -677993.88148  20383883.271    20383891.289
       244.000         216.000
 99  4  3 18  5 30.0000000  0  6G26G 2G27G 9G 4G 7
  22814087.602      739984.74549    587417.32146  22814088.175    22814096.438
       226.000         178.000
  21588309.737     2003728.05949   1563504.43147  21588308.975    21588318.379
       240.000         201.000
  22404388.310     9419562.60349   7338186.80746  22404388.565    22404398.870
       223.000         177.000
  22990474.327    -7984235.40449  -6205825.27246  22990473.257    22990482.856
       224.000         173.000
  22722704.389   -14299361.37949  -9857620.13546  22722704.179    22722714.526
       223.000         170.000
  20389034.893     -859183.24849   -656900.80748  20389034.335    20389042.452
       244.000         216.000
 99  4  3 18  6  0.0000000  0  6G26G 2G27G 9G 4G 7
  22822297.610      783128.51249    621035.75746  22822298.142    22822307.103
       226.000         177.000
  21593709.808     2032104.85249   1585616.16347  21593709.586    21593718.273
       240.000         201.000
  22422918.171     9516937.06649   7414062.83646  22422918.107    22422928.724
       223.000         176.000
  22973628.932    -8072758.39949  -6274804.21546  22973628.008    22973637.010
       223.000         174.000
  22703966.269   -14397830.03349  -9934348.88146  22703965.981    22703975.750
       222.000         171.000
  20394250.706     -831773.96449   -635542.94648  20394250.244    20394258.489
       244.000         216.000
 99  4  3 18  6 30.0000000  0  6G26G 2G27G 9G 4G 7
  22830583.267      826670.01349    654964.12046  22830583.386    22830592.141
       226.000         177.000
  21599137.802     2060628.84549   1607842.60347  21599137.508    21599146.349
       240.000         201.000
  22441504.476     9614607.50149   7490169.50346  22441504.580    22441514.670
       224.000         176.000
  22956823.890    -8161069.51949  -6343618.05846  22956824.221    22956832.790
       224.000         174.000
  22685262.191   -14496120.18849 -10010938.53746  22685262.500    22685272.970
       224.000         171.000
  20399528.209     -804040.85249   -613932.75748  20399527.881    20399535.961
       244.000         217.000
 99  4  3 18  7  0.0000000  0  6G26G 2G27G 9G 4G 7
  22838946.145      870616.93649    689208.39746  22838946.786    22838955.322
       226.000         177.000
  21604593.935     2089301.13649   1630184.59147  21604593.611    21604602.762
       239.000         201.000
  22460150.667     9712593.23049   7566521.85146  22460151.731    22460161.155
       226.000         175.000
  22940059.627    -8249166.13449  -6412264.75946  22940059.827    22940067.319
       223.000         173.000
  22666590.028   -14594242.85749 -10087397.70546  22666591.305    22666600.534
       227.000         172.000
  20404865.235     -775994.96649   -592078.84448  20404864.816    20404873.014
       244.000         216.000
 99  4  3 18  7 30.0000000  0  6G26G 2G27G 9G 4G 7
  22847381.221      914943.03149    723748.12346  22847380.937    22847390.837
       226.000         177.000
  21610073.910     2118098.33949   1652623.91047  21610073.937    21610082.497
       240.000         201.000
  22478852.509     9810871.11349   7643101.84146  22478852.604    22478862.871
       225.000         175.000
  22923332.066    -8337070.63649  -6480761.77546  22923332.637    22923340.492
       225.000         173.000
  22647944.319   -14692227.04649 -10163748.94546  22647944.604    22647953.981
       225.000         172.000
  20410257.065     -747661.08449   -570000.53148  20410256.493    20410264.896
       244.000         216.000
 99  4  3 18  8  0.0000000  0  6G26G 2G27G 9G 4G 7
  22855888.016      959646.14449    758581.64346  22855888.598    22855897.425
       226.000         176.000
  21615580.613     2147035.70949   1675172.46747  21615580.585    21615589.025
       240.000         201.000
  22497610.715     9909444.86449   7719912.38146  22497610.828    22497620.829
       224.000         175.000
  22906643.507    -8424769.54949  -6549098.58846  22906643.221    22906651.196
       227.000         174.000
  22629326.547   -14790062.46749 -10239984.27546  22629326.473    22629337.982
       222.000         172.000
  20415707.940     -719016.48449   -547680.09848  20415707.380    20415715.605
       244.000         216.000
 99  4  3 18  8 30.0000000  0  6G26G 2G27G 9G 4G 7
  22864468.478     1004736.30849    793716.73046  22864468.868    22864477.828
       224.000         177.000
  21621117.425     2176131.71549   1697844.62947  21621117.062    21621125.824
       239.000         200.000
  22516427.736    10008328.22549   7796964.18046  22516428.171    22516438.971
       223.000         174.000
  22889995.067    -8512257.33149  -6617270.87346  22889995.476    22890003.414
       224.000         176.000
  22610738.832   -14887740.33349 -10316096.81346  22610739.221    22610749.795
       225.000         173.000
  20421222.629     -690037.00449   -525098.73148  20421222.212    20421230.542
       245.000         216.000
 99  4  3 18  9  0.0000000  0  6G26G 2G27G 9G 4G 7
  22873125.340     1050228.29449    829164.93246  22873126.184    22873134.964
       226.000         177.000
  21626691.136     2205421.62349   1720667.87147  21626690.893    21626699.618
       238.000         200.000
  22535306.412    10107536.14449   7874268.86746  22535306.612    22535317.987
       223.000         174.000
  22873394.195    -8599495.63649  -6685248.77146  22873393.389    22873402.787
       223.000         173.000
  22592189.344   -14985218.87449 -10392054.06246  22592189.772    22592201.043
       225.000         173.000
  20426811.649     -660666.85949   -502212.94248  20426811.273    20426819.358
       245.000         216.000
 99  4  3 18  9 30.0000000  0  6G26G 2G27G 9G 4G 7
  22881862.513     1096141.86349    864941.65646  22881863.006    22881872.330
       227.000         176.000
  21632305.396     2234924.77249   1743657.27647  21632305.257    21632313.979
       238.000         200.000
  22554245.222    10207059.31249   7951819.20846  22554244.831    22554255.694
       223.000         174.000
  22856846.448    -8686454.01949  -6753008.54946  22856845.895    22856854.875
       225.000         173.000
  22573683.183   -15082469.46349 -10467833.66846  22573683.854    22573693.799
       226.000         173.000
  20432480.659     -630876.17849   -478999.47048  20432480.138    20432488.533
       244.000         217.000
 99  4  3 18 10  0.0000000  0  6G26G 2G27G 9G 4G 7
  22890681.347     1142484.58249    901052.78346  22890681.791    22890691.068
       227.000         176.000
  21637963.371     2264657.20349   1766825.34447  21637963.030    21637972.168
       239.000         200.000
  22573246.806    10306912.36549   8029626.58146  22573246.726    22573257.220
       223.000         174.000
  22840354.554    -8773119.94649  -6820540.42146  22840353.832    22840362.589
       225.000         174.000
  22555224.170   -15179472.24049 -10543420.16946  22555225.242    22555234.938
       226.000         173.000
  20438231.447     -600655.92149   -455451.26348  20438230.967    20438239.067
       245.000         216.000
 99  4  3 18 10 30.0000000  0  6G26G 2G27G 9G 4G 7
  22899578.747     1189240.19749    937485.63146  22899578.642    22899588.744
       224.000         176.000
  21643663.315     2294610.64349   1790165.62247  21643662.804    21643672.337
       238.000         200.000
  22592308.149    10407079.61649   8107678.81446  22592308.670    22592319.483
       224.000         173.000
  22823915.777    -8859506.52949  -6887854.64146  22823915.672    22823923.814
       226.000         175.000
  22536811.723   -15276231.47449 -10618816.87846  22536810.701    22536822.559
       225.000         174.000
  20444057.210     -570041.38449   -431595.82248  20444056.744    20444064.988
       245.000         217.000
 99  4  3 18 11  0.0000000  0  6G26G 2G27G 9G 4G 7
  22908551.194     1236390.59349    974226.11846  22908552.239    22908560.877
       226.000         176.000
  21649402.972     2324772.37349   1813668.20147  21649402.540    21649411.777
       238.000         200.000
  22611424.531    10507536.03149   8185956.34846  22611425.266    22611435.667
       223.000         173.000
  22807527.658    -8945626.85449  -6954961.36846  22807527.547    22807535.926
       224.000         175.000
  22518446.295   -15372741.86749 -10694019.70046  22518446.164    22518455.978
       227.000         174.000
  20449952.324     -539062.46249   -407456.44048  20449951.953    20449960.062
       245.000         216.000
 99  4  3 18 11 30.0000000  0  6G26G 2G27G 9G 4G 7
  22917597.557     1283929.00749   1011268.94346  22917598.327    22917607.888
       227.000         176.000
  21655180.252     2355131.90049   1837324.91047  21655179.601    21655189.122
       239.000         200.000
  22630594.238    10608272.74049   8264452.29246  22630594.056    22630604.677
       223.000         172.000
  22791184.737    -9031508.97149  -7021882.47546  22791184.571    22791193.570
       225.000         175.000
  22500127.066   -15469010.40849 -10769034.07646  22500126.746    22500137.044
       225.000         175.000
  20455909.094     -507759.40249   -383064.49048  20455908.499    20455916.719
       245.000         216.000
 99  4  3 18 12  0.0000000  0  6G26G 2G27G 9G 4G 7
  22926711.950     1331824.86749   1048590.30746  22926712.647    22926722.134
       225.000         176.000
  21660987.720     2385650.12349   1861105.27747  21660987.271    21660996.552
       238.000         199.000
  22649812.961    10709267.24149   8343149.12646  22649812.941    22649823.864
       223.000         172.000
  22774877.449    -9117204.51549  -7088658.19746  22774877.271    22774885.550
       224.000         176.000
  22481847.885   -15565067.36249 -10843883.56346  22481846.272    22481858.391
       223.000         175.000
  20461918.937     -476177.57049   -358455.30348  20461918.199    20461926.389
       244.000         216.000
 99  4  3 18 12 30.0000000  0  6G26G 2G27G 9G 4G 7
  22935895.400     1380083.96349   1086194.70946  22935895.890    22935904.672
       226.000         176.000
  21666824.990     2416325.02849   1885007.74447  21666824.559    21666834.181
       238.000         199.000
  22669081.501    10810522.64949   8422049.24946  22669081.292    22669093.185
       221.000         172.000
  22758606.220    -9202710.31049  -7155286.06346  22758606.245    22758614.882
       225.000         175.000
  22463607.675   -15660919.42349 -10918573.41346  22463608.487    22463619.237
       226.000         175.000
  20467981.654     -444317.60749   -333629.39248  20467981.171    20467989.264
       244.000         216.000
 99  4  3 18 13  0.0000000  0  6G26G 2G27G 9G 4G 7
  22945161.571     1428777.35949   1124137.50646  22945162.205    22945171.118
       225.000         176.000
  21672703.118     2447214.77549   1909077.61247  21672703.040    21672711.865
       238.000         198.000
  22688413.059    10912110.22249   8501208.19746  22688413.078    22688423.667
       221.000         172.000
  22742387.087    -9287942.26049  -7221700.53846  22742387.263    22742394.976
       227.000         176.000
  22445416.279   -15756515.56849 -10993063.83946  22445417.681    22445427.045
       230.000         175.000
  20474113.087     -412097.00649   -308522.47148  20474112.677    20474120.917
       244.000         216.000
 99  4  3 18 13 30.0000000  0  6G26G 2G27G 9G 4G 7
  22954503.721     1477870.50049   1162391.79446  22954503.918    22954512.944
       224.000         175.000
  21678616.522     2478289.31449   1933291.46847  21678616.416    21678625.400
       239.000         199.000
  22707804.907    11014014.82449   8580614.19746  22707804.794    22707815.983
       219.000         171.000
  22726216.761    -9372918.28349  -7287915.62646  22726216.248    22726224.792
       227.000         176.000
  22427266.256   -15851894.90449 -11067385.33646  22427266.836    22427276.994
       228.000         176.000
  20480310.147     -379531.78049   -283147.00148  20480309.807    20480317.869
       245.000         216.000
 99  4  3 18 14  0.0000000  0  6G26G 2G27G 9G 4G 7
  22963910.766     1527304.25649   1200911.50746  22963910.865    22963919.974
       227.000         175.000
  21684557.837     2509510.73949   1957619.78247  21684557.373    21684566.235
       238.000         198.000
  22727247.443    11116186.16449   8660228.01846  22727248.403    22727259.573
       222.000         171.000
  22710090.146    -9457664.28449  -7353951.46046  22710090.412    22710098.625
       227.000         177.000
  22409150.727   -15947092.33149 -11141565.08646  22409151.337    22409161.216
       227.000         176.000
  20486567.793     -346647.92049   -257523.24248  20486567.315    20486575.569
       245.000         217.000
 99  4  3 18 14 30.0000000  0  6G26G 2G27G 9G 4G 7
  22973389.950     1577117.81649   1239727.16446  22973390.093    22973399.193
       225.000         176.000
  21690541.082     2540952.71349   1982119.94647  21690540.751    21690550.070
       239.000         198.000
  22746750.329    11218673.29449   8740087.91246  22746751.941    22746762.116
       223.000         170.000
  22694022.256    -9542101.54049  -7419746.70746  22694022.165    22694030.546
       227.000         179.000
  22391082.146   -16042042.52949 -11215552.20046  22391083.236    22391092.442
       229.000         176.000
  20492897.533     -313385.23549   -231604.29048  20492897.103    20492905.262
       245.000         216.000
 99  4  3 18 15  0.0000000  0  6G26G 2G27G 9G 4G 7
  22982931.079     1627256.82449   1278796.42746  22982931.887    22982941.085
       225.000         175.000
  21696557.477     2572568.44949   2006755.51247  21696556.806    21696566.528
       237.000         198.000
  22766301.254    11321412.45149   8820144.18346  22766302.217    22766311.536
       221.000         170.000
  22678004.894    -9626273.11149  -7485334.94146  22678005.184    22678012.685
       228.000         179.000
  22373055.804   -16136771.70849 -11289367.08746  22373055.756    22373066.494
       228.000         177.000
  20499290.313     -279790.96149   -205426.95448  20499289.817    20499297.868
       245.000         216.000
 99  4  3 18 15 30.0000000  0  6G26G 2G27G 9G 4G 7
  22992544.566     1677775.50249   1318161.53446  22992544.373    22992555.130
       223.000         174.000
  21702620.780     2604431.46549   2031583.76047  21702620.259    21702629.371
       238.000         198.000
  22785909.255    11424451.33549   8900433.99646  22785910.143    22785920.367
       223.000         170.000
  22662046.924    -9710133.07949  -7550680.34946  22662046.332    22662054.905
       227.000         179.000
  22355086.538   -16231201.18249 -11362948.44446  22355086.646    22355097.941
       230.000         178.000
  20505754.650     -245820.78549   -178956.70648  20505753.972    20505762.005
       245.000         216.000
 99  4  3 18 16  0.0000000  0  6G26G 2G27G 9G 4G 7
  23002223.991     1728640.26149   1357796.29146  23002225.271    23002234.276
       227.000         176.000
  21708724.004     2636503.32649   2056574.75647  21708723.853    21708733.522
       239.000         199.000
  22805564.657    11527739.44449   8980918.01746  22805564.476    22805575.337
       220.000         171.000
  22646141.134    -9793718.04349  -7615811.48646  22646140.903    22646150.154
       226.000         180.000
  22337165.451   -16325376.78649 -11436331.99346  22337165.682    22337176.278
       229.000         178.000
  20512281.093     -211523.99849   -152231.95948  20512280.364    20512288.587
       245.000         216.000
 99  4  3 18 16 30.0000000  0  6G26G 2G27G 9G 4G 7
  23011968.859     1779848.49249   1397698.69146  23011969.215    23011978.782
       225.000         174.000
  21714861.137     2668753.47249   2081704.67647  21714860.245    21714869.757
       238.000         199.000
  22825266.735    11631274.98649   9061594.84446  22825265.577    22825279.137
       219.000         168.000
  22630285.299    -9877041.26049  -7680738.65146  22630284.460    22630293.789
       227.000         180.000
  22319285.166   -16419337.97449 -11509548.46746  22319284.861    22319295.371
       229.000         178.000
  20518865.028     -176925.27149   -125271.94348  20518864.436    20518872.564
       245.000         215.000
 99  4  3 18 17  0.0000000  0  6G26G 2G27G 9G 4G 7
  23021777.858     1831394.83049   1437864.56246  23021777.045    23021788.567
       222.000         174.000
  21721026.847     2701154.65449   2106952.26847  21721026.526    21721035.647
       238.000         198.000
  22845014.684    11735051.45549   9142459.41246  22845014.436    22845026.921
       219.000         168.000
  22614475.247    -9960123.49749  -7745478.04746  22614474.215    22614483.105
       228.000         180.000
  22301442.192   -16513102.98949 -11582612.08346  22301442.383    22301452.933
       228.000         179.000
  20525502.446     -142045.60149    -98093.00848  20525502.260    20525510.124
       245.000         215.000
 99  4  3 18 17 30.0000000  0  6G26G 2G27G 9G 4G 7
  23031668.584     1883371.27049   1478365.57646  23031669.177    23031677.757
       224.000         173.000
  21727239.226     2733800.60949   2132390.60747  21727238.975    21727248.201
       238.000         198.000
  22864828.694    11839174.99649   9223594.42746  22864829.188    22864841.207
       219.000         167.000
  22598727.554   -10042877.73549  -7809961.86146  22598727.646    22598735.711
       228.000         180.000
  22283652.462   -16606588.21949 -11655457.67646  22283652.968    22283662.549
       232.000         180.000
  20532212.120     -106786.33849    -70618.28148  20532211.736    20532220.030
       245.000         215.000
 99  4  3 18 18  0.0000000  0  6G26G 2G27G 9G 4G 7
  23041614.476     1935637.13049   1519092.09046  23041615.362    23041624.834
       224.000         172.000
  21733470.285     2766544.51949   2157905.27147  21733469.952    21733479.046
       238.000         198.000
  22884684.611    11943516.84849   9304899.51246  22884685.882    22884695.411
       221.000         168.000
  22583017.824   -10125432.81149  -7874290.47046  22583017.562    22583025.600
       230.000         181.000
  22265892.369   -16699918.51649 -11728182.54346  22265892.124    22265902.749
       229.000         180.000
  20538970.189      -71272.71749    -42945.35448  20538969.717    20538978.319
       244.000         216.000
 99  4  3 18 18 30.0000000  0  6G26G 2G27G 9G 4G 7
  23051622.420     1988228.29949   1560072.11846  23051622.794    23051632.369
       225.000         172.000
  21739728.485     2799431.32849   2183531.28547  21739727.940    21739737.250
       237.000         197.000
  22904589.410    12048115.76549   9386404.95546  22904590.272    22904601.480
       221.000         168.000
  22567355.305   -10207739.94649  -7938425.90446  22567355.325    22567363.205
       230.000         180.000
  22248177.577   -16793010.60649 -11800721.80146  22248177.687    22248187.175
       229.000         181.000
  20545784.240      -35464.92649    -15043.20348  20545783.610    20545792.243
       244.000         216.000
 99  4  3 18 19  0.0000000  0  6G26G 2G27G 9G 4G 7
  23061700.705     2041189.46349   1601340.44846  23061700.527    23061710.906
       224.000         173.000
  21746028.526     2832538.11549   2209328.71347  21746028.048    21746037.317
       238.000         197.000
  22924550.160    12153008.86849   9468139.59846  22924551.173    22924562.602
       221.000         169.000
  22551750.575   -10289743.21949  -8002324.55146  22551749.898    22551758.883
       230.000         181.000
  22230526.833   -16885765.46049 -11872998.28646  22230526.657    22230536.858
       229.000         181.000
  20552666.650         702.49549     13139.18148  20552666.035    20552674.466
       245.000         216.000
 99  4  3 18 19 30.0000000  0  6G26G 2G27G 9G 4G 7
  23071856.878     2094560.07749   1642927.83846  23071857.346    23071866.779
       225.000         172.000
  21752380.687     2865918.57749   2235339.39347  21752380.231    21752389.251
       238.000         197.000
  22944572.152    12258223.92249   9550125.09746  22944572.123    22944583.943
       218.000         168.000
  22536214.427   -10371386.47949  -8065942.68346  22536214.623    22536222.102
       232.000         181.000
  22212950.462   -16978130.47949 -11944970.98746  22212950.844    22212959.891
       231.000         182.000
  20559627.345       37281.19349     41642.03148  20559626.797    20559635.251
       244.000         215.000
 99  4  3 18 20  0.0000000  0  6G26G 2G27G 9G 4G 7
  23082077.311     2148268.27849   1684778.27446  23082077.630    23082088.048
       225.000         172.000
  21758772.025     2899505.14249   2261510.67447  21758771.866    21758780.688
       238.000         197.000
  22964638.692    12363674.71949   9632294.33046  22964639.961    22964648.828
       220.000         166.000
  22520736.626   -10452723.14349  -8129321.90246  22520736.908    22520745.025
       232.000         182.000
  22195436.571   -17070167.36549 -12016688.02246  22195437.149    22195447.099
       233.000         183.000
  20566648.515       74177.39849     70392.29448  20566648.026    20566656.269
       245.000         215.000
 99  4  3 18 20 30.0000000  0  6G26G 2G27G 9G 4G 7
  23092359.189     2202299.80949   1726880.64646  23092359.492    23092369.656
       223.000         170.000
  21765200.706     2933287.72449   2287834.69247  21765200.345    21765209.943
       237.000         197.000
  22984746.807    12469342.76949   9714632.82746  22984747.940    22984759.072
       218.000         166.000
  22505315.895   -10533759.71349  -8192467.28346  22505315.854    22505324.314
       229.000         182.000
  22177980.350   -17161901.10749 -12088168.82946  22177980.594    22177990.040
       231.000         183.000
  20573723.732      111357.81849     99364.02248  20573723.068    20573731.345
       244.000         214.000
 99  4  3 18 21  0.0000000  0  6G26G 2G27G 9G 4G 7
  23102703.394     2256658.48649   1769237.91946  23102704.461    23102713.741
       225.000         170.000
  21771667.039     2967268.35549   2314313.03447  21771666.989    21771676.288
       239.000         197.000
  23004896.554    12575230.13149   9797142.18746  23004897.081    23004909.146
       221.000         166.000
  22489950.843   -10614503.56249  -8255384.54646  22489950.052    22489959.227
       230.000         182.000
  22160575.421   -17253363.86349 -12159438.48646  22160575.543    22160585.446
       230.000         183.000
  20580852.588      148820.33249    128555.56048  20580851.893    20580860.426
       244.000         214.000
 99  4  3 18 21 30.0000000  0  6G26G 2G27G 9G 4G 7
  23113105.770     2311322.77049   1811833.34946  23113106.299    23113114.964
       223.000         170.000
  21778161.767     3001397.90949   2340907.42447  21778161.093    21778170.650
       237.000         197.000
  23025084.628    12681316.89249   9879806.95146  23025085.765    23025097.671
       220.000         166.000
  22474636.292   -10694981.76849  -8318094.81746  22474636.173    22474644.293
       231.000         182.000
  22143211.195   -17344612.94949 -12230541.63646  22143210.125    22143221.521
       230.000         183.000
  20588026.452      186518.96349    157931.08848  20588025.866    20588034.102
       244.000         214.000
 99  4  3 18 22  0.0000000  0  6G26G 2G27G 9G 4G 7
  23123567.040     2366296.74649   1854670.11546  23123566.988    23123577.410
       223.000         171.000
  21784685.804     3035682.41949   2367622.55647  21784685.626    21784694.730
       237.000         196.000
  23045314.240    12787623.27349   9962642.84346  23045314.950    23045325.571
       219.000         164.000
  22459373.111   -10775190.83149  -8380595.37946  22459373.080    22459380.929
       232.000         183.000
  22125889.822   -17435637.14049 -12301469.55346  22125890.275    22125899.339
       231.000         183.000
  20595245.819      224456.82249    187493.03048  20595245.228    20595253.358
       244.000         214.000
 99  4  3 18 22 30.0000000  0  6G26G 2G27G 9G 4G 7
  23134079.668     2421540.64249   1897717.18246  23134080.110    23134089.719
       223.000         169.000
  21791233.416     3070089.96649   2394433.55447  21791233.453    21791242.522
       236.000         196.000
  23065580.240    12894121.17449  10045627.95946  23065580.591    23065591.615
       219.000         164.000
  22444154.265   -10855166.39649  -8442913.98446  22444154.055    22444162.409
       232.000         184.000
  22108604.727   -17526469.57749 -12372248.05946  22108604.422    22108614.409
       231.000         183.000
  20602507.949      262619.66249    217230.27548  20602507.461    20602515.690
       245.000         214.000
 99  4  3 18 23  0.0000000  0  6G26G 2G27G 9G 4G 7
  23144652.499     2477100.94249   1941010.80446  23144653.040    23144662.685
       225.000         169.000
  21797814.501     3104673.04749   2421381.33847  21797813.867    21797823.190
       236.000         196.000
  23085892.114    13000860.37849  10128801.10946  23085892.040    23085904.191
       216.000         164.000
  22428990.486   -10934852.46049  -8505007.00546  22428990.583    22428999.227
       231.000         183.000
  22091367.742   -17617050.37049 -12442830.47946  22091367.944    22091377.959
       233.000         184.000
  20609827.300      301082.70449    247201.44548  20609826.744    20609834.876
       245.000         214.000
 99  4  3 18 23 30.0000000  0  6G26G 2G27G 9G 4G 7
  23155284.478     2532972.44849   1984546.93546  23155284.760    23155295.399
       224.000         171.000
  21804430.019     3139437.44949   2448470.39547  21804429.538    21804438.817
       237.000         195.000
  23106250.270    13107842.21549  10212163.30445  23106251.785    23106262.762
       217.000         162.000
  22413886.230   -11014226.11949  -8566856.59146  22413886.439    22413894.049
       233.000         185.000
  22074184.511   -17707349.04049 -12513193.05946  22074184.080    22074195.213
       231.000         184.000
  20617205.123      339853.22349    277412.20048  20617204.666    20617212.828
       244.000         214.000
 99  4  3 18 24  0.0000000  0  6G26G 2G27G 9G 4G 7
  23165976.205     2589156.36949   2028326.48246  23165976.288    23165986.882
       224.000         171.000
  21811083.591     3174402.14249   2475715.53647  21811082.921    21811092.540
       236.000         195.000
  23126654.480    13215064.70249  10295713.06145  23126654.640    23126666.998
       216.000         162.000
  22398845.130   -11093267.64849  -8628447.38446  22398844.712    22398853.035
       233.000         185.000
  22057059.202   -17797342.89249 -12583318.11546  22057058.766    22057069.150
       230.000         184.000
  20624645.136      378950.51449    307877.59148  20624644.196    20624652.943
       244.000         214.000
 99  4  3 18 24 30.0000000  0  6G26G 2G27G 9G 4G 7
  23176730.159     2645668.39849   2072361.71046  23176731.103    23176740.405
       224.000         171.000
  21817777.180     3209577.10449   2503124.51747  21817776.987    21817786.259
       237.000         195.000
  23147106.030    13322537.87749  10379458.10246  23147105.672    23147118.616
       216.000         163.000
  22383870.083   -11171961.76049  -8689767.45846  22383869.899    22383878.726
       232.000         186.000
  22039994.431   -17887018.65049 -12653195.32146  22039994.369    22040003.912
       231.000         185.000
  20632150.176      418390.31249    338609.86048  20632149.290    20632158.397
       244.000         214.000
 99  4  3 18 25  0.0000000  0  6G26G 2G27G 9G 4G 7
  23187551.091     2702531.92149   2116670.82546  23187551.362    23187561.699
       224.000         172.000
  21824513.520     3244976.51349   2530708.40447  21824513.084    21824522.712
       236.000         195.000
  23167607.183    13430271.82049  10463406.34445  23167606.979    23167619.992
       216.000         162.000
  22368962.932   -11250298.88849  -8750809.36246  22368963.109    22368971.269
       233.000         186.000
  22022993.179   -17976361.04449 -12722812.76546  22022993.199    22023003.003
       231.000         185.000
  20639721.284      458176.71649    369612.21048  20639720.429    20639729.197
       243.000         214.000
 99  4  3 18 25 30.0000000  0  6G26G 2G27G 9G 4G 7
  23198438.742     2759746.32649   2161253.34546  23198439.644    23198449.726
       222.000         171.000
  21831289.881     3280586.63449   2558456.47747  21831289.473    21831298.617
       237.000         195.000
  23188156.795    13538259.25549  10547552.12545  23188158.652    23188169.595
       218.000         161.000
  22354120.690   -11328295.93249  -8811586.26546  22354119.725    22354128.647
       233.000         187.000
  22006053.590   -18065378.16849 -12792176.74846  22006053.576    22006064.146
       231.000         185.000
  20647354.331      498288.84649    400868.36848  20647353.804    20647362.646
       243.000         214.000
 99  4  3 18 26  0.0000000  0  6G26G 2G27G 9G 4G 7
  23209394.173     2817317.12949   2206113.59846  23209394.690    23209404.170
       221.000         171.000
  21838107.354     3316411.92149   2586372.20647  21838106.963    21838117.025
       236.000         195.000
  23208756.890    13646511.08149  10631903.93245  23208756.582    23208769.576
       214.000         160.000
  22339340.034   -11405968.79649  -8872110.57246  22339339.297    22339348.817
       231.000         187.000
  21989175.785   -18154071.27649 -12861288.24446  21989175.561    21989186.200
       231.000         185.000
  20655050.073      538730.01249    432380.91648  20655049.717    20655058.091
       244.000         214.000
 99  4  3 18 26 30.0000000  0  6G26G 2G27G 9G 4G 7
  23220412.765     2875220.05949   2251232.63146  23220412.753    23220422.547
       222.000         170.000
  21844964.415     3352446.25249   2614450.83847  21844964.086    21844973.956
       237.000         195.000
  23229404.553    13755013.54749  10716451.01845  23229404.098    23229418.107
       216.000         162.000
  22324615.125   -11483348.72249  -8932406.62546  22324614.601    22324623.097
       231.000         186.000
  21972358.944   -18242443.75149 -12930149.90946  21972359.932    21972369.409
       232.000         185.000
  20662802.259      579467.63949    464124.47448  20662801.540    20662810.167
       244.000         214.000
 99  4  3 18 27  0.0000000  0  6G26G 2G27G 9G 4G 7
  23231499.199     2933478.89749   2296629.00146  23231499.767    23231509.616
       222.000         170.000
  21851869.468     3388732.29049   2642725.59647  21851869.116    21851878.972
       236.000         195.000
  23250104.736    13863792.99449  10801213.95146  23250105.097    23250118.243
       215.000         163.000
  22309953.109   -11560398.03949  -8992445.04846  22309952.501    22309960.928
       232.000         187.000
  21955611.557   -18330452.31349 -12998727.99346  21955611.726    21955621.874
       231.000         186.000
  20670616.427      620530.97449    496121.82648  20670616.020    20670624.354
       245.000         213.000
 99  4  3 18 27 30.0000000  0  6G26G 2G27G 9G 4G 7
  23242645.633     2992053.44049   2342271.37646  23242646.081    23242656.009
       224.000         170.000
  21858818.019     3425247.09749   2671178.61747  21858817.615    21858827.618
       237.000         195.000
  23270853.074    13972825.58649  10886174.13545  23270853.074    23270865.445
       216.000         159.000
  22295351.128   -11637132.06449  -9052237.78347  22295350.540    22295359.124
       232.000         188.000
  21938933.302   -18418097.41249 -13067022.85146  21938933.432    21938943.325
       231.000         186.000
  20678487.324      661892.30949    528351.39548  20678486.921    20678495.120
       244.000         213.000
 99  4  3 18 28  0.0000000  0  6G26G 2G27G 9G 4G 7
  23253844.916     3050905.03449   2388129.63446  23253844.379    23253856.253
       223.000         170.000
  21865807.272     3461975.23849   2699797.87547  21865806.917    21865816.765
       236.000         196.000
  23291642.633    14082075.81649  10971303.85845  23291643.411    23291656.204
       215.000         161.000
  22280805.295   -11713570.65849  -9111800.32347  22280805.359    22280813.529
       233.000         188.000
  21922319.642   -18505402.59049 -13135052.82246  21922319.654    21922330.526
       232.000         186.000
  20686406.518      703507.39349    560778.68448  20686405.759    20686414.080
       244.000         214.000
 99  4  3 18 28 30.0000000  0  6G26G 2G27G 9G 4G 7
  23265091.311     3110005.78349   2434182.04346  23265092.082    23265102.406
       223.000         169.000
  21872831.368     3498886.59149   2728559.88847  21872830.874    21872841.119
       236.000         195.000
  23312465.774    14191500.42449  11056569.48645  23312465.496    23312479.724
       215.000         162.000
  22266315.059   -11789717.66249  -9171135.64547  22266315.131    22266322.945
       233.000         188.000
  21905765.423   -18592394.83949 -13202838.97746  21905765.354    21905775.601
       231.000         186.000
  20694366.894      745339.43449    593375.04148  20694366.388    20694374.536
       244.000         214.000
 99  4  3 18 29  0.0000000  0  6G26G 2G27G 9G 4G 7
  23276389.050     3169375.26849   2480443.85346  23276389.791    23276399.255
       223.000         169.000
  21879889.971     3535979.52949   2757463.39547  21879890.237    21879899.826
       236.000         195.000
  23333322.527    14301102.56449  11141973.46845  23333322.537    23333335.631
       216.000         158.000
  22251886.852   -11865538.34049  -9230216.67847  22251886.629    22251894.864
       232.000         188.000
  21889271.717   -18679069.95449 -13270377.97446  21889272.152    21889281.853
       233.000         187.000
  20702372.017      787406.65249    626154.65448  20702371.536    20702379.582
       244.000         213.000
 99  4  3 18 29 30.0000000  0  6G26G 2G27G 9G 4G 7
  23287737.562     3229010.83549   2526912.99346  23287738.224    23287748.335
       220.000         169.000
  21886979.683     3573235.65949   2786494.07347  21886978.860    21886988.916
       235.000         195.000
  23354210.334    14410867.06249  11227503.93045  23354211.086    23354223.067
       214.000         160.000
  22237519.319   -11941039.67149  -9289048.88647  22237519.136    22237528.234
       233.000         188.000
  21872834.904   -18765446.01449 -13337683.94046  21872835.251    21872845.155
       232.000         187.000
  20710418.242      829689.86749    659102.57648  20710417.606    20710426.141
       244.000         213.000
 99  4  3 18 30  0.0000000  0  6G26G 2G27G 9G 4G 7
  23299138.290     3288921.76649   2573596.70046  23299138.612    23299149.392
       222.000         168.000
  21894101.055     3610658.44949   2815654.61247  21894101.269    21894110.334
       236.000         194.000
  23375126.914    14520783.45449  11313152.81245  23375125.987    23375141.672
       212.000         160.000
  22223213.761   -12016215.78849  -9347627.67046  22223213.729    22223222.221
       234.000         187.000
  21856450.083   -18851548.70549 -13404776.88847  21856450.094    21856460.562
       234.000         188.000
  20718508.420      872204.11349    692230.52848  20718507.566    20718516.354
       244.000         213.000
 99  4  3 18 30 30.0000000  0  6G26G 2G27G 9G 4G 7
  23310590.885     3349105.56849   2620493.03046  23310591.613    23310600.431
       220.000         168.000
  21901254.020     3648247.00749   2844944.32747  21901253.358    21901263.425
       236.000         194.000
  23396072.677    14630854.34649  11398921.95945  23396072.936    23396084.594
       216.000         159.000
  22208973.169   -12091050.59249  -9405940.51047  22208973.078    22208981.829
       234.000         188.000
  21840119.384   -18937367.40749 -13471648.53647  21840119.380    21840129.163
       233.000         188.000
  20726647.331      914974.57049    725558.12248  20726647.111    20726655.371
       244.000         213.000
 99  4  3 18 31  0.0000000  0  6G26G 2G27G 9G 4G 7
  23322099.768     3409584.72849   2667619.51046  23322099.686    23322110.665
       222.000         168.000
  21908445.042     3686036.19849   2874390.37047  21908444.809    21908454.421
       237.000         193.000
  23417054.719    14741114.89149  11484838.92745  23417056.099    23417069.232
       218.000         159.000
  22194801.632   -12165522.29149  -9463970.39547  22194801.679    22194809.478
       233.000         189.000
  21823848.912   -19022869.06649 -13538273.11347  21823848.594    21823858.992
       233.000         189.000
  20734843.629      958046.07249    759120.30048  20734842.777    20734851.437
       245.000         213.000
 99  4  3 18 31 30.0000000  0  6G26G 2G27G 9G 4G 7
  23333666.545     3470367.82749   2714982.83346  23333667.388    23333677.398
       220.000         168.000
  21915680.211     3724057.02749   2904016.91947  21915679.791    21915689.828
       235.000         193.000
  23438077.643    14851590.19449  11570923.31445  23438078.326    23438092.408
       213.000         156.000
  22180700.318   -12239625.44249  -9521713.09147  22180699.591    22180708.883
       233.000         189.000
  21807643.997   -19108026.10549 -13604629.16247  21807644.062    21807654.163
       232.000         189.000
  20743102.525     1001447.08449    792939.23948  20743102.089    20743110.489
       244.000         213.000
 99  4  3 18 32  0.0000000  0  6G26G 2G27G 9G 4G 7
  23345287.050     3531433.71849   2762566.51046  23345287.164    23345298.088
       217.000         168.000
  21922961.253     3762318.85649   2933831.25447  21922960.700    21922970.831
       235.000         193.000
  23459142.597    14962284.64649  11657178.37245  23459140.875    23459157.727
       203.000         161.000
  22166667.650   -12313367.43949  -9579174.38647  22166667.955    22166675.484
       234.000         189.000
  21791507.134   -19192825.20349 -13670706.27447  21791507.313    21791517.174
       234.000         189.000
  20751424.996     1045181.38249    827017.88748  20751424.508    20751433.137
       244.000         213.000
 99  4  3 18 32 30.0000000  0  6G26G 2G27G 9G 4G 7
  23356962.747     3592789.86349   2810376.35946  23356963.631    23356973.420
       224.000         167.000
  21930291.522     3800839.49249   2963847.25747  21930291.375    21930301.034
       234.000         193.000
  23480252.982    15073220.12449  11743621.32845  23480253.968    23480269.143
       218.000         161.000
  22152705.773   -12386738.03449  -9636346.26647  22152705.451    22152713.561
       234.000         190.000
  21775446.353   -19277225.35649 -13736472.52047  21775446.442    21775455.324
       233.000         190.000
  20759810.217     1089245.83649    861353.79948  20759809.883    20759818.456
       244.000         213.000
 99  4  3 18 33  0.0000000  0  6G26G 2G27G 9G 4G 7
  23368694.628     3654440.42949   2858415.62746  23368694.150    23368705.226
       218.000         167.000
  21937672.095     3839624.38349   2994069.16047  21937671.906    21937681.453
       235.000         193.000
  23501410.248    15184401.16449  11830255.51345  23501412.121    23501422.282
       219.000         157.000
  22138812.720   -12459746.72149  -9693236.15247  22138812.469    22138820.688
       235.000         190.000
  21759463.061   -19361217.97049 -13801921.20447  21759462.977    21759473.188
       233.000         190.000
  20768255.910     1133628.18249    895937.41848  20768255.576    20768264.003
       244.000         213.000
 99  4  3 18 33 30.0000000  0  6G26G 2G27G 9G 4G 7
  23380480.921     3716377.77649   2906678.35746  23380480.850    23380492.335
       221.000         166.000
  21945101.241     3878664.51149   3024489.96547  21945101.033    21945110.712
       235.000         193.000
  23522613.951    15295825.76449  11917079.53945  23522612.274    23522630.897
       206.000         154.000
  22124987.437   -12532399.04649  -9749848.35547  22124987.090    22124995.350
       234.000         190.000
  21743559.386   -19444791.41749 -13867043.25447  21743559.377    21743568.795
       235.000         191.000
  20776758.690     1178310.25049    930754.58947  20776758.050    20776766.552
       243.000         212.000
 99  4  3 18 34  0.0000000  0  7G26G 2G27G 9G 4G 7G24
  23392315.744     3778569.22749   2955139.09846  23392316.536    23392327.217
       220.000         166.000
  21952572.522     3917925.56649   3055082.91847  21952572.071    21952582.668
       235.000         193.000
  23543857.243    15407458.27449  12004065.61145  23543858.266    23543870.685
       212.000         158.000
  22111227.249   -12604709.03249  -9806193.79947  22111227.096    22111235.279
       235.000         190.000
  21727728.166   -19527984.81649 -13931869.17747  21727728.237    21727738.148
       234.000         191.000
  20785307.255     1223233.52149    965759.71347  20785306.512    20785314.987
       244.000         212.000
  24406789.107    -1907768.79358  -1467316.40844  24406786.603    24406806.095
       192.000         122.000
 99  4  3 18 34 30.0000000  0  7G26G 2G27G 9G 4G 7G24
  23404196.702     3841003.24449   3003788.84046  23404196.922    23404207.239
       219.000         165.000
  21960078.048     3957366.68249   3085816.16447  21960078.064    21960087.640
       235.000         193.000
  23565134.865    15519271.44649  12091192.36145  23565136.456    23565151.459
       218.000         161.000
  22097532.838   -12676673.86249  -9862270.29647  22097532.217    22097540.474
       234.000         190.000
  21711962.014   -19610836.24049 -13996428.61947  21711962.001    21711971.747
       235.000         191.000
  20793896.258     1268369.46149   1000930.54747  20793895.626    20793904.412
       243.000         212.000
  24386036.273    -2016825.34249  -1552295.42644  24386036.318    24386053.884
       199.000         127.000
 99  4  3 18 35  0.0000000  0  7G26G 2G27G 9G 4G 7G24
  23416123.067     3903676.29149   3052624.88146  23416123.625    23416134.585
       220.000         165.000
  21967615.888     3996977.90849   3116681.97747  21967615.446    21967625.471
       235.000         192.000
  23586445.680    15631257.77949  12178454.14745  23586445.883    23586458.601
       213.000         151.000
  22083904.185   -12748292.59249  -9918077.08847  22083903.861    22083912.599
       234.000         191.000
  21696259.454   -19693353.78549 -14060727.90447  21696259.712    21696269.657
       236.000         192.000
  20802527.037     1313724.51349   1036272.11647  20802526.351    20802535.097
       243.000         211.000
  24365282.642    -2125888.97049  -1637280.02444  24365282.556    24365300.515
       203.000         128.000
 99  4  3 18 35 30.0000000  0  7G26G 2G27G 9G 4G 7G24
  23428093.880     3966582.59049   3101642.62146  23428094.248    23428105.144
       220.000         164.000
  21975185.346     4036755.93749   3147677.76947  21975184.486    21975195.319
       234.000         192.000
  23607784.694    15743392.76349  12265831.68745  23607784.211    23607798.527
       207.000         156.000
  22070340.810   -12819568.30549  -9973616.60247  22070340.052    22070348.322
       234.000         191.000
  21680615.864   -19775561.31849 -14124785.61947  21680615.942    21680625.350
       235.000         193.000
  20811196.951     1359285.22349   1071773.94147  20811196.708    20811204.913
       243.000         211.000
  24344524.740    -2234972.72549  -1722280.29144  24344525.046    24344539.627
       199.000         129.000
 99  4  3 18 36  0.0000000  0  7G26G 2G27G 9G 4G 7G24
  23440107.376     4029713.46449   3150835.36946  23440108.820    23440117.891
       220.000         165.000
  21982784.361     4076689.29749   3178794.59747  21982784.015    21982793.881
       233.000         191.000
  23629146.749    15855649.66449  12353304.28545  23629148.681    23629160.823
       220.000         155.000
  22056840.541   -12890512.39449 -10028897.71247  22056840.757    22056848.523
       235.000         192.000
  21665025.729   -19857487.88549 -14188624.40747  21665025.805    21665035.099
       235.000         193.000
  20819903.947     1405040.31349   1107427.23047  20819903.341    20819911.975
       244.000         211.000
  24323757.969    -2344105.13349  -1807318.47145  24323759.682    24323773.590
       209.000         135.000
 99  4  3 18 36 30.0000000  0  7G26G 2G27G 9G 4G 7G24
  23452167.975     4093092.05449   3200221.18046  23452168.182    23452178.846
       219.000         165.000
  21990416.366     4116795.41549   3210046.04447  21990416.491    21990426.088
       236.000         191.000
  23650534.735    15968041.28949  12440881.66045  23650535.785    23650549.084
       213.000         151.000
  22043403.044   -12961126.90949 -10083922.01247  22043403.100    22043411.636
       235.000         192.000
  21649496.955   -19939090.93749 -14252211.11947  21649496.885    21649506.867
       234.000         193.000
  20828657.034     1451037.69449   1143269.30447  20828656.831    20828665.141
       243.000         211.000
  24302985.003    -2453274.06449  -1892385.09745  24302984.604    24302999.477
       213.000         136.000
 99  4  3 18 37  0.0000000  0  7G26G 2G27G 9G 4G 7G24
  23464281.302     4156747.94249   3249823.02446  23464281.086    23464292.755
       218.000         166.000
  21998091.624     4157127.81449   3241473.80947  21998091.238    21998101.180
       235.000         192.000
  23671952.759    16080592.99849  12528584.04945  23671952.928    23671966.317
       214.000         149.000
  22030030.533   -13031399.79749 -10138680.10147  22030030.377    22030038.551
       236.000         192.000
  21634039.418   -20020320.51649 -14315506.82247  21634039.526    21634049.095
       236.000         193.000
  20837464.086     1497318.56249   1179332.28447  20837463.624    20837472.001
       243.000         211.000
  24282209.958    -2562452.38949  -1977459.05245  24282210.515    24282223.710
       210.000         136.000
 99  4  3 18 37 30.0000000  0  7G26G 2G27G 9G 4G 7G24
  23476449.571     4220692.40549   3299649.73646  23476450.082    23476460.365
       217.000         164.000
  22005815.739     4197717.41849   3273101.99647  22005815.451    22005825.266
       234.000         192.000
  23693405.595    16193328.62849  12616429.64845  23693405.717    23693421.945
       212.000         153.000
  22016729.011   -13101300.03649 -10193147.82947  22016729.066    22016737.242
       235.000         192.000
  21618657.152   -20101154.42749 -14378494.21147  21618657.355    21618666.921
       236.000         193.000
  20846327.530     1543896.07049   1215626.40547  20846326.958    20846335.662
       243.000         211.000
  24261433.872    -2671633.46049  -2062535.14945  24261434.358    24261446.748
       212.000         140.000
 99  4  3 18 38  0.0000000  0  7G26G 2G27G 9G 4G 7G24
  23488668.501     4284902.49749   3349683.45146  23488669.353    23488679.182
       216.000         163.000
  22013584.270     4238541.37049   3304912.77847  22013583.703    22013593.842
       235.000         191.000
  23714895.244    16306259.08749  12704427.01245  23714893.791    23714912.565
       209.000         150.000
  22003499.790   -13170820.19549 -10247319.38747  22003499.524    22003507.738
       236.000         192.000
  21603352.659   -20181579.90849 -14441163.34947  21603352.141    21603362.318
       236.000         193.000
  20855247.141     1590768.71149   1252150.50147  20855246.233    20855255.253
       242.000         211.000
  24240657.146    -2780813.80749  -2147610.66845  24240655.953    24240671.839
       206.000         140.000
 99  4  3 18 38 30.0000000  0  7G26G 2G27G 9G 4G 7G24
  23500935.127     4349363.86349   3399912.96345  23500935.901    23500947.311
       220.000         161.000
  22021397.231     4279598.10249   3336904.97547  22021396.205    22021406.849
       234.000         191.000
  23736422.445    16419383.01549  12792575.13245  23736422.577    23736436.212
       210.000         149.000
  21990346.243   -13239942.16849 -10301180.66347  21990346.400    21990354.220
       235.000         193.000
  21588127.907   -20261585.79449 -14503505.54247  21588127.121    21588137.554
       234.000         194.000
  20864218.429     1637913.19249   1288886.42147  20864217.583    20864226.558
       243.000         211.000
  24219881.153    -2889989.22249  -2232682.32145  24219883.004    24219895.190
       210.000         137.000
 99  4  3 18 39  0.0000000  0  7G26G 2G27G 9G 4G 7G24
  23513241.221     4414031.49449   3450303.17246  23513241.512    23513251.768
       221.000         163.000
  22029248.933     4320859.54449   3369056.67347  22029248.339    22029258.826
       233.000         190.000
  23757980.293    16532668.15649  12880848.99945  23757981.492    23757996.613
       209.000         147.000
  21977265.640   -13308681.16749 -10354743.52747  21977265.586    21977273.354
       236.000         193.000
  21572973.659   -20341221.22749 -14565559.06347  21572973.511    21572983.444
       235.000         194.000
  20873228.283     1685260.45249   1325780.34647  20873227.905    20873236.602
       242.000         211.000
  24199101.633    -2999187.88749  -2317772.13945  24199101.391    24199115.679
       211.000         139.000
 99  4  3 18 39 30.0000000  0  7G26G 2G27G 9G 4G 7G24
  23525582.436     4478885.08449   3500838.30846  23525582.318    23525594.103
       220.000         163.000
  22037133.932     4362295.19049   3401344.12547  22037133.240    22037143.749
       233.000         190.000
  23779565.804    16646099.19849  12969236.40445  23779565.889    23779579.781
       203.000         148.000
  21964257.200   -13377041.34049 -10408011.19647  21964256.751    21964265.305
       235.000         194.000
  21557887.413   -20420499.38249 -14627334.20147  21557887.685    21557897.106
       236.000         194.000
  20882270.262     1732776.02349   1362805.43047  20882269.915    20882278.406
       243.000         211.000
  24178316.030    -3108417.39949  -2402885.91745  24178314.261    24178328.608
       211.000         138.000
 99  4  3 18 40  0.0000000  0  7G26G 2G27G 9G 4G 7G24
  23537969.047     4543976.81049   3551559.00046  23537969.233    23537979.480
       219.000         163.000
  22045056.661     4403929.11949   3433786.07947  22045056.185    22045066.697
       234.000         190.000
  23801184.427    16759707.81449  13057762.18945  23801186.441    23801201.112
       212.000         150.000
  21951327.327   -13444988.09249 -10460956.71547  21951327.392    21951335.607
       235.000         193.000
  21542878.194   -20499373.79049 -14688794.73247  21542878.276    21542887.624
       237.000         194.000
  20891350.550     1780492.87849   1399987.35547  20891349.969    20891358.825
       242.000         211.000
  24157533.407    -3217630.07349  -2487986.58945  24157530.160    24157546.888
       206.000         139.000
 99  4  3 18 40 30.0000000  0  7G26G 2G27G 9G 4G 7G24
  23550394.792     4609273.20049   3602439.16746  23550395.930    23550406.510
       219.000         163.000
  22053012.032     4445734.62949   3466361.71447  22053011.208    22053021.962
       232.000         190.000
  23822828.069    16873442.13549  13146385.99145  23822829.808    23822843.586
       213.000         151.000
  21938466.749   -13512571.15149 -10513618.83747  21938466.566    21938474.974
       236.000         194.000
  21527937.508   -20577887.76549 -14749974.41447  21527937.339    21527947.145
       237.000         195.000
  20900462.333     1828375.66449   1437298.57947  20900461.711    20900470.334
       243.000         210.000
  24136743.899    -3326872.75749  -2573110.64145  24136740.332    24136757.705
       201.000         135.000
 99  4  3 18 41  0.0000000  0  7G26G 2G27G 9G 4G 7G24
  23562860.094     4674777.79549   3653481.56046  23562860.641    23562872.159
       220.000         163.000
  22060999.248     4487708.11249   3499068.24447  22060998.728    22061009.724
       232.000         189.000
  23844496.535    16987308.57849  13235112.72945  23844496.978    23844514.251
       208.000         145.000
  21925674.297   -13579795.91249 -10566001.77747  21925674.391    21925682.783
       235.000         194.000
  21513064.938   -20656043.01449 -14810874.57647  21513064.605    21513074.605
       235.000         195.000
  20909611.255     1876453.38449   1474761.71047  20909610.898    20909619.422
       243.000         210.000
  24115951.268    -3436131.92549  -2658247.52445  24115948.826    24115967.238
       202.000         136.000
 99  4  3 18 41 30.0000000  0  7G26G 2G27G 9G 4G 7G24
  23575371.622     4740526.63149   3704714.29045  23575372.090    23575382.487
       217.000         162.000
  22069025.963     4529888.27649   3531935.84147  22069025.402    22069035.585
       233.000         189.000
  23866196.882    17101343.59649  13323970.81945  23866196.946    23866214.060
       205.000         148.000
  21912961.097   -13646604.20649 -10618060.17947  21912960.973    21912969.661
       237.000         195.000
  21498272.708   -20733776.32249 -14871445.95147  21498272.905    21498282.440
       236.000         196.000
  20918810.159     1924793.64249   1512429.41547  20918809.250    20918818.378
       242.000         210.000
  24095164.398    -3545363.03849  -2743362.53945  24095162.116    24095180.963
       198.000         136.000
 99  4  3 18 42  0.0000000  0  7G26G 2G27G 9G 4G 7G24
  23587930.963     4806525.95949   3756142.19145  23587931.445    23587942.044
       218.000         162.000
  22077098.888     4572311.35049   3564992.71747  22077098.663    22077108.582
       233.000         189.000
  23887933.042    17215565.81149  13412974.72145  23887933.458    23887948.238
       212.000         153.000
  21900331.091   -13712975.16549 -10669777.79547  21900330.597    21900339.531
       237.000         195.000
  21483564.639   -20811068.20149 -14931673.35447  21483565.057    21483574.565
       238.000         196.000
  20928066.050     1973434.18849   1550331.11147  20928065.522    20928073.849
       243.000         209.000
  24074386.523    -3654549.86049  -2828443.00145  24074386.049    24074403.391
       206.000         138.000
 99  4  3 18 42 30.0000000  0  7G26G 2G27G 9G 4G 7G24
  23600533.158     4872750.77549   3807745.81745  23600533.011    23600545.325
       217.000         162.000
  22085220.370     4614989.36749   3598248.24647  22085220.280    22085230.243
       232.000         190.000
  23909701.950    17329961.55949  13502113.86445  23909703.876    23909716.731
       210.000         146.000
  21887782.906   -13778916.30349 -10721160.49247  21887782.663    21887790.775
       237.000         195.000
  21468939.220   -20887926.03049 -14991562.54647  21468939.173    21468948.723
       237.000         197.000
  20937380.357     2022380.97449   1588471.43547  20937379.774    20937388.469
       242.000         209.000
  24053616.442    -3763699.57149  -2913494.55545  24053617.057    24053632.099
       207.000         139.000
 99  4  3 18 43  0.0000000  0  7G26G 2G27G 9G 4G 7G24
  23613170.813     4939160.91849   3859493.82845  23613171.302    23613182.333
       217.000         161.000
  22093382.235     4657879.80949   3631669.31247  22093381.860    22093391.879
       234.000         190.000
  23931494.342    17444481.17249  13591349.64245  23931495.760    23931509.950
       214.000         142.000
  21875307.393   -13844475.97349 -10772245.94947  21875306.860    21875315.502
       237.000         196.000
  21454389.306   -20964385.79849 -15051141.55647  21454389.105    21454398.970
       237.000         196.000
  20946743.348     2071584.00749   1626811.43147  20946742.622    20946751.578
       241.000         209.000
  24032848.258    -3872840.17549  -2998538.98945  24032849.235    24032864.922
       212.000         143.000
 99  4  3 18 43 30.0000000  0  8G26G 2G27G 5G 9G 4G 7G24
  23625851.666     5005798.29249   3911418.90445  23625852.762    23625862.870
       218.000         162.000
  22101596.461     4701045.31749   3665304.71147  22101596.353    22101606.196
       233.000         190.000
  23953317.686    17559160.71449  13680709.94545  23953319.332    23953335.440
       215.000         153.000
  24602157.189    -5261547.71959  -3807181.29145  24602157.331    24602168.299
       207.000         139.000
  21862910.846   -13909620.14549 -10823007.63847  21862910.472    21862918.948
       237.000         196.000
  21439925.336   -21040394.15349 -15110368.81847  21439925.319    21439934.874
       237.000         197.000
  20956161.947     2121078.88249   1665378.83647  20956161.471    20956170.226
       242.000         209.000
  24012090.742    -3981922.92449  -3083538.32645  24012091.995    24012106.544
       208.000         144.000
 99  4  3 18 44  0.0000000  0  8G26G 2G27G 5G 9G 4G 7G24
  23638581.579     5072694.12249   3963545.39445  23638582.400    23638593.568
       220.000         161.000
  22109867.932     4744512.36949   3699175.07047  22109867.687    22109878.103
       234.000         189.000
  23975175.612    17674022.67049  13770212.33045  23975176.121    23975193.481
       204.000         151.000
  24586739.774    -5342567.76949  -3870313.71645  24586737.776    24586751.063
       206.000         139.000
  21850594.239   -13974344.04349 -10873441.82547  21850594.098    21850602.453
       238.000         196.000
  21425548.196   -21115946.61449 -15169240.84847  21425548.621    21425557.754
       238.000         197.000
  20965638.021     2170875.35949   1704181.25747  20965637.341    20965646.365
       242.000         209.000
  23991351.276    -4090910.06949  -3168463.17945  23991353.222    23991366.923
       215.000         147.000
 99  4  3 18 44 30.0000000  0  8G26G 2G27G 5G 9G 4G 7G24
  23651349.867     5139791.79849   4015829.13645  23651350.441    23651361.119
       219.000         161.000
  22118181.623     4788201.22849   3733218.28847  22118180.782    22118191.009
       231.000         188.000
  23997053.052    17788988.01249  13859795.25645  23997054.015    23997066.265
       213.000         145.000
  24571318.087    -5423608.61349  -3933462.41445  24571316.961    24571329.670
       205.000         137.000
  21838345.967   -14038709.27949 -10923596.55347  21838345.418    21838353.850
       237.000         197.000
  21411246.337   -21191103.33249 -15227804.49447  21411246.153    21411255.735
       238.000         198.000
  20975154.560     2220885.10049   1743149.84947  20975153.893    20975162.890
       242.000         209.000
  23970619.681    -4199857.57349  -3253357.12945  23970619.725    23970634.235
       211.000         147.000
 99  4  3 18 45  0.0000000  0  8G26G 2G27G 5G 9G 4G 7G24
  23664157.137     5207092.25749   4068270.90245  23664157.904    23664168.527
       218.000         161.000
  22126536.355     4832105.66849   3767429.47047  22126536.118    22126546.177
       232.000         188.000
  24018951.199    17904059.79049  13949461.34045  24018951.816    24018968.208
       212.000         146.000
  24555894.288    -5504660.38749  -3996619.58145  24555893.089    24555905.356
       204.000         134.000
  21826169.439   -14102697.74149 -10973457.67847  21826168.868    21826177.657
       237.000         197.000
  21397023.102   -21265846.86349 -15286046.18047  21397023.159    21397032.360
       239.000         198.000
  20984708.144     2271089.44249   1782270.07747  20984707.529    20984716.340
       242.000         209.000
  23949897.472    -4308755.34649  -3338212.32745  23949897.201    23949911.283
       213.000         147.000
 99  4  3 18 45 30.0000000  0  8G26G 2G27G 5G 9G 4G 7G24
  23677000.066     5274581.91749   4120860.08145  23677001.463    23677012.267
       218.000         161.000
  22134931.578     4876223.08449   3801806.59847  22134930.726    22134942.151
       231.000         188.000
  24040869.257    18019239.57049  14039211.37145  24040870.272    24040885.760
       208.000         149.000
  24540468.410    -5585723.78549  -4059785.76144  24540465.619    24540478.165
       195.000         130.000
  21814069.040   -14166285.83049 -11023006.82947  21814068.854    21814077.471
       236.000         197.000
  21382879.379   -21340171.94149 -15343961.78747  21382879.281    21382889.158
       239.000         198.000
  20994297.062     2321479.49449   1821535.02347  20994296.841    20994305.203
       242.000         209.000
  23929180.977    -4417620.00649  -3423041.72545  23929178.934    23929194.647
       213.000         147.000
 99  4  3 18 46  0.0000000  0  8G26G 2G27G 5G 9G 4G 7G24
  23689881.188     5342272.02449   4173605.44145  23689881.057    23689892.044
       214.000         161.000
  22143365.895     4920546.53949   3836344.28847  22143365.417    22143376.580
       232.000         188.000
  24062810.369    18134538.75649  14129054.45745  24062810.883    24062828.187
       208.000         151.000
  24525040.560    -5666795.84149  -4122958.63945  24525040.548    24525053.263
       203.000         135.000
  21802049.862   -14229446.85349 -11072223.20147  21802049.305    21802057.995
       237.000         197.000
  21368818.404   -21414062.79649 -15401539.03747  21368818.355    21368827.991
       240.000         199.000
  21003921.746     2372057.25449   1860946.21847  21003921.288    21003930.152
       242.000         209.000
  23908471.624    -4526446.45949  -3507841.33945  23908470.740    23908485.323
       211.000         151.000
 99  4  3 18 46 30.0000000  0  8G26G 2G27G 5G 9G 4G 7G24
  23702801.146     5410166.68749   4226510.23845  23702801.962    23702812.933
       216.000         161.000
  22151842.532     4965090.53949   3871053.82947  22151842.259    22151851.939
       232.000         188.000
  24084776.315    18249968.98349  14218999.78345  24084777.396    24084792.218
       215.000         148.000
  24509613.653    -5747865.84549  -4186130.03145  24509612.778    24509622.578
       207.000         133.000
  21790114.829   -14292165.64549 -11121094.97347  21790114.388    21790123.262
       238.000         197.000
  21354845.445   -21487490.95349 -15458755.74147  21354845.478    21354854.770
       239.000         199.000
  21013583.936     2422832.33149   1900511.17447  21013583.449    21013592.184
       242.000         209.000
  23887769.993    -4635233.07349  -3592609.93745  23887769.082    23887784.638
       210.000         147.000
 99  4  3 18 47  0.0000000  0  8G26G 2G27G 5G 9G 4G 7G24
  23715760.303     5478267.84749   4279575.89645  23715760.311    23715772.256
       212.000         158.000
  22160364.154     5009870.73849   3905947.41547  22160363.500    22160374.362
       233.000         188.000
  24106770.953    18365548.95749  14309061.72345  24106769.121    24106786.641
       205.000         143.000
  24494185.984    -5828937.45949  -4249302.62945  24494184.769    24494196.459
       204.000         136.000
  21778264.150   -14354441.00349 -11169621.21947  21778264.161    21778272.474
       239.000         198.000
  21340959.292   -21560463.02749 -15515617.04847  21340959.661    21340968.789
       240.000         200.000
  21023287.058     2473822.49149   1940243.72247  21023286.771    21023295.342
       242.000         209.000
  23867075.782    -4743978.99649  -3677346.80745  23867075.997    23867089.867
       211.000         147.000
 99  4  3 18 47 30.0000000  0  8G26G 2G27G 5G 9G 4G 7G24
  23728754.829     5546554.22949   4332785.91545  23728754.305    23728766.588
       215.000         159.000
  22168926.751     5054867.52649   3941009.76347  22168926.322    22168937.094
       232.000         188.000
  24128789.192    18481254.72249  14399221.67645  24128789.657    24128806.258
       209.000         145.000
  24478750.004    -5910053.50249  -4312509.85945  24478748.605    24478761.940
       209.000         141.000
  21766490.346   -14416312.80149 -11217833.00047  21766490.052    21766498.457
       238.000         198.000
  21327149.860   -21633031.93049 -15572164.18947  21327150.201    21327159.179
       240.000         199.000
  21033029.633     2525019.62149   1980137.54847  21033029.097    21033037.642
       242.000         209.000
  23846385.284    -4852709.57349  -3762071.76945  23846384.052    23846399.415
       214.000         149.000
 99  4  3 18 48  0.0000000  0  8G26G 2G27G 5G 9G 4G 7G24
  23741784.004     5615023.11749   4386138.12645  23741784.305    23741796.585
       215.000         160.000
  22177532.401     5100089.75349   3976247.78247  22177532.254    22177542.911
       233.000         188.000
  24150831.145    18597083.78449  14489477.67745  24150830.068    24150847.577
       210.000         148.000
  24463305.318    -5991214.11149  -4375751.81745  24463304.497    24463316.094
       206.000         141.000
  21754790.726   -14477794.59649 -11265740.88647  21754790.532    21754798.636
       237.000         198.000
  21313415.613   -21705205.82049 -15628403.52547  21313415.360    21313425.004
       240.000         200.000
  21042813.524     2576434.43149   2020200.99847  21042812.764    21042821.690
       241.000         208.000
  23825702.161    -4961398.97949  -3846764.53245  23825700.381    23825716.514
       205.000         150.000
 99  4  3 18 48 30.0000000  0  8G26G 2G27G 5G 9G 4G 7G24
  23754841.909     5683641.63749   4439606.93445  23754842.515    23754854.212
       215.000         160.000
  22186176.609     5145514.95249   4011643.97247  22186176.620    22186187.057
       233.000         189.000
  24172889.765    18713000.30749  14579801.86345  24172890.026    24172903.732
       205.000         143.000
  24447846.984    -6072449.07249  -4439051.67245  24447846.238    24447856.926
       210.000         144.000
  21743159.353   -14538917.96249 -11313369.48147  21743159.094    21743167.234
       239.000         198.000
  21299751.069   -21777013.26349 -15684357.32047  21299750.789    21299760.566
       239.000         200.000
  21052634.854     2628045.94149   2060417.72347  21052634.444    21052643.084
       241.000         208.000
  23805021.432    -5070074.41649  -3931446.47745  23805021.237    23805033.926
       214.000         148.000
 99  4  3 18 49  0.0000000  0  8G26G 2G27G 5G 9G 4G 7G24
  23767926.743     5752402.95849   4493187.00545  23767927.766    23767939.474
       216.000         160.000
  22194855.801     5191123.78849   4047183.24647  22194855.311    22194865.838
       232.000         189.000
  24194962.810    18828993.46149  14670185.77145  24194961.317    24194978.459
       207.000         138.000
  24432372.893    -6153766.14849  -4502415.56945  24432372.540    24432383.525
       215.000         144.000
  21731597.805   -14599674.46549 -11360712.20847  21731597.598    21731605.940
       238.000         198.000
  21286155.523   -21848458.07849 -15740028.54347  21286155.591    21286164.936
       240.000         201.000
  21062492.992     2679850.84749   2100785.13947  21062492.250    21062501.134
       241.000         207.000
  23784343.879    -5178735.23049  -4016117.03445  23784342.632    23784357.159
       210.000         149.000
 99  4  3 18 49 30.0000000  0  8G26G 2G27G 5G 9G 4G 7G24
  23781049.685     5821363.42549   4546922.30345  23781049.892    23781061.816
       216.000         159.000
  22203579.636     5236967.38349   4082905.43647  22203579.302    22203590.214
       232.000         188.000
  24217057.551    18945103.80649  14760661.03845  24217057.580    24217074.122
       206.000         143.000
  24416893.852    -6235108.93649  -4565799.47045  24416892.037    24416904.308
       202.000         144.000
  21720119.148   -14659995.37549 -11407715.51547  21720118.785    21720126.941
       238.000         198.000
  21272644.980   -21919456.53649 -15795351.94947  21272645.054    21272654.769
       240.000         200.000
  21072398.071     2731901.78449   2141344.27147  21072397.393    21072406.381
       241.000         207.000
  23763682.249    -5287312.32149  -4100722.33245  23763681.206    23763695.012
       213.000         149.000
 99  4  3 18 50  0.0000000  0  8G26G 2G27G 5G 9G 4G 7G24
  23794211.611     5890529.68549   4600817.92045  23794212.459    23794224.620
       217.000         158.000
  22212347.629     5283043.45349   4118808.79247  22212346.642    22212357.775
       231.000         188.000
  24239174.172    19061328.14749  14851225.08545  24239172.730    24239191.480
       203.000         141.000
  24401411.965    -6316464.38749  -4629193.23045  24401411.504    24401424.060
       207.000         142.000
  21708727.483   -14719858.83049 -11454362.36947  21708727.121    21708735.553
       238.000         198.000
  21259227.502   -21989965.56049 -15850293.97947  21259227.213    21259236.859
       240.000         201.000
  21082347.187     2784184.83249   2182084.26947  21082346.725    21082355.561
       241.000         207.000
  23743038.102    -5395798.91849  -4185257.10645  23743036.838    23743050.529
       215.000         151.000
 99  4  3 18 50 30.0000000  0  8G26G 2G27G 5G 9G 4G 7G24
  23807417.424     5959925.58349   4654892.44045  23807417.868    23807430.124
       218.000         158.000
  22221160.859     5329356.91349   4154897.11046  22221160.211    22221171.290
       232.000         187.000
  24261315.221    19177679.78549  14941888.27345  24261315.641    24261332.926
       201.000         138.000
  24385929.617    -6397824.78749  -4692590.88145  24385928.753    24385940.494
       206.000         142.000
  21697426.371   -14779246.51749 -11500638.50047  21697426.144    21697434.204
       239.000         199.000
  21245908.678   -22059955.49349 -15904831.52547  21245908.813    21245918.177
       240.000         201.000
  21092339.967     2836696.87849   2223002.70847  21092339.527    21092348.254
       241.000         207.000
  23722408.974    -5504202.22449  -4269727.03145  23722406.680    23722421.674
       209.000         149.000
 99  4  3 18 51  0.0000000  0  8G26G 2G27G 5G 9G 4G 7G24
  23820664.952     6029542.17949   4709138.98545  23820665.007    23820677.164
       213.000         158.000
  22230020.056     5375912.56149   4191174.14446  22230019.108    22230029.888
       230.000         185.000
  24283481.713    19294161.56149  15032652.94545  24283482.595    24283498.426
       211.000         138.000
  24370446.922    -6479186.14749  -4755989.24945  24370446.421    24370458.511
       210.000         143.000
  21686215.659   -14838159.16249 -11546544.46647  21686215.256    21686223.715
       238.000         199.000
  21232688.493   -22129427.90849 -15958965.80747  21232688.506    21232698.070
       241.000         201.000
  21102372.720     2889419.68849   2264085.37547  21102372.142    21102380.924
       242.000         207.000
  23701796.322    -5612519.20449  -4354129.67245  23701794.659    23701810.428
       214.000         151.000
 99  4  3 18 51 30.0000000  0  8G26G 2G27G 5G 9G 4G 7G24
  23833957.201     6099392.49149   4763567.63345  23833957.325    23833970.038
       213.000         158.000
  22238932.800     5422749.01749   4227670.00346  22238932.208    22238943.480
       230.000         186.000
  24305677.588    19410797.89249  15123538.06845  24305677.879    24305694.860
       204.000         141.000
  24354970.389    -6560515.36649  -4819362.60245  24354970.924    24354981.295
       208.000         144.000
  21675098.003   -14896582.61249 -11592069.24547  21675097.812    21675106.256
       238.000         199.000
  21219569.854   -22198366.54049 -16012684.15147  21219569.468    21219579.127
       240.000         201.000
  21112448.653     2942368.57849   2305344.19947  21112448.106    21112456.882
       242.000         207.000
  23681205.810    -5720722.11549  -4438443.40045  23681205.513    23681220.508
       215.000         153.000
 99  4  3 18 52  0.0000000  0  8G26G 2G27G 5G 9G 4G 7G24
  23847286.320     6169436.84349   4818147.46845  23847286.937    23847298.210
       217.000         157.000
  22247893.630     5469838.52549   4264363.02846  22247893.454    22247903.736
       232.000         185.000
  24327901.444    19527583.25149  15214539.19345  24327902.034    24327918.932
       202.000         141.000
  24339497.616    -6641826.98649  -4882722.25545  24339497.916    24339506.726
       211.000         139.000
  21664067.461   -14954548.34449 -11637237.36447  21664067.548    21664075.516
       239.000         199.000
  21206544.715   -22266813.66349 -16066019.50347  21206544.775    21206554.161
       241.000         202.000
  21122562.170     2995515.26349   2346757.14847  21122561.575    21122570.734
       241.000         207.000
  23660632.857    -5828832.78149  -4522685.32945  23660632.075    23660647.923
       211.000         154.000
 99  4  3 18 52 30.0000000  0  8G26G 2G27G 5G 9G 4G 7G24
  23860641.052     6239614.50949   4872831.19045  23860641.881    23860654.109
       218.000         159.000
  22256896.105     5517146.96749   4301226.67046  22256896.101    22256906.242
       232.000         185.000
  24350145.666    19644478.32049  15305625.86945  24350145.855    24350161.997
       205.000         136.000
  24324021.255    -6723155.66249  -4946095.12345  24324020.201    24324032.329
       211.000         145.000
  21653115.926   -15012099.44749 -11682082.39647  21653115.890    21653123.981
       239.000         200.000
  21193601.797   -22334829.25149 -16119018.59647  21193601.865    21193611.093
       240.000         202.000
  21132708.117     3048832.37749   2388302.90047  21132707.511    21132716.616
       240.000         207.000
  23640071.736    -5936880.86149  -4606878.42845  23640072.099    23640085.063
       217.000         154.000
 99  4  3 18 53  0.0000000  0  7G26G 2G 5G 9G 4G 7G24
  23874011.681     6309876.32449   4927580.47245  23874012.805    23874025.190
       217.000         159.000
  22265934.632     5564643.85049   4338237.12346  22265933.705    22265944.851
       231.000         186.000
  24308539.307    -6804513.44949  -5009490.71145  24308538.859    24308549.613
       201.000         145.000
  21642240.075   -15069252.74449 -11726617.45547  21642240.049    21642248.307
       239.000         200.000
  21180733.950   -22402450.33849 -16171710.28547  21180734.053    21180743.334
       240.000         202.000
  21142883.429     3102303.90649   2429968.97147  21142883.007    21142891.732
       242.000         206.000
  23619520.717    -6044877.98549  -4691031.84745  23619521.715    23619534.487
       218.000         156.000
 99  4  3 18 53 30.0000000  0  7G26G 2G 5G 9G 4G 7G24
  23887401.891     6380240.86249   4982409.79845  23887402.405    23887413.506
       217.000         159.000
  22275012.950     5612350.45349   4375411.00746  22275012.830    22275023.526
       232.000         186.000
  24293056.092    -6885877.55449  -5072891.23845  24293055.268    24293067.516
       209.000         142.000
  21631445.854   -15125976.41649 -11770817.73047  21631445.722    21631454.298
       239.000         200.000
  21167947.343   -22469644.30949 -16224069.16447  21167947.395    21167956.442
       240.000         202.000
  21153095.679     3155969.34849   2471786.14947  21153095.467    21153104.279
       240.000         207.000
  23598986.116    -6152790.75649  -4775119.54845  23598985.872    23598998.735
       216.000         158.000
 99  4  3 18 54  0.0000000  0  7G26G 2G 5G 9G 4G 7G24
  23900808.250     6450691.74349   5037306.41745  23900808.764    23900820.122
       217.000         157.000
  22284128.561     5660252.58849   4412737.24646  22284128.139    22284139.451
       232.000         186.000
  24277568.468    -6967266.29949  -5136310.97145  24277567.720    24277579.114
       213.000         148.000
  21620733.040   -15182272.55149 -11814684.86047  21620732.938    21620741.207
       240.000         200.000
  21155242.589   -22536407.94349 -16276092.70847  21155242.400    21155251.964
       240.000         203.000
  21163343.255     3209820.78149   2513748.24847  21163342.523    21163351.558
       240.000         206.000
  23578463.994    -6260633.05549  -4859152.33745  23578464.209    23578477.582
       216.000         156.000
 99  4  3 18 54 30.0000000  0  7G26G 2G 5G 9G 4G 7G24
  23914236.167     6521255.26349   5092290.80345  23914237.038    23914248.598
       215.000         158.000
  22293289.054     5708390.56549   4450247.26346  22293289.407    22293299.552
       231.000         186.000
  24262079.486    -7048661.11049  -5199735.42545  24262078.583    24262089.747
       208.000         147.000
  21610108.292   -15238106.05349 -11858191.49547  21610108.293    21610116.475
       239.000         200.000
  21142627.945   -22602697.86749 -16327747.13147  21142627.883    21142637.469
       240.000         203.000
  21173631.288     3263884.64049   2555875.86947  21173630.920    21173639.951
       241.000         206.000
  23557960.270    -6368380.17249  -4943111.00345  23557959.694    23557973.652
       215.000         155.000
 99  4  3 18 55  0.0000000  0  7G26G 2G 5G 9G 4G 7G24
  23927689.875     6591954.22749   5147380.72245  23927690.555    23927702.267
       218.000         155.000
  22302494.404     5756763.67449   4487940.50546  22302493.815    22302504.886
       231.000         185.000
  24246587.583    -7130071.59649  -5263172.09245  24246586.627    24246599.103
       209.000         146.000
  21599570.370   -15293483.53849 -11901342.80247  21599570.049    21599578.899
       239.000         200.000
  21130105.287   -22668504.89649 -16379025.27647  21130105.342    21130114.263
       240.000         202.000
  21183959.703     3318160.14549   2598168.40347  21183959.130    21183968.315
       241.000         205.000
  23537475.532    -6476026.49249  -5026991.12545  23537473.166    23537489.558
       210.000         156.000
 99  4  3 18 55 30.0000000  0  7G26G 2G 5G 9G 4G 7G24
  23941173.997     6662813.31749   5202595.39845  23941175.489    23941187.273
       216.000         155.000
  22311747.351     5805387.93449   4525829.43646  22311746.969    22311757.888
       229.000         186.000
  24231090.794    -7211506.79349  -5326628.00945  24231090.535    24231101.189
       209.000         148.000
  21589120.182   -15348399.46849 -11944134.44047  21589119.943    21589128.453
       238.000         200.000
  21117676.181   -22733819.78449 -16429919.93147  21117676.427    21117685.184
       241.000         203.000
  21194329.124     3372651.37749   2640629.03947  21194329.041    21194337.691
       241.000         206.000
  23517013.542    -6583552.07649  -5110777.16245  23517012.571    23517027.178
       213.000         155.000
 99  4  3 18 56  0.0000000  0  7G26G 2G 5G 9G 4G 7G24
  23954691.119     6733844.98849   5257944.57445  23954691.272    23954703.867
       214.000         156.000
  22321045.660     5854251.40849   4563904.77746  22321045.272    22321056.455
       231.000         185.000
  24215589.235    -7292969.73249  -5390105.54745  24215589.136    24215599.023
       211.000         151.000
  21578755.295   -15402867.13649 -11986576.78647  21578754.949    21578763.378
       239.000         201.000
  21105340.566   -22798644.00749 -16480432.24447  21105340.237    21105349.530
       241.000         203.000
  21204737.258     3427345.80049   2683248.00847  21204736.786    21204745.668
       241.000         205.000
  23496573.956    -6690960.59649  -5194471.96845  23496572.361    23496587.991
       214.000         155.000
 99  4  3 18 56 30.0000000  0  7G26G 2G 5G 9G 4G 7G24
  23968244.367     6805067.55649   5313442.51645  23968245.249    23968256.815
       219.000         157.000
  22330389.442     5903353.57349   4602166.10246  22330389.173    22330400.204
       230.000         184.000
  24200084.165    -7374449.54849  -5453596.24645  24200083.181    24200094.839
       206.000         148.000
  21568475.547   -15456887.29349 -12028670.43047  21568475.575    21568484.324
       241.000         202.000
  21093096.996   -22862983.44949 -16530566.80947  21093096.833    21093106.308
       241.000         203.000
  21215183.681     3482242.06149   2726024.26147  21215182.994    21215192.338
       240.000         205.000
  23476158.957    -6798240.21749  -5278066.46045  23476157.394    23476173.513
       207.000         153.000
 99  4  3 18 57  0.0000000  0  8G26G 2G 5G 9G 4G 7G24G 8
  23981816.112     6876386.64849   5369015.66445  23981815.595    23981829.313
       217.000         156.000
  22339759.791     5952594.80849   4640535.81346  22339759.696    22339770.177
       230.000         184.000
  24184558.067    -7456039.42349  -5517172.66645  24184557.349    24184568.151
       209.000         147.000
  21558263.359   -15510553.25049 -12070488.07447  21558263.145    21558271.715
       242.000         202.000
  21080926.965   -22926936.93649 -16580400.62847  21080926.938    21080936.235
       241.000         203.000
  21225649.129     3537238.43549   2768878.52547  21225648.719    21225657.560
       240.000         205.000
  23455749.793    -6905488.19049  -5361636.18345  23455750.462    23455764.358
       214.000         157.000
  24220770.477    -1966795.43159  -1501411.23344  24220768.951    24220779.121
       202.000         128.000
 99  4  3 18 57 30.0000000  0  8G26G 2G 5G 9G 4G 7G24G 8
  23995409.662     6947820.32449   5424678.06945  23995410.433    23995422.857
       212.000         154.000
  22349166.579     6002027.51149   4679054.70646  22349165.475    22349176.867
       226.000         183.000
  24169021.044    -7537685.73049  -5580793.07845  24169018.627    24169031.445
       202.000         143.000
  21548129.875   -15563805.39249 -12111983.26047  21548129.500    21548137.924
       240.000         202.000
  21068839.915   -22990454.69149 -16629894.92447  21068840.145    21068849.566
       241.000         204.000
  21236139.600     3592365.79049   2811834.85047  21236138.637    21236147.969
       240.000         205.000
  23435352.871    -7012676.24949  -5445159.27345  23435354.052    23435368.300
       219.000         158.000
  24200308.284    -2074323.86649  -1585199.55644  24200307.066    24200315.953
       208.000         129.000
 99  4  3 18 58  0.0000000  0  8G26G 2G 5G 9G 4G 7G24G 8
  24009038.008     7019436.92249   5480482.98345  24009039.598    24009049.330
       215.000         152.000
  22358626.393     6051739.66149   4717791.35346  22358625.666    22358637.103
       227.000         182.000
  24153490.057    -7619300.21649  -5644388.69145  24153490.576    24153499.976
       206.000         143.000
  21538090.420   -15616563.08749 -12153093.16447  21538090.021    21538098.944
       241.000         202.000
  21056854.182   -23053439.90049 -16678974.25847  21056854.023    21056863.300
       240.000         204.000
  21246668.393     3647694.70949   2854948.23247  21246667.738    21246677.086
       240.000         205.000
  23414980.636    -7119736.01649  -5528582.39945  23414980.936    23414993.741
       218.000         158.000
  24179888.459    -2181630.50649  -1668815.02645  24179886.253    24179899.263
       201.000         134.000
 99  4  3 18 58 30.0000000  0  8G26G 2G 5G 9G 4G 7G24G 8
  24022689.983     7091178.09149   5536385.01245  24022690.827    24022703.956
       210.000         151.000
  22368135.605     6101711.33849   4756730.24046  22368134.663    22368146.660
       228.000         181.000
  24137957.045    -7700927.10849  -5707994.00345  24137955.211    24137966.382
       200.000         142.000
  21528140.906   -15668848.29749 -12193834.89747  21528140.508    21528149.270
       242.000         203.000
  21044962.049   -23115933.09749 -16727670.19647  21044961.856    21044971.422
       242.000         204.000
  21257229.798     3703195.12749   2898195.26947  21257228.977    21257238.121
       240.000         204.000
  23394625.604    -7226705.16449  -5611934.92045  23394626.437    23394639.963
       220.000         159.000
  24159500.922    -2288765.33649  -1752296.72945  24159499.676    24159509.403
       207.000         133.000
 99  4  3 18 59  0.0000000  0  8G26G 2G 5G 9G 4G 7G24G 8
  24036363.870     7163035.54649   5592377.64945  24036365.590    24036377.361
       212.000         149.000
  22377694.955     6151946.62249   4795874.52546  22377694.954    22377706.170
       227.000         181.000
  24122420.434    -7782570.07149  -5771611.78045  24122419.457    24122430.115
       209.000         138.000
  21518283.302   -15720650.51149 -12234200.26847  21518282.943    21518291.388
       241.000         203.000
  21033165.397   -23177924.93749 -16775975.47247  21033165.143    21033174.432
       241.000         204.000
  21267825.199     3758874.76349   2941581.94747  21267824.871    21267833.620
       239.000         204.000
  23374287.789    -7333582.57349  -5695215.93945  23374288.667    23374300.642
       220.000         160.000
  24139143.581    -2395742.39149  -1835655.40545  24139142.629    24139150.943
       208.000         134.000
 99  4  3 18 59 30.0000000  0  8G26G 2G 5G 9G 4G 7G24G 8
  24050063.305     7235026.03049   5648473.94245  24050064.247    24050076.433
       213.000         153.000
  22387305.908     6202451.55849   4835228.91946  22387306.690    22387317.293
       229.000         181.000
  24106884.113    -7864213.22049  -5835229.69945  24106883.132    24106894.097
       211.000         141.000
  21508519.358   -15771960.27549 -12274181.91947  21508519.092    21508527.292
       241.000         203.000
  21021468.209   -23239394.00749 -16823873.39847  21021468.290    21021477.321
       241.000         204.000
  21278459.104     3814756.31149   2985125.95547  21278458.959    21278467.739
       239.000         203.000
  23353971.546    -7440344.67249  -5778407.09045  23353970.503    23353984.774
       218.000         160.000
  24118813.560    -2502576.98949  -1918903.02545  24118810.855    24118823.128
       203.000         132.000
 99  4  3 19  0  0.0000000  0  8G26G 2G 5G 9G 4G 7G24G 8
  24063788.526     7307152.29849   5704676.03545  24063789.795    24063801.662
       212.000         149.000
  22396965.725     6253213.03349   4874783.22546  22396966.213    22396976.658
       230.000         182.000
  24091347.244    -7945860.75449  -5898851.11145  24091346.928    24091357.500
       208.000         144.000
  21498848.579   -15822780.35449 -12313781.98447  21498848.687    21498856.888
       241.000         203.000
  21009870.650   -23300339.36949 -16871363.25347  21009871.059    21009879.830
       242.000         205.000
  21289134.569     3870856.34549   3028840.21947  21289134.239    21289143.708
       239.000         203.000
  23333679.893    -7546976.21849  -5861496.54545  23333680.069    23333693.087
       219.000         158.000
  24098509.895    -2609273.32649  -2002043.12145  24098508.939    24098520.931
       199.000         132.000
 99  4  3 19  0 30.0000000  0  8G26G 2G 5G 9G 4G 7G24G 8
  24077540.153     7379416.13149   5760985.32645  24077541.365    24077554.560
       213.000         147.000
  22406672.557     6304221.90649   4914530.32246  22406672.413    22406682.978
       230.000         182.000
  24075811.293    -8027503.38649  -5962468.60945  24075810.453    24075821.039
       215.000         149.000
  21489272.216   -15873104.56849 -12352995.65847  21489272.027    21489280.907
       241.000         203.000
  20998372.186   -23360764.24749 -16918447.52747  20998372.159    20998381.150
       241.000         205.000
  21299855.221     3927193.79249   3072739.48547  21299854.877    21299863.883
       238.000         203.000
  23313415.940    -7653463.24849  -5944473.33845  23313415.029    23313428.625
       219.000         161.000
  24078236.376    -2715810.37249  -2085058.88045  24078235.025    24078245.598
       210.000         135.000
 99  4  3 19  1  0.0000000  0  8G26G 2G 5G 9G 4G 7G24G 8
  24091318.478     7451820.15849   5817403.84145  24091319.586    24091332.653
       214.000         149.000
  22416424.863     6355468.74149   4954462.83046  22416424.512    22416435.104
       228.000         183.000
  24060278.511    -8109128.24249  -6026072.33345  24060277.816    24060288.103
       212.000         151.000
  21479790.009   -15922933.84349 -12391823.66547  21479789.711    21479798.435
       242.000         204.000
  20986974.299   -23420660.01949 -16965119.52147  20986974.470    20986983.195
       241.000         205.000
  21310619.131     3983757.86149   3116815.34447  21310618.806    21310628.052
       239.000         203.000
  23293180.182    -7759802.07149  -6027334.64545  23293179.727    23293192.768
       217.000         160.000
  24057998.674    -2822160.69849  -2167929.24545  24057998.674    24058009.588
       208.000         141.000
 99  4  3 19  1 30.0000000  0  8G26G 2G 5G 9G 4G 7G24G 8
  24105119.124     7524341.56049   5873913.83145  24105119.753    24105132.652
       207.000         149.000
  22426220.949     6406947.18549   4994575.81146  22426221.010    22426231.099
       230.000         182.000
  24044748.150    -8190741.03649  -6089666.61045  24044747.428    24044758.245
       212.000         151.000
  21470399.031   -15972283.94649 -12430278.29147  21470398.922    21470407.034
       242.000         204.000
  20975675.546   -23480035.21449 -17011385.86547  20975675.502    20975684.650
       241.000         205.000
  21321422.562     4040529.79749   3161053.17447  21321421.947    21321431.037
       239.000         203.000
  23272971.889    -7865996.52949  -6110083.42245  23272971.407    23272984.732
       221.000         162.000
  24037801.189    -2928299.49749  -2250634.76445  24037801.057    24037810.069
       211.000         142.000
 99  4  3 19  2  0.0000000  0  8G26G 2G 5G 9G 4G 7G24G 8
  24118935.323     7596945.67649   5930488.27445  24118935.448    24118949.097
       213.000         149.000
  22436057.638     6458638.96749   5034855.03246  22436057.501    22436068.212
       228.000         181.000
  24029215.656    -8272363.54849  -6153268.49445  24029214.491    24029224.153
       208.000         149.000
  21461095.547   -16021174.02849 -12468374.46147  21461095.373    21461103.679
       242.000         204.000
  20964470.222   -23538919.54949 -17057269.73747  20964470.459    20964478.925
       242.000         205.000
  21332257.677     4097468.51749   3205420.96547  21332257.166    21332266.183
       239.000         203.000
  23252786.606    -7972071.63149  -6192739.19046  23252786.321    23252800.217
       222.000         163.000
  24017645.528    -3034218.80249  -2333169.22445  24017644.511    24017655.694
       206.000         142.000
 99  4  3 19  2 30.0000000  0  8G26G 2G 5G 9G 4G 7G24G 8
  24132767.510     7669633.19549   5987127.68845  24132768.682    24132781.240
       213.000         153.000
  22445938.079     6510560.44849   5075313.24946  22445936.891    22445948.653
       226.000         181.000
  24013683.404    -8353985.22849  -6216869.70945  24013682.783    24013694.562
       213.000         151.000
  21451880.052   -16069601.97649 -12506110.52447  21451879.873    21451888.277
       242.000         205.000
  20953359.329   -23597307.57849 -17102766.86747  20953359.161    20953368.330
       240.000         205.000
  21343118.840     4154544.38249   3249895.63447  21343118.407    21343127.373
       238.000         203.000
  23232624.731    -8078024.78149  -6275299.89246  23232622.460    23232636.875
       218.000         164.000
  23997530.891    -3139921.56749  -2415534.97245  23997530.086    23997539.203
       212.000         143.000
 99  4  3 19  3  0.0000000  0  8G26G 2G 5G 9G 4G 7G24G 8
  24146615.688     7742404.26449   6043832.17345  24146616.335    24146629.100
       214.000         152.000
  22455865.419     6562729.11349   5115964.03546  22455864.219    22455876.103
       225.000         180.000
  23998151.918    -8435604.20549  -6280468.84945  23998151.435    23998162.646
       218.000         156.000
  21442754.002   -16117559.74749 -12543480.21347  21442753.860    21442762.312
       242.000         204.000
  20942344.365   -23655191.27349 -17147871.01047  20942344.277    20942353.583
       242.000         205.000
  21354001.075     4211731.16249   3294456.73347  21354000.513    21354009.771
       240.000         202.000
  23212485.482    -8183855.58249  -6357765.26146  23212485.011    23212498.121
       219.000         164.000
  23977456.455    -3245413.12449  -2497736.13945  23977455.653    23977465.203
       209.000         147.000
 99  4  3 19  3 30.0000000  0  8G26G 2G 5G 9G 4G 7G24G 8
  24160470.681     7815212.52549   6100565.68845  24160470.524    24160483.591
       215.000         152.000
  22465833.159     6615110.78649   5156780.81246  22465832.768    22465843.897
       226.000         179.000
  23982611.404    -8517269.43949  -6344104.04345  23982610.944    23982622.052
       214.000         158.000
  21433708.178   -16165095.78549 -12580521.27447  21433708.043    21433716.168
       241.000         204.000
  20931417.407   -23712612.50349 -17192614.80147  20931417.141    20931426.659
       240.000         205.000
  21364894.246     4268974.98749   3339062.26447  21364894.102    21364903.215
       240.000         202.000
  23192363.163    -8289597.23349  -6440161.10746  23192361.562    23192376.015
       219.000         163.000
  23957410.696    -3350753.64249  -2579819.59045  23957409.760    23957419.670
       208.000         145.000
 99  4  3 19  4  0.0000000  0  8G26G 2G 5G 9G 4G 7G24G 8
  24174343.864     7888115.30949   6157372.81245  24174344.619    24174357.183
       211.000         152.000
  22475850.540     6667751.91249   5197799.77046  22475850.902    22475861.664
       227.000         180.000
  23967071.380    -8598933.00749  -6407737.92945  23967071.112    23967081.052
       211.000         153.000
  21424753.571   -16212152.43949 -12617188.78847  21424753.302    21424761.778
       242.000         204.000
  20920589.491   -23769513.18049 -17236952.97047  20920590.047    20920598.480
       241.000         205.000
  21375808.308     4326328.29749   3383753.12747  21375807.596    21375817.174
       240.000         202.000
  23172268.323    -8395194.41049  -6522444.37546  23172268.093    23172281.353
       219.000         163.000
  23937398.640    -3455917.50649  -2661765.45645  23937398.824    23937408.506
       210.000         142.000
 99  4  3 19  4 30.0000000  0  8G26G 2G 5G 9G 4G 7G24G 8
  24188239.656     7961137.04749   6214272.67345  24188240.270    24188253.122
       215.000         153.000
  22485919.198     6720661.66849   5239028.04046  22485919.372    22485929.778
       229.000         181.000
  23951534.855    -8680577.16449  -6471356.64145  23951533.918    23951545.076
       213.000         153.000
  21415894.241   -16258708.49749 -12653466.23047  21415893.955    21415902.330
       242.000         205.000
  20909864.252   -23825875.05249 -17280871.28447  20909864.702    20909873.167
       242.000         206.000
  21386749.296     4383823.56449   3428554.59447  21386748.732    21386758.535
       239.000         202.000
  23152206.852    -8500616.49249  -6604591.20546  23152206.131    23152219.217
       219.000         164.000
  23917422.970    -3560891.36049  -2743563.19245  23917422.963    23917431.299
       214.000         144.000
 99  4  3 19  5  0.0000000  0  8G26G 2G 5G 9G 4G 7G24G 8
  24202149.456     8034233.03949   6271230.36545  24202150.250    24202162.208
       215.000         153.000
  22496026.876     6773776.19749   5280415.86546  22496027.085    22496037.300
       230.000         182.000
  23935991.158    -8762259.00349  -6535004.78345  23935990.489    23936001.608
       212.000         154.000
  21407120.534   -16304814.27349 -12689392.80047  21407120.649    21407128.993
       243.000         205.000
  20899232.656   -23881744.64749 -17324406.00147  20899232.353    20899241.611
       241.000         206.000
  21397714.189     4441443.93749   3473453.54647  21397713.611    21397723.183
       240.000         202.000
  23132171.357    -8605902.83449  -6686632.26046  23132170.761    23132185.110
       218.000         163.000
  23897477.091    -3665707.35249  -2825237.95345  23897476.991    23897486.391
       210.000         144.000
 99  4  3 19  5 30.0000000  0  8G26G 2G 5G 9G 4G 7G24G 8
  24216069.285     8107381.31149   6328228.77245  24216069.344    24216083.486
       214.000         156.000
  22506165.236     6827052.76349   5321929.98046  22506164.746    22506176.490
       228.000         182.000
  23920434.295    -8844011.14549  -6598707.69845  23920434.018    23920445.062
       216.000         155.000
  21398427.010   -16350499.13949 -12724991.39547  21398426.787    21398435.132
       241.000         205.000
  20888689.968   -23937146.16649 -17367575.98947  20888690.031    20888699.157
       241.000         206.000
  21408704.555     4499197.79849   3518456.51847  21408704.332    21408713.342
       240.000         202.000
  23112158.465    -8711069.84349  -6768580.31545  23112156.947    23112170.965
       216.000         161.000
  23877557.085    -3770386.69449  -2906806.26845  23877555.812    23877566.379
       208.000         144.000
 99  4  3 19  6  0.0000000  0  8G26G 2G 5G 9G 4G 7G24G 8
  24230014.621     8180664.14849   6385332.08245  24230015.299    24230028.615
       218.000         154.000
  22516345.767     6880551.56749   5363617.23346  22516345.458    22516357.821
       228.000         182.000
  23904878.041    -8925760.38249  -6662408.34345  23904876.289    23904889.364
       212.000         153.000
  21389831.333   -16395669.48249 -12760189.05447  21389831.288    21389839.544
       241.000         205.000
  20878249.641   -23992010.33549 -17410327.26147  20878249.429    20878259.055
       241.000         206.000
  21419737.636     4557177.10949   3563635.16247  21419736.995    21419746.404
       239.000         201.000
  23092179.922    -8816056.19049  -6850387.59846  23092178.687    23092192.790
       217.000         164.000
  23857679.052    -3874844.29949  -2988201.72245  23857678.613    23857689.273
       215.000         146.000
 99  4  3 19  6 30.0000000  0  8G26G 2G 5G 9G 4G 7G24G 8
  24243992.368     8254115.92749   6442567.00045  24243993.093    24244005.342
       215.000         155.000
  22526578.178     6934323.23049   5405517.11746  22526576.296    22526589.296
       223.000         180.000
  23889329.326    -9007468.42649  -6726076.87945  23889328.752    23889339.755
       212.000         154.000
  21381340.546   -16440289.19949 -12794957.66147  21381340.236    21381348.469
       242.000         205.000
  20867919.543   -24046295.25449 -17452627.16847  20867919.900    20867928.526
       242.000         207.000
  21430821.033     4615421.30049   3609020.20247  21430820.472    21430829.951
       239.000         201.000
  23072241.220    -8920834.35249  -6932032.66246  23072239.791    23072254.545
       219.000         164.000
  23837852.796    -3979032.67949  -3069387.45645  23837852.798    23837862.229
       210.000         146.000
 99  4  3 19  7  0.0000000  0  8G26G 2G 5G 9G 4G 7G24G 8
  24257989.717     8327672.95549   6499883.95345  24257989.923    24258003.331
       212.000         153.000
  22536856.345     6988336.89149   5447605.56246  22536855.849    22536867.704
       224.000         178.000
  23873776.731    -9089198.08649  -6789762.24645  23873776.808    23873786.872
       213.000         154.000
  21372945.896   -16484402.95749 -12829332.01647  21372945.568    21372954.241
       242.000         205.000
  20857691.069   -24100046.80349 -17494511.45847  20857691.371    20857699.725
       242.000         207.000
  21441943.789     4673872.18849   3654566.31147  21441943.371    21441952.373
       239.000         200.000
  23052328.297    -9025477.16649  -7013572.28346  23052326.796    23052340.719
       217.000         164.000
  23818066.346    -4083011.12749  -3150409.63045  23818065.596    23818075.642
       215.000         144.000
 99  4  3 19  7 30.0000000  0  8G26G 2G 5G 9G 4G 7G24G 8
  24271998.792     8401289.66649   6557247.42045  24271998.625    24272012.527
       214.000         154.000
  22547177.195     7042573.81849   5489867.97946  22547177.314    22547189.070
       225.000         178.000
  23858213.505    -9170983.13659  -6853490.78445  23858212.633    23858224.041
       211.000         153.000
  21364643.510   -16528032.61449 -12863329.14747  21364643.235    21364651.841
       242.000         206.000
  20847557.470   -24153299.01549 -17536006.65347  20847557.246    20847566.252
       242.000         207.000
  21453095.294     4732473.62149   3700229.72847  21453094.512    21453104.406
       238.000         200.000
  23032431.272    -9130034.49849  -7095045.30346  23032430.770    23032444.671
       217.000         164.000
  23798311.148    -4186825.26259  -3231303.75545  23798310.562    23798324.021
       206.000         142.000
 99  4  3 19  8  0.0000000  0  8G26G 2G 5G 9G 4G 7G24G 8
  24286028.681     8475016.87059   6614697.07645  24286029.512    24286042.567
       214.000         156.000
  22557555.291     7097110.36949   5532363.87746  22557555.319    22557566.762
       226.000         178.000
  23842653.781    -9252749.36549  -6917204.65845  23842653.614    23842662.358
       216.000         152.000
  21356447.361   -16571103.27249 -12896890.70047  21356447.419    21356455.512
       241.000         206.000
  20837531.752   -24205984.04649 -17577059.88347  20837531.647    20837540.890
       242.000         207.000
  21464282.479     4791262.08649   3746038.85847  21464281.867    21464291.610
       238.000         200.000
  23012564.013    -9234434.93149  -7176396.06746  23012564.093    23012577.712
       221.000         164.000
  23778597.895    -4290418.43959  -3312026.00145  23778597.769    23778605.081
       214.000         143.000
 99  4  3 19  8 30.0000000  0  8G26G 2G 5G 9G 4G 7G24G 8
  24300076.480     8548837.38949   6672219.31845  24300077.546    24300091.646
       210.000         155.000
  22567992.948     7151959.88849   5575103.61146  22567991.724    22568004.434
       223.000         178.000
  23827100.461    -9334483.23149  -6980893.28745  23827100.592    23827110.055
       215.000         155.000
  21348355.624   -16613625.81849 -12930025.14747  21348355.481    21348363.733
       242.000         205.000
  20827616.479   -24258089.54749 -17617661.54147  20827616.461    20827625.675
       242.000         207.000
  21475503.596     4850229.34149   3791987.31047  21475503.099    21475512.451
       239.000         200.000
  22992733.268    -9338646.84549  -7257599.96446  22992733.991    22992746.826
       224.000         165.000
  23758928.925    -4393779.73849  -3392567.21145  23758927.936    23758937.886
       209.000         149.000
 99  4  3 19  9  0.0000000  0  8G26G 2G 5G 9G 4G 7G24G 8
  24314132.462     8622700.10349   6729774.39145  24314132.536    24314146.361
       215.000         155.000
  22578481.013     7207075.13449   5618050.44046  22578480.983    22578492.688
       225.000         177.000
  23811545.574    -9416224.33249  -7044587.57145  23811545.500    23811556.898
       210.000         154.000
  21340361.843   -16655633.39649 -12962758.33047  21340361.485    21340370.279
       241.000         206.000
  20817802.897   -24309659.77849 -17657846.09447  20817802.815    20817812.100
       241.000         207.000
  21486749.210     4909325.30749   3838036.07047  21486748.643    21486758.155
       237.000         200.000
  22972936.935    -9442677.22749  -7338662.40946  22972936.927    22972949.632
       223.000         166.000
  23739295.932    -4496950.74949  -3472960.19645  23739295.158    23739305.831
       214.000         148.000
 99  4  3 19  9 30.0000000  0  8G26G 2G 5G 9G 4G 7G24G 8
  24328199.330     8696620.96949   6787374.81245  24328199.488    24328212.772
       211.000         156.000
  22589019.950     7262456.68549   5661204.75146  22589020.007    22589031.669
       225.000         177.000
  23795997.235    -9497931.13349  -7108255.14445  23795996.135    23796006.530
       212.000         153.000
  21332469.363   -16697108.42549 -12995076.53047  21332469.359    21332477.800
       241.000         206.000
  20808094.516   -24360677.14849 -17697599.85647  20808094.366    20808103.681
       240.000         207.000
  21498022.899     4968568.98849   3884199.91547  21498022.429    21498031.936
       238.000         200.000
  22953186.535    -9546466.22849  -7419536.76746  22953186.270    22953199.474
       223.000         167.000
  23719705.829    -4599896.21349  -3553177.40445  23719704.680    23719714.809
       212.000         148.000
 99  4  3 19 10  0.0000000  0  8G26G 2G 5G 9G 4G 7G24G 8
  24342270.709     8770565.96049   6844994.02145  24342270.517    24342283.545
       214.000         152.000
  22599603.348     7318070.71049   5704540.22546  22599603.670    22599614.302
       227.000         178.000
  23780451.490    -9579623.82949  -7171911.72445  23780450.966    23780460.863
       211.000         150.000
  21324671.914   -16738083.92249 -13027005.49747  21324671.847    21324680.458
       241.000         206.000
  20798485.105   -24411174.55949 -17736948.45347  20798485.208    20798494.312
       242.000         207.000
  21509320.986     5027940.46649   3930463.34347  21509320.827    21509330.322
       238.000         200.000
  22933479.982    -9650024.39049  -7500231.28346  22933479.772    22933493.003
       222.000         167.000
  23700157.044    -4702625.44949  -3633226.11745  23700155.784    23700165.317
       212.000         152.000
 99  4  3 19 10 30.0000000  0  8G26G 2G 5G 9G 4G 7G24G 8
  24356339.852     8844498.20149   6902603.31045  24356339.777    24356354.401
       213.000         151.000
  22610224.541     7373884.69049   5748031.52546  22610224.357    22610235.544
       226.000         178.000
  23764900.783    -9661342.89449  -7235588.86345  23764901.421    23764909.966
       210.000         148.000
  21316962.168   -16778599.09349 -13058575.75547  21316962.024    21316970.490
       242.000         206.000
  20788968.559   -24461184.41249 -17775917.13347  20788968.986    20788977.673
       242.000         208.000
  21520639.463     5087419.14049   3976810.30047  21520639.102    21520648.675
       237.000         199.000
  22913809.507    -9753393.92749  -7580778.80146  22913808.770    22913820.636
       222.000         167.000
  23680645.333    -4805159.44349  -3713122.71745  23680645.350    23680655.822
       212.000         154.000
 99  4  3 19 11  0.0000000  0  8G26G 2G 5G 9G 4G 7G24G 8
  24370412.719     8918450.73949   6960228.40145  24370413.234    24370427.299
       211.000         150.000
  22620885.714     7429909.56049   5791687.12846  22620885.007    22620896.754
       225.000         178.000
  23749347.182    -9743076.89749  -7299277.63645  23749346.000    23749356.896
       208.000         148.000
  21309345.272   -16818626.44949 -13089765.91347  21309345.197    21309353.317
       242.000         206.000
  20779547.310   -24510693.56949 -17814495.65847  20779547.289    20779556.488
       242.000         208.000
  21531982.871     5147028.64549   4023259.20847  21531982.409    21531991.906
       238.000         199.000
  22894172.995    -9856583.80849  -7661186.33446  22894171.885    22894186.028
       221.000         168.000
  23661173.923    -4907483.05349  -3792855.36545  23661172.901    23661183.721
       214.000         154.000
 99  4  3 19 11 30.0000000  0  8G26G 2G 5G 9G 4G 7G24G 8
  24384494.654     8992450.99549   7017890.68745  24384494.276    24384509.748
       205.000         147.000
  22631591.183     7486166.70449   5835523.74746  22631591.195    22631602.110
       227.000         176.000
  23733796.006    -9824798.88849  -7362957.06845  23733795.705    23733806.372
       212.000         152.000
  21301823.455   -16858153.75849 -13120566.42547  21301823.524    21301831.735
       242.000         207.000
  20770225.429   -24559680.12149 -17852666.95747  20770225.482    20770234.329
       241.000         208.000
  21543357.345     5206801.36749   4069835.29447  21543357.104    21543366.744
       238.000         199.000
  22874568.873    -9959602.58249  -7741460.55346  22874567.496    22874581.032
       219.000         168.000
  23641747.950    -5009567.41349  -3872401.59745  23641747.609    23641757.625
       215.000         154.000
 99  4  3 19 12  0.0000000  0  8G26G 2G 5G 9G 4G 7G24G 8
  24398586.554     9066505.67249   7075595.34645  24398586.050    24398602.794
       208.000         146.000
  22642342.068     7542662.32949   5879546.18646  22642341.603    22642353.670
       225.000         175.000
  23718243.607    -9906527.55149  -7426641.67645  23718243.072    23718255.900
       213.000         151.000
  21294394.973   -16897191.13349 -13150985.16447  21294394.937    21294403.487
       242.000         207.000
  20761005.148   -24608132.85349 -17890422.30347  20761005.335    20761014.146
       243.000         208.000
  21554760.481     5266724.69749   4116528.73247  21554760.310    21554769.313
       239.000         199.000
  22854991.559   -10062480.66849  -7821625.12746  22854991.499    22855003.914
       222.000         168.000
  23622365.752    -5111422.55049  -3951769.21045  23622365.217    23622375.599
       217.000         160.000
 99  4  3 19 12 30.0000000  0  8G26G 2G 5G 9G 4G 7G24G 8
  24412691.489     9140626.83249   7133351.82945  24412692.754    24412706.249
       205.000         144.000
  22653138.344     7599397.43449   5923755.23446  22653138.239    22653149.509
       225.000         174.000
  23702689.267    -9988266.86849  -7490334.55845  23702689.270    23702699.029
       213.000         150.000
  21287059.991   -16935736.93949 -13181020.86147  21287059.705    21287068.321
       242.000         207.000
  20751889.918   -24656034.15549 -17927747.96347  20751890.175    20751898.930
       243.000         208.000
  21566190.863     5326791.07049   4163333.63247  21566190.137    21566199.831
       238.000         198.000
  22835443.175   -10165208.04149  -7901672.26146  22835442.032    22835455.644
       220.000         168.000
  23603026.450    -5213051.62649  -4030960.66946  23603025.635    23603036.146
       216.000         163.000
 99  4  3 19 13  0.0000000  0  8G26G 2G 5G 9G 4G 7G24G 8
  24426809.998     9214820.01849   7191164.42345  24426810.761    24426824.871
       207.000         147.000
  22663981.236     7656375.92949   5968153.92446  22663981.702    22663990.523
       226.000         173.000
  23687134.992   -10070004.85949  -7554026.47145  23687135.287    23687144.991
       213.000         153.000
  21279820.723   -16973779.81749 -13210664.67847  21279820.437    21279828.845
       242.000         207.000
  20742881.561   -24703373.26749 -17964635.55547  20742881.562    20742890.495
       242.000         208.000
  21577645.960     5386987.73649   4210240.06347  21577645.537    21577654.938
       238.000         197.000
  22815926.147   -10267768.89149  -7981589.64646  22815925.693    22815939.246
       222.000         169.000
  23583730.892    -5314449.26949  -4109971.78645  23583729.644    23583740.860
       218.000         161.000
 99  4  3 19 13 30.0000000  0  8G26G 2G 5G 9G 4G 7G24G 8
  24440940.364     9289073.35549   7249023.87145  24440940.459    24440954.472
       205.000         144.000
  22674870.774     7713599.24949   6012743.40846  22674870.943    22674881.644
       228.000         173.000
  23671580.936   -10151743.00149  -7617718.49645  23671581.185    23671590.420
       218.000         155.000
  21272674.984   -17011330.73549 -13239925.14147  21272674.764    21272683.137
       242.000         207.000
  20733981.895   -24750141.24149 -18001078.10847  20733981.923    20733990.844
       242.000         209.000
  21589121.929     5447293.95049   4257231.84847  21589121.832    21589131.131
       239.000         198.000
  22796445.816   -10370136.90149  -8061356.75546  22796445.449    22796457.149
       221.000         169.000
  23564483.323    -5415595.69849  -4188787.15045  23564482.728    23564492.857
       216.000         162.000
 99  4  3 19 14  0.0000000  0  8G26G 2G 5G 9G 4G 7G24G 8
  24455080.616     9363378.91749   7306924.03645  24455081.759    24455094.407
       210.000         142.000
  22685803.805     7771051.68149   6057511.39446  22685804.045    22685814.104
       226.000         173.000
  23656025.917   -10233485.05249  -7681413.53945  23656024.745    23656032.951
       215.000         154.000
  21265624.849   -17048379.62349 -13268794.42147  21265624.634    21265633.265
       243.000         207.000
  20725190.320   -24796341.23949 -18037078.08147  20725190.030    20725199.403
       242.000         209.000
  21600613.151     5507680.27449   4304286.06147  21600613.027    21600622.169
       238.000         198.000
  22777005.544   -10472296.53249  -8140961.48846  22777005.137    22777018.130
       223.000         169.000
  23545283.387    -5516491.57549  -4267407.25946  23545283.300    23545292.851
       213.000         163.000
 99  4  3 19 14 30.0000000  0  8G26G 2G 5G 9G 4G 7G24G 8
  24469228.328     9437724.39449   7364855.30245  24469230.554    24469242.117
       211.000         145.000
  22696781.220     7828737.85449   6102461.53546  22696781.245    22696792.117
       225.000         174.000
  23640474.924   -10315204.65549  -7745091.11145  23640474.690    23640483.593
       209.000         151.000
  21258674.329   -17084905.02849 -13297255.78847  21258674.216    21258682.743
       242.000         208.000
  20716507.112   -24841971.52749 -18072634.13347  20716507.051    20716516.049
       243.000         209.000
  21612123.285     5568166.04149   4351417.76547  21612122.869    21612132.280
       237.000         198.000
  22757609.715   -10574222.51249  -8220384.15746  22757609.914    22757622.467
       225.000         171.000
  23526136.936    -5617106.54949  -4345808.50545  23526136.245    23526146.278
       216.000         159.000
 99  4  3 19 15  0.0000000  0  8G26G 2G 5G 9G 4G 7G24G 8
  24483379.776     9512089.71049   7422801.99945  24483379.409    24483394.422
       204.000         141.000
  22707801.271     7886648.05849   6147586.23346  22707800.957    22707812.106
       224.000         175.000
  23624928.752   -10396899.80949  -7808749.63845  23624928.982    23624939.779
       214.000         154.000
  21251823.284   -17120907.72249 -13325309.84347  21251822.909    21251831.549
       242.000         208.000
  20707927.268   -24887058.97349 -18107767.18447  20707927.320    20707936.259
       242.000         209.000
  21623652.411     5628752.30449   4398627.77247  21623651.747    21623661.069
       237.000         197.000
  22738254.033   -10675937.31749  -8299642.27846  22738254.654    22738265.862
       225.000         171.000
  23507042.897    -5717446.46249  -4423995.41445  23507042.223    23507052.567
       217.000         162.000
 99  4  3 19 15 30.0000000  0  8G26G 2G 5G 9G 4G 7G24G 8
  24497536.199     9586480.99849   7480768.96145  24497536.748    24497552.071
       208.000         140.000
  22718863.616     7944781.47449   6192884.85246  22718862.639    22718875.419
       222.000         175.000
  23609389.756   -10478557.13249  -7872378.67145  23609389.330    23609399.382
       217.000         158.000
  21245073.362   -17156378.65649 -13352949.54447  21245073.382    21245081.621
       243.000         208.000
  20699451.484   -24931599.40349 -18142473.99147  20699451.438    20699460.425
       243.000         209.000
  21635206.890     5689471.40349   4445941.28547  21635206.648    21635215.851
       236.000         197.000
  22718939.020   -10777438.04849  -8378733.57146  22718938.726    22718951.379
       223.000         172.000
  23488000.877    -5817513.61649  -4501969.78246  23488000.695    23488010.499
       219.000         163.000
 99  4  3 19 16  0.0000000  0  8G26G 2G 5G 9G 4G 7G24G 8
  24511694.500     9660883.58449   7538744.75645  24511694.897    24511709.608
       207.000         142.000
  22729970.543     8003148.84149   6238365.76046  22729970.309    22729982.807
       222.000         175.000
  23593857.528   -10560178.73849  -7935979.83945  23593856.483    23593865.759
       212.000         155.000
  21238428.655   -17191297.35549 -13380158.94047  21238428.542    21238436.627
       243.000         208.000
  20691078.428   -24975600.18949 -18176760.29847  20691078.385    20691087.046
       242.000         209.000
  21646790.378     5750343.30649   4493373.87147  21646789.999    21646799.479
       237.000         196.000
  22699662.811   -10878735.52849  -8457666.49346  22699662.820    22699674.311
       226.000         172.000
  23469007.340    -5917326.05349  -4579745.66545  23469006.385    23469016.213
       215.000         162.000
 99  4  3 19 16 30.0000000  0  8G26G 2G 5G 9G 4G 7G24G 8
  24525856.450     9735303.39149   7596733.91345  24525856.403    24525872.844
       208.000         140.000
  22741127.577     8061778.89549   6284051.36346  22741126.995    22741139.586
       224.000         174.000
  23578332.372   -10641762.92649  -7999551.88645  23578331.011    23578342.043
       215.000         153.000
  21231890.035   -17225658.24449 -13406933.68347  21231889.739    21231898.335
       243.000         208.000
  20682810.477   -25019048.73249 -18210616.28147  20682810.468    20682819.467
       244.000         209.000
  21658409.149     5811400.09749   4540950.52447  21658409.085    21658418.335
       238.000         196.000
  22680427.845   -10979816.13149  -8536430.44546  22680425.618    22680439.800
       225.000         173.000
  23450062.935    -6016879.52549  -4657319.77245  23450060.521    23450072.173
       210.000         158.000
 99  4  3 19 17  0.0000000  0  8G26G 2G 5G 9G 4G 7G24G 8
  24540022.815     9809746.14349   7654740.96745  24540022.976    24540038.843
       210.000         140.000
  22752332.906     8120662.73549   6329934.72146  22752332.938    22752345.166
       224.000         174.000
  23562809.872   -10723334.29449  -8063113.91745  23562809.706    23562818.288
       220.000         158.000
  21225453.838   -17259480.59449 -13433288.77347  21225453.734    21225462.240
       243.000         209.000
  20674646.566   -25061950.08649 -18244045.89047  20674646.820    20674655.489
       243.000         209.000
  21670058.413     5872616.64749   4588651.66547  21670057.821    21670067.574
       236.000         196.000
  22661233.466   -11080682.27049  -8615027.27346  22661233.235    22661244.792
       225.000         174.000
  23431162.371    -6116201.44149  -4734713.43745  23431162.084    23431170.777
       213.000         154.000
 99  4  3 19 17 30.0000000  0  8G26G 2G 5G 9G 4G 7G24G 8
  24554194.533     9884218.78449   7712771.32445  24554195.364    24554210.600
       212.000         142.000
  22763589.100     8179813.27949   6376025.91246  22763589.845    22763600.639
       224.000         174.000
  23547289.425   -10804896.55549  -8126668.87545  23547287.982    23547300.295
       215.000         159.000
  21219119.492   -17292767.67049 -13459226.76247  21219119.329    21219127.931
       242.000         209.000
  20666591.432   -25104279.75149 -18277030.01747  20666591.516    20666600.322
       243.000         209.000
  21681736.052     5933982.33849   4636469.02547  21681735.817    21681744.836
       237.000         196.000
  22642084.367   -11181311.39349  -8693439.42246  22642082.702    22642094.889
       225.000         174.000
  23412306.080    -6215291.69849  -4811926.57245  23412305.019    23412315.241
       207.000         153.000
 99  4  3 19 18  0.0000000  0  8G26G 2G 5G 9G 4G 7G24G 8
  24568366.959     9958693.48749   7770803.28445  24568368.802    24568382.015
       213.000         141.000
  22774893.950     8239219.86449   6422316.61546  22774894.838    22774904.978
       226.000         174.000
  23531765.080   -10886476.87049  -8190237.89545  23531764.638    23531776.381
       213.000         157.000
  21212882.085   -17325545.36549 -13484767.84147  21212882.027    21212890.255
       243.000         209.000
  20658642.522   -25146051.39349 -18309579.32347  20658642.579    20658651.073
       242.000         209.000
  21693433.902     5995454.85449   4684369.62947  21693433.359    21693443.116
       236.000         195.000
  22622977.979   -11281714.54549  -8771675.52246  22622977.738    22622989.182
       225.000         174.000
  23393492.964    -6314154.44449  -4888962.47045  23393490.883    23393502.900
       207.000         148.000
 99  4  3 19 18 30.0000000  0  8G26G 2G 5G 9G 4G 7G24G 8
  24582543.852    10033192.77949   7828854.39545  24582544.579    24582558.422
       209.000         142.000
  22786247.903     8298883.77649   6468807.85946  22786247.739    22786259.314
       224.000         175.000
  23516241.408   -10968053.75149  -8253804.24145  23516240.575    23516249.839
       216.000         157.000
  21206742.066   -17357811.48849 -13509910.28647  21206741.648    21206750.514
       242.000         209.000
  20650805.230   -25187236.47549 -18341671.56547  20650805.195    20650813.920
       242.000         209.000
  21705152.952     6057039.08849   4732357.27547  21705152.096    21705161.897
       235.000         195.000
  22603916.336   -11381883.16549  -8849728.83846  22603915.645    22603928.256
       225.000         174.000
  23374727.472    -6412766.60149  -4965803.06245  23374725.404    23374738.098
       207.000         147.000
 99  4  3 19 19  0.0000000  0  8G26G 2G 5G 9G 4G 7G24G 8
  24596725.959    10107720.10549   7886927.34045  24596726.770    24596741.580
       214.000         142.000
  22797648.942     8358796.38149   6515492.85146  22797649.116    22797659.834
       223.000         173.000
  23500719.339   -11049622.81249  -8317364.45945  23500717.742    23500730.703
       216.000         157.000
  21200698.675   -17389569.40349 -13534656.72947  21200698.612    21200706.944
       243.000         209.000
  20643082.995   -25227816.89849 -18373292.64047  20643083.111    20643092.055
       243.000         209.000
  21716891.508     6118725.20749   4780424.33347  21716891.099    21716900.427
       236.000         195.000
  22584896.729   -11481831.26449  -8927610.33046  22584894.833    22584907.735
       224.000         175.000
  23356012.495    -6511114.77049  -5042437.98045  23356010.800    23356021.401
       210.000         146.000
 99  4  3 19 19 30.0000000  0  8G26G 2G 5G 9G 4G 7G24G 8
  24610915.756    10182286.83549   7945031.02945  24610915.738    24610931.421
       213.000         145.000
  22809103.164     8418987.75049   6562395.08346  22809103.077    22809113.655
       223.000         172.000
  23485200.979   -11131171.79949  -8380909.04145  23485200.094    23485210.122
       216.000         157.000
  21194757.216   -17420792.53749 -13558986.44847  21194757.205    21194765.610
       244.000         209.000
  20635480.244   -25267769.46749 -18404424.48447  20635480.374    20635489.295
       243.000         210.000
  21728655.668     6180546.42149   4828596.65647  21728655.195    21728664.875
       236.000         196.000
  22565918.199   -11581562.85149  -9005323.14646  22565918.390    22565930.665
       225.000         175.000
  23337354.730    -6609161.64049  -5118838.12145  23337354.745    23337363.567
       211.000         146.000
 99  4  3 19 20  0.0000000  0  8G26G 2G 5G 9G 4G 7G24G 8
  24625110.296    10256878.02049   8003153.74245  24625111.090    24625126.446
       214.000         147.000
  22820606.427     8479438.12049   6609499.13946  22820605.843    22820617.559
       222.000         171.000
  23469683.160   -11212718.44749  -8444451.86245  23469681.697    23469694.710
       214.000         158.000
  21188916.282   -17451487.01849 -13582904.23147  21188915.929    21188924.375
       244.000         210.000
  20627992.826   -25307116.21949 -18435084.26347  20627992.878    20628001.908
       243.000         210.000
  21740442.605     6242486.87549   4876861.90247  21740442.105    21740452.189
       236.000         195.000
  22546976.042   -11681104.28649  -9082887.75146  22546975.674    22546987.322
       228.000         175.000
  23318753.970    -6706909.75349  -5195005.46845  23318753.403    23318763.344
       209.000         145.000
 99  4  3 19 20 30.0000000  0  8G26G 2G 5G 9G 4G 7G24G 8
  24639313.032    10331511.65149   8061309.43345  24639312.949    24639328.541
       209.000         145.000
  22832162.013     8540162.40849   6656816.62146  22832161.943    22832173.328
       224.000         172.000
  23454167.071   -11294255.17849  -8507986.90745  23454166.478    23454175.083
       216.000         159.000
  21183178.709   -17481637.98249 -13606398.49447  21183178.681    21183186.888
       244.000         209.000
  20620622.115   -25345849.29449 -18465265.85747  20620622.090    20620630.938
       243.000         210.000
  21752254.993     6304561.80149   4925231.93147  21752255.037    21752264.431
       236.000         195.000
  22528071.707   -11780447.34649  -9160297.77946  22528071.960    22528083.137
       227.000         176.000
  23300211.929    -6804348.18449  -5270931.55245  23300211.839    23300222.332
       216.000         148.000
 99  4  3 19 21  0.0000000  0  8G26G 2G 5G 9G 4G 7G24G 8
  24653521.180    10406174.75949   8119488.27145  24653521.972    24653537.890
       212.000         147.000
  22843769.679     8601160.40749   6704347.40146  22843769.817    22843781.420
       223.000         172.000
  23438650.844   -11375793.85749  -8571523.46145  23438649.251    23438660.738
       219.000         159.000
  21177542.807   -17511254.92949 -13629476.63647  21177542.462    21177551.190
       244.000         210.000
  20613362.869   -25383996.74649 -18494991.11647  20613362.946    20613371.576
       243.000         210.000
  21764090.305     6366755.86349   4973694.78447  21764089.854    21764099.494
       236.000         195.000
  22509206.003   -11879586.80049  -9237549.16446  22509205.571    22509217.591
       227.000         177.000
  23281728.773    -6901478.18249  -5346617.22845  23281728.615    23281738.812
       215.000         148.000
 99  4  3 19 21 30.0000000  0  8G26G 2G 5G 9G 4G 7G24G 8
  24667733.518    10480859.81649   8177684.08445  24667733.184    24667750.370
       211.000         147.000
  22855429.908     8662435.12849   6752093.77046  22855428.326    22855441.791
       222.000         171.000
  23423137.883   -11457314.64449  -8635046.10845  23423134.362    23423146.297
       212.000         157.000
  21172014.530   -17540306.02649 -13652113.86247  21172014.439    21172022.830
       244.000         210.000
  20606211.061   -25421579.88449 -18524276.64547  20606211.157    20606219.657
       243.000         210.000
  21775948.815     6429072.59649   5022253.22747  21775948.235    21775958.283
       235.000         195.000
  22490384.884   -11978492.61549  -9314618.49446  22490385.170    22490396.136
       228.000         176.000
  23263303.994    -6998301.02849  -5422063.60945  23263303.520    23263313.234
       218.000         151.000
 99  4  3 19 22  0.0000000  0  8G26G 2G 5G 9G 4G 7G24G 8
  24681942.640    10555530.31249   8235868.55545  24681943.166    24681959.481
       209.000         143.000
  22867135.439     8723948.75149   6800026.33346  22867133.903    22867148.403
       222.000         169.000
  23407627.855   -11538820.02349  -8698556.77945  23407626.937    23407637.801
       219.000         160.000
  21166589.981   -17568812.11849 -13674326.41047  21166589.785    21166598.318
       243.000         210.000
  20599159.839   -25458633.60449 -18553149.63747  20599159.948    20599168.792
       243.000         210.000
  21787825.561     6491485.17849   5070886.34947  21787825.053    21787834.593
       235.000         194.000
  22471609.446   -12077157.31649  -9391499.94246  22471609.738    22471620.812
       227.000         176.000
  23244932.745    -7094842.63349  -5497290.83745  23244932.448    23244942.058
       218.000         152.000
 99  4  3 19 22 30.0000000  0  8G26G 2G 5G 9G 4G 7G24G 8
  24696143.834    10630157.63349   8294019.43445  24696144.395    24696161.405
       209.000         144.000
  22878881.895     8785676.61349   6848125.81746  22878882.709    22878894.159
       223.000         170.000
  23392119.903   -11620315.25249  -8762059.50845  23392119.153    23392129.638
       219.000         160.000
  21161265.553   -17596792.38449 -13696129.22947  21161265.471    21161273.763
       244.000         210.000
  20592207.818   -25495167.05749 -18581617.23647  20592207.911    20592216.588
       243.000         210.000
  21799719.378     6553987.80949   5119589.65447  21799719.019    21799728.749
       235.000         194.000
  22452880.155   -12175579.66449  -9468192.51846  22452879.095    22452891.804
       227.000         176.000
  23226615.084    -7191103.43449  -5572299.25645  23226615.189    23226624.767
       222.000         157.000
 99  4  3 19 23  0.0000000  0  8G26G 2G 5G 9G 4G 7G24G 8
  24710337.867    10704745.90949   8352139.86145  24710339.388    24710355.773
       207.000         147.000
  22890670.664     8847626.23949   6896398.10746  22890671.208    22890682.977
       223.000         169.000
  23376620.102   -11701767.11149  -8825528.44745  23376618.624    23376628.314
       215.000         159.000
  21156045.440   -17624224.25249 -13717504.71747  21156045.215    21156053.811
       244.000         210.000
  20585359.336   -25531155.75249 -18609660.34047  20585359.272    20585368.232
       242.000         210.000
  21811634.130     6616599.89249   5168378.23747  21811634.000    21811643.486
       235.000         194.000
  22434203.895   -12273722.49249  -9544667.31446  22434202.924    22434215.333
       227.000         176.000
  23208355.016    -7287060.76849  -5647071.17845  23208354.740    23208364.219
       221.000         159.000
 99  4  3 19 23 30.0000000  0  8G26G 2G 5G 9G 4G 7G24G 8
  24724522.102    10779283.21949   8410220.55045  24724522.719    24724539.606
       210.000         146.000
  22902500.085     8909789.91449   6944837.18046  22902500.179    22902513.113
       222.000         169.000
  23361127.651   -11783178.61849  -8888965.99245  23361126.609    23361136.982
       217.000         157.000
  21150930.192   -17651104.93249 -13738450.71047  21150929.646    21150938.274
       243.000         210.000
  20578619.445   -25566573.85449 -18637258.82247  20578619.398    20578628.021
       242.000         210.000
  21823571.110     6679328.56449   5217257.66947  21823570.447    21823580.027
       235.000         194.000
  22415582.576   -12371577.67049  -9620917.97746  22415581.316    22415594.884
       225.000         177.000
  23190152.032    -7382718.08549  -5721609.33445  23190151.822    23190160.320
       220.000         159.000
 99  4  3 19 24  0.0000000  0  8G26G 2G 5G 9G 4G 7G24G 8
  24738699.257    10853782.84249   8468271.92045  24738701.164    24738716.828
       210.000         144.000
  22914376.617     8972199.99149   6993468.23846  22914376.607    22914388.689
       223.000         170.000
  23345645.169   -11864538.80149  -8952363.48045  23345644.457    23345653.821
       220.000         158.000
  21145919.158   -17677437.92549 -13758969.94047  21145919.095    21145927.479
       243.000         210.000
  20571997.575   -25601371.57049 -18664373.89147  20571997.792    20572006.358
       243.000         211.000
  21835535.765     6742203.41749   5266251.01047  21835535.523    21835544.942
       235.000         194.000
  22397019.733   -12469125.31949  -9696928.98646  22397018.827    22397030.968
       226.000         178.000
  23172012.062    -7478044.03349  -5795889.28245  23172011.710    23172021.992
       222.000         161.000
 99  4  3 19 24 30.0000000  0  8G26G 2G 5G 9G 4G 7G24G 8
  24752862.669    10928209.71749   8526266.53145  24752863.719    24752878.430
       212.000         147.000
  22926292.388     9034817.76949   7042261.14946  22926292.398    22926305.510
       222.000         170.000
  23330163.909   -11945894.59749  -9015757.56245  23330163.714    23330174.212
       218.000         161.000
  21141005.308   -17703260.67949 -13779091.58947  21141005.347    21141013.688
       244.000         210.000
  20565490.226   -25635567.71149 -18691020.20247  20565490.407    20565499.037
       243.000         211.000
  21847519.372     6805178.10149   5315322.12847  21847518.857    21847528.783
       235.000         193.000
  22378507.439   -12566407.85549  -9772733.44746  22378506.612    22378518.750
       227.000         179.000
  23153926.719    -7573083.19449  -5869945.73645  23153926.220    23153934.928
       220.000         161.000
 99  4  3 19 25  0.0000000  0  8G26G 2G 5G 9G 4G 7G24G 8
  24767020.062    11002604.61149   8584236.24545  24767021.178    24767035.567
       213.000         146.000
  22938254.499     9097679.35249   7091244.02946  22938253.458    22938266.692
       219.000         169.000
  23314687.857   -12027221.39349  -9079129.04946  23314687.618    23314697.572
       218.000         163.000
  21136195.249   -17728537.79049 -13798788.05847  21136195.177    21136203.728
       244.000         211.000
  20559100.791   -25669144.20049 -18717183.67547  20559101.021    20559109.731
       243.000         211.000
  21859525.775     6868271.36149   5364485.65647  21859525.875    21859534.845
       235.000         192.000
  22360051.280   -12663395.23549  -9848307.90046  22360051.598    22360062.863
       229.000         180.000
  23135896.581    -7667831.86149  -5943775.83145  23135896.162    23135906.053
       219.000         162.000
 99  4  3 19 25 30.0000000  0  8G26G 2G 5G 9G 4G 7G24G 8
  24781175.635    11076990.27849   8642198.80445  24781175.669    24781190.715
       198.000         137.000
  22950263.703     9160788.65749   7140419.96046  22950262.994    22950276.286
       217.000         167.000
  23299217.115   -12108519.64349  -9142478.31045  23299217.877    23299226.105
       218.000         161.000
  21131487.977   -17753274.64849 -13818063.54847  21131487.835    21131496.316
       244.000         211.000
  20552828.666   -25702104.23149 -18742866.79147  20552828.853    20552837.565
       243.000         211.000
  21871555.463     6931487.55649   5413744.96447  21871555.048    21871565.005
       234.000         192.000
  22341649.805   -12760096.08849  -9923659.06646  22341648.269    22341660.295
       229.000         180.000
  23117923.387    -7762281.44349  -6017372.88346  23117922.915    23117933.817
       220.000         164.000
 99  4  3 19 26  0.0000000  0  8G26G 2G 5G 9G 4G 7G24G 8
  24795335.731    11151401.74948   8700181.44644  24795337.745    24795350.716
       190.000         125.000
  22962323.323     9224162.23849   7189801.80046  22962322.715    22962336.106
       217.000         166.000
  23283756.197   -12189767.04549  -9205787.94445  23283756.021    23283768.050
       217.000         160.000
  21126886.242   -17777456.82349 -13836906.82247  21126885.871    21126894.755
       243.000         210.000
  20546672.729   -25734453.98349 -18768074.36947  20546672.884    20546681.757
       244.000         211.000
  21883609.134     6994830.08249   5463102.72447  21883608.743    21883618.861
       234.000         192.000
  22323303.856   -12856503.63249  -9998781.71546  22323304.298    22323314.377
       230.000         180.000
  23100012.919    -7856401.15149  -6090712.87146  23100013.463    23100022.927
       218.000         163.000
 99  4  3 19 26 30.0000000  0  8G26G 2G 5G 9G 4G 7G24G 8
  24809502.128    11225848.25748                                  24809508.725
       176.000         110.000
  22974429.411     9287778.31449   7239372.59446  22974428.844    22974442.377
       221.000         167.000
  23268303.021   -12270974.63149  -9269066.52745  23268302.619    23268312.580
       220.000         160.000
  21122388.320   -17801093.53849 -13855325.06447  21122388.265    21122396.741
       245.000         210.000
  20540626.016   -25766229.93949 -18792834.82847  20540626.160    20540634.783
       244.000         211.000
  21895680.608     7058265.77649   5512533.06647  21895680.276    21895690.175
       234.000         192.000
  22305009.382   -12952641.39149 -10073694.13546  22305008.654    22305020.493
       230.000         181.000
  23082163.636    -7950199.96349  -6163802.79546  23082162.411    23082173.086
       216.000         163.000
 99  4  3 19 27  0.0000000  0  8G26G 2G 5G 9G 4G 7G24G 8
  24823666.158    11300280.61258                                  24823674.728
       166.000          99.000
  22986575.607     9351606.13749   7289108.37946  22986575.385    22986588.599
       218.000         167.000
  23252849.739   -12352182.42549  -9332345.25745  23252849.517    23252860.405
       221.000         162.000
  21117985.611   -17824230.18149 -13873353.64547  21117985.573    21117994.087
       243.000         210.000
  20534678.018   -25797486.95449 -18817190.92247  20534678.068    20534686.655
       244.000         211.000
  21907762.215     7121754.43549   5562004.70647  21907761.912    21907771.658
       235.000         191.000
  22286754.383   -13048571.49749 -10148444.74446  22286754.441    22286765.393
       228.000         181.000
  23064368.535    -8043713.64549  -6236670.57645  23064367.211    23064377.537
       212.000         161.000
 99  4  3 19 27 30.0000000  0  8G26G 2G 5G 9G 4G 7G24G 8

       168.000          88.000
  22998761.470     9415642.97349   7339007.05046  22998761.679    22998774.151
       220.000         167.000
  23237394.952   -12433398.42249  -9395630.41046  23237395.786    23237403.465
       218.000         163.000
  21113675.637   -17846878.86749 -13891001.98947  21113675.487    21113684.140
       244.000         210.000
  20528829.713   -25828219.85449 -18841138.61747  20528829.747    20528838.580
       243.000         211.000
  21919852.800     7185290.97249   5611513.62347  21919852.122    21919862.548
       232.000         191.000
  22268533.907   -13144319.88549 -10223053.74946  22268534.015    22268545.201
       230.000         181.000
  23046631.498    -8136922.59149  -6309300.87945  23046631.549    23046639.972
       215.000         160.000
 99  4  3 19 28  0.0000000  0  7G 2G 5G 9G 4G 7G24G 8
  23010998.580     9479948.77549   7389115.30746  23010999.237    23011011.439
       220.000         168.000
  23221948.137   -12514571.70749  -9458882.25045  23221946.731    23221956.883
       215.000         161.000
  21109471.881   -17868969.88649 -13908215.78447  21109472.037    21109480.317
       244.000         210.000
  20523093.195   -25858365.26449 -18864628.52447  20523093.338    20523102.049
       244.000         212.000
  21931961.765     7248924.06049   5661097.79047  21931961.219    21931971.451
       232.000         190.000
  22250357.326   -13239837.76149 -10297483.15746  22250357.058    22250368.789
       229.000         181.000
  23028959.826    -8229787.25449  -6381662.89145  23028958.394    23028969.029
       212.000         160.000
 99  4  3 19 28 30.0000000  0  7G 2G 5G 9G 4G 7G24G 8
  23023303.047     9544607.97449   7439498.92446  23023303.169    23023316.836
       221.000         170.000
  23206523.277   -12595629.35449  -9522044.00345  23206522.948    23206533.187
       219.000         162.000
  21105391.183   -17890414.38049 -13924925.79747  21105391.112    21105399.478
       244.000         211.000
  20517486.426   -25887829.05349 -18887587.30047  20517486.620    20517495.247
       243.000         212.000
  21944105.321     7312738.27549   5710823.07947  21944104.972    21944114.721
       233.000         190.000
  22232240.434   -13335041.63549 -10371667.88946  22232239.761    22232251.870
       229.000         182.000
  23011364.776    -8322249.56149  -6453711.41045  23011363.994    23011374.256
       214.000         160.000
 99  4  3 19 29  0.0000000  0  7G 2G 5G 9G 4G 7G24G 8
  23035653.820     9609509.37349   7490071.25846  23035653.719    23035666.117
       221.000         169.000
  23191096.164   -12676698.54249  -9585214.73946  23191094.969    23191104.840
       218.000         163.000
  21101410.767   -17911331.68249 -13941225.01247  21101410.737    21101419.283
       243.000         210.000
  20511988.735   -25916719.64949 -18910099.43447  20511988.846    20511997.531
       244.000         212.000
  21956263.143     7376627.33949   5760606.68847  21956262.426    21956272.713
       233.000         190.000
  22214163.295   -13430036.36549 -10445689.66346  22214163.235    22214175.053
       230.000         182.000
  22993824.427    -8414424.15049  -6525535.72345  22993824.487    22993834.382
       216.000         161.000
 99  4  3 19 29 30.0000000  0  7G 2G 5G 9G 4G 7G24G 8
  23048053.933     9674672.14649   7540847.28546  23048053.884    23048066.034
       221.000         167.000
  23175672.101   -12757752.15049  -9648373.30845  23175671.397    23175680.515
       207.000         154.000
  21097534.883   -17931699.63349 -13957096.16747  21097534.751    21097543.201
       245.000         210.000
  20506605.982   -25945005.67749 -18932140.48147  20506606.162    20506614.927
       244.000         212.000
  21968437.838     7440606.45749   5810460.48147  21968437.597    21968447.476
       234.000         190.000
  22196136.962   -13524764.91749 -10519504.02646  22196136.444    22196148.637
       230.000         182.000
  22976344.110    -8506283.89449  -6597114.70045  22976343.768    22976352.727
       206.000         160.000
 99  4  3 19 30  0.0000000  0  7G 2G 5G 9G 4G 7G24G 8
  23060501.877     9740085.93149   7591818.87546  23060502.077    23060515.149
       218.000         167.000
  23160248.356   -12838803.75049  -9711530.34745  23160247.974    23160258.611
       215.000         161.000
  21093761.320   -17951529.71349 -13972548.18847  21093761.443    21093770.120
       244.000         210.000
  20501337.250   -25972692.81549 -18953714.85347  20501337.729    20501346.193
       245.000         212.000
  21980627.850     7504664.99749   5860376.15047  21980627.368    21980637.612
       233.000         190.000
  22178165.117   -13619206.67849 -10593094.93346  22178164.876    22178176.898
       229.000         183.000
  22958920.013    -8597848.39649  -6668463.62045  22958919.950    22958929.550
       219.000         162.000
 99  4  3 19 30 30.0000000  0  7G 2G 5G 9G 4G 7G24G 8
  23073001.471     9805771.80449   7643002.49146  23073001.174    23073014.825
       216.000         165.000
  23144830.525   -12919824.89849  -9774663.64345  23144829.288    23144839.849
       220.000         162.000
  21090092.742   -17970808.64849 -13987570.75547  21090092.613    21090101.353
       244.000         211.000
  20496184.139   -25999772.69749 -18974816.04047  20496184.477    20496193.189
       246.000         212.000
  21992836.291     7568820.10449   5910367.06747  21992835.996    21992845.574
       233.000         189.000
  22160254.695   -13713326.05449 -10666434.60846  22160255.095    22160265.919
       232.000         183.000
  22941561.112    -8689070.53549  -6739545.75646  22941561.008    22941570.213
       220.000         164.000
 99  4  3 19 31  0.0000000  0  7G 2G 5G 9G 4G 7G24G 8
  23085546.014     9871692.90049   7694369.39446  23085547.008    23085559.002
       220.000         167.000
  23129416.290   -13000827.49549  -9837782.49945  23129415.998    23129425.879
       219.000         162.000
  21086522.523   -17989570.44549 -14002190.35147  21086522.354    21086530.869
       244.000         210.000
  20491140.186   -26026279.20949 -18995470.44447  20491140.349    20491149.348
       247.000         212.000
  22005058.820     7633049.51849   5960415.89547  22005058.805    22005068.578
       233.000         190.000
  22142401.414   -13807146.50649 -10739541.36546  22142401.225    22142412.432
       231.000         184.000
  22924264.367    -8779965.67349  -6810373.14646  22924264.122    22924274.233
       217.000         165.000
 99  4  3 19 31 30.0000000  0  7G 2G 5G 9G 4G 7G24G 8
  23098134.414     9937843.87749   7745915.42846  23098134.814    23098147.877
       220.000         168.000
  23114009.242   -13081792.30649  -9900871.89346  23114008.555    23114018.274
       220.000         165.000
  21083055.032   -18007792.18449 -14016389.13047  21083054.505    21083063.324
       243.000         211.000
  20486207.526   -26052200.70949 -19015668.99047  20486207.684    20486216.133
       245.000         212.000
  22017297.239     7697362.44149   6010529.78447  22017296.873    22017307.013
       234.000         189.000
  22124604.874   -13900667.77049 -10812414.99346  22124604.645    22124616.464
       229.000         184.000
  22907030.733    -8870529.23649  -6880942.10646  22907029.953    22907040.313
       222.000         164.000
 99  4  3 19 32  0.0000000  0  7G 2G 5G 9G 4G 7G24G 8
  23110766.038    10004221.76049   7797638.29146  23110766.030    23110779.950
       220.000         167.000
  23098609.606   -13162717.71049  -9963930.60346  23098609.026    23098618.664
       220.000         165.000
  21079692.221   -18025463.72049 -14030159.16847  21079692.063    21079700.750
       243.000         211.000
  20481382.233   -26077557.73549 -19035427.68447  20481382.374    20481391.095
       247.000         212.000
  22029551.971     7761760.95449   6060710.36747  22029551.489    22029561.630
       233.000         189.000
  22106864.733   -13993892.28749 -10885057.38746  22106864.786    22106876.207
       233.000         184.000
  22889860.931    -8960757.36149  -6951249.70146  22889859.760    22889870.547
       221.000         164.000
 99  4  3 19 32 30.0000000  0  7G 2G 5G 9G 4G 7G24G 8
  23123435.948    10070800.25849   7849517.47046  23123436.758    23123447.821
       220.000         168.000
  23083216.269   -13243609.96449 -10026963.46446  23083215.582    23083224.913
       223.000         166.000
  21076432.729   -18042592.81749 -14043506.53247  21076432.389    21076441.134
       244.000         210.000
  20476658.894   -26102379.35149 -19054769.18148  20476658.934    20476667.610
       246.000         213.000
  22041818.481     7826221.89249   6110939.59647  22041818.157    22041827.329
       231.000         188.000
  22089176.673   -14086843.37249 -10957486.73146  22089176.491    22089188.060
       231.000         184.000
  22872752.515    -9050662.72749  -7021305.82746  22872751.654    22872761.203
       219.000         165.000
 99  4  3 19 33  0.0000000  0  7G 2G 5G 9G 4G 7G24G 8
  23136146.071    10137591.92349   7901562.74046  23136145.680    23136159.079
       219.000         166.000
  23067828.986   -13324470.72149 -10089971.79746  23067827.445    23067837.758
       222.000         166.000
  21073278.491   -18059168.63349 -14056422.77847  21073278.303    21073286.786
       244.000         211.000
  20472044.171   -26126629.65249 -19073665.48548  20472044.469    20472053.081
       246.000         213.000
  22054099.234     7890756.59449   6161226.30847  22054099.065    22054109.088
       232.000         189.000
  22071544.624   -14179500.55049 -11029687.04946  22071543.778    22071555.256
       229.000         184.000
  22855706.365    -9140239.72049  -7091106.04446  22855705.724    22855716.048
       219.000         164.000
 99  4  3 19 33 30.0000000  0  7G 2G 5G 9G 4G 7G24G 8
  23148901.455    10204621.89549   7953793.70446  23148900.410    23148913.309
       217.000         163.000
  23052450.699   -13405283.51549 -10152942.76446  23052450.491    23052460.051
       221.000         167.000
  21070233.792   -18075168.70749 -14068890.38247  21070233.551    21070242.260
       243.000         211.000
  20467544.366   -26150276.07549 -19092091.24548  20467544.524    20467552.969
       246.000         213.000
  22066394.823     7955370.36249   6211574.61247  22066394.393    22066404.467
       231.000         188.000
  22053976.350   -14271821.54149 -11101625.39246  22053976.300    22053988.079
       230.000         185.000
  22838728.545    -9229458.77049  -7160627.37446  22838729.557    22838737.185
       220.000         163.000
 99  4  3 19 34  0.0000000  0  7G 2G 5G 9G 4G 7G24G 8
  23161705.440    10271907.03749   8006223.50145  23161704.126    23161717.870
       219.000         161.000
  23037084.202   -13486034.68249 -10215865.70546  23037083.729    23037094.088
       221.000         166.000
  21067299.584   -18090588.01349 -14080905.44547  21067299.302    21067307.936
       244.000         211.000
  20463162.009   -26173305.18649 -19110035.98348  20463162.158    20463170.684
       247.000         213.000
  22078706.233     8020066.58849   6261987.19247  22078705.670    22078716.560
       230.000         188.000
  22036475.392   -14363790.01249 -11173289.05746  22036475.975    22036486.080
       234.000         186.000
  22821821.333    -9318306.15549  -7229859.09245  22821820.992    22821830.719
       221.000         162.000
 99  4  3 19 34 30.0000000  0  7G 2G 5G 9G 4G 7G24G 8
  23174551.137    10339411.08849   8058823.85945  23174550.533    23174563.728
       216.000         161.000
  23021719.924   -13566774.83449 -10278780.04746  23021719.335    23021729.263
       221.000         168.000
  21064465.522   -18105481.14049 -14092510.49447  21064465.364    21064473.993
       243.000         211.000
  20458895.574   -26195725.61749 -19127506.41748  20458895.751    20458904.180
       246.000         213.000
  22091024.503     8084799.12649   6312428.04746  22091024.442    22091033.706
       231.000         187.000
  22019030.199   -14455465.43349 -11244724.37346  22019030.183    22019041.851
       233.000         186.000
  22804976.122    -9406827.58249  -7298836.77946  22804975.564    22804985.980
       220.000         164.000
 99  4  3 19 35  0.0000000  0  7G 2G 5G 9G 4G 7G24G 8
  23187447.736    10407183.91949   8111633.66545  23187447.544    23187460.971
       219.000         162.000
  23006366.522   -13647457.01349 -10341649.21646  23006365.854    23006376.313
       217.000         168.000
  21061739.258   -18119807.44849 -14103673.87247  21061739.291    21061747.598
       244.000         211.000
  20454755.692   -26217480.74049 -19144458.42848  20454755.707    20454764.156
       246.000         213.000
  22103360.422     8149624.45849   6362941.21646  22103359.583    22103370.450
       231.000         187.000
  22001649.156   -14546803.93049 -11315897.14246  22001648.666    22001660.091
       234.000         187.000
  22788203.865    -9494966.51349  -7367516.46246  22788203.375    22788212.264
       220.000         164.000
 99  4  3 19 35 30.0000000  0  7G 2G 5G 9G 4G 7G24G 8
  23200395.822    10475225.42449   8164652.82945  23200396.030    23200409.260
       220.000         162.000
  22991026.892   -13728066.58649 -10404461.82646  22991026.164    22991036.318
       222.000         166.000
  21059121.927   -18133562.19549 -14114391.88147  21059122.043    21059130.359
       244.000         211.000
  20450738.595   -26238590.13649 -19160907.28248  20450738.638    20450747.383
       246.000         213.000
  22115715.591     8214551.19749   6413533.40646  22115714.809    22115724.660
       231.000         186.000
  21984329.891   -14637816.64449 -11386816.07346  21984329.535    21984340.823
       233.000         187.000
  22771506.494    -9582710.95449  -7435888.74246  22771505.415    22771516.255
       218.000         164.000
 99  4  3 19 36  0.0000000  0  7G 2G 5G 9G 4G 7G24G 8
  23213394.301    10543531.63649   8217878.29246  23213394.192    23213407.795
       219.000         163.000
  22975697.895   -13808621.85049 -10467232.11146  22975697.326    22975707.648
       221.000         167.000
  21056611.929   -18146752.49749 -14124670.05647  21056611.671    21056620.487
       244.000         211.000
  20446842.069   -26259066.37349 -19176862.76048  20446842.146    20446850.891
       246.000         213.000
  22128089.634     8279577.17649   6464202.93646  22128089.402    22128098.781
       232.000         186.000
  21967068.159   -14728527.43449 -11457499.72247  21967067.695    21967079.206
       232.000         188.000
  22754886.408    -9670050.01649  -7503945.12546  22754885.610    22754896.463
       220.000         166.000
 99  4  3 19 36 30.0000000  0  7G 2G 5G 9G 4G 7G24G 8
  23226445.723    10612116.08049   8271320.52346  23226444.847    23226459.966
       218.000         163.000
  22960378.843   -13889124.01349 -10529961.00546  22960378.021    22960387.585
       222.000         169.000
  21054211.103   -18159368.94849 -14134501.07447  21054210.573    21054219.457
       243.000         211.000
  20443068.115   -26278898.47249 -19192316.30948  20443068.088    20443076.821
       246.000         213.000
  22140486.125     8344720.46849   6514963.87546  22140485.671    22140495.566
       233.000         186.000
  21949867.845   -14818915.24949 -11527931.70847  21949867.673    21949878.802
       235.000         188.000
  22738348.783    -9756956.10649  -7571664.13046  22738348.249    22738357.278
       220.000         166.000
 99  4  3 19 37  0.0000000  0  7G 2G 5G 9G 4G 7G24G 8
  23239541.988    10680937.72249   8324947.58946  23239542.120    23239555.902
       219.000         163.000
  22945066.594   -13969590.00749 -10592661.71946  22945066.481    22945075.391
       221.000         169.000
  21051915.980   -18171429.86649 -14143899.21347  21051916.172    21051924.514
       244.000         211.000
  20439405.150   -26298147.49949 -19207315.51648  20439405.344    20439413.690
       247.000         213.000
  22152899.474     8409952.12149   6565793.66846  22152898.997    22152908.479
       230.000         185.000
  21932726.769   -14908991.66749 -11598121.06247  21932726.290    21932737.980
       233.000         188.000
  22721889.753    -9843448.46949  -7639060.77046  22721889.763    22721898.506
       221.000         165.000
 99  4  3 19 37 30.0000000  0  7G 2G 5G 9G 4G 7G24G 8
  23252684.258    10749999.31149   8378761.61446  23252684.032    23252697.530
       218.000         164.000
  22929760.717   -14050022.25249 -10655336.14846  22929759.348    22929769.639
       224.000         169.000
  21049729.291   -18182921.32049 -14152853.61347  21049729.366    21049737.860
       244.000         211.000
  20435850.640   -26316826.45049 -19221870.51748  20435850.705    20435859.284
       247.000         213.000
  22165324.746     8475247.74549   6616673.30746  22165324.225    22165333.770
       230.000         185.000
  21915645.933   -14998752.22849 -11668064.27647  21915645.944    21915656.452
       234.000         189.000
  22705506.272    -9929544.68449  -7706148.72246  22705506.045    22705515.964
       220.000         167.000
 99  4  3 19 38  0.0000000  0  7G 2G 5G 9G 4G 7G24G 8
  23265869.013    10819285.42549   8432750.61446  23265869.444    23265882.285
       218.000         163.000
  22914458.519   -14130435.69049 -10717995.92846  22914457.881    22914467.172
       222.000         169.000
  21047648.864   -18193854.25949 -14161372.80347  21047648.776    21047657.141
       245.000         212.000
  20432402.405   -26334947.09049 -19235990.46848  20432402.462    20432411.006
       246.000         213.000
  22177757.065     8540579.11149   6667580.80446  22177756.709    22177766.135
       230.000         185.000
  21898623.083   -15088207.13249 -11737769.33547  21898622.769    21898633.319
       234.000         189.000
  22689190.500   -10015284.52249  -7772958.93146  22689190.111    22689199.917
       219.000         167.000
 99  4  3 19 38 30.0000000  0  7G 2G 5G 9G 4G 7G24G 8
  23279102.915    10888829.48949   8486940.60646  23279103.332    23279116.638
       217.000         163.000
  22899169.242   -14210781.28149 -10780602.82046  22899169.245    22899178.957
       225.000         169.000
  21045681.445   -18204193.28249 -14169429.20447  21045681.148    21045689.900
       243.000         212.000
  20429064.139   -26352489.67249 -19249659.98048  20429064.303    20429072.886
       247.000         214.000
  22190201.651     8605975.54549   6718538.99946  22190201.513    22190211.605
       232.000         186.000
  21881664.769   -15177323.08949 -11807210.25947  21881664.109    21881675.299
       234.000         189.000
  22672942.228   -10100669.22849  -7839492.43946  22672942.109    22672951.086
       223.000         167.000
 99  4  3 19 39  0.0000000  0  7G 2G 5G 9G 4G 7G24G 8
  23292378.198    10958590.67549   8541299.75145  23292378.472    23292390.513
       214.000         160.000
  22883887.187   -14291089.17049 -10843180.34046  22883887.085    22883896.185
       223.000         171.000
  21043821.401   -18213967.76149 -14177045.70547  21043821.056    21043829.760
       244.000         212.000
  20425828.118   -26369495.15749 -19262910.98148  20425828.283    20425836.746
       246.000         214.000
  22202650.499     8671394.37349   6769514.64646  22202649.616    22202659.233
       229.000         186.000
  21864763.250   -15266140.76349 -11876418.76447  21864762.530    21864774.160
       234.000         190.000
  22656751.651   -10185751.66949  -7905790.39446  22656750.708    22656761.105
       220.000         169.000
 99  4  3 19 39 30.0000000  0  7G 2G 5G 9G 4G 7G24G 8
  23305706.651    11028631.91649   8595877.14445  23305706.075    23305719.917
       217.000         159.000
  22868621.456   -14371310.41249 -10905690.33746  22868621.113    22868630.360
       223.000         171.000
  21042077.481   -18223132.12749 -14184186.79447  21042077.223    21042086.067
       243.000         212.000
  20422712.301   -26385868.70349 -19275669.56148  20422712.241    20422720.627
       247.000         214.000
  22215116.700     8736904.86849   6820561.71446  22215116.335    22215126.529
       231.000         185.000
  21847929.421   -15354602.13849 -11945349.62947  21847928.764    21847940.105
       233.000         190.000
  22640629.603   -10270473.47449  -7971807.34746  22640629.608    22640639.019
       223.000         170.000
 99  4  3 19 40  0.0000000  0  7G 2G 5G 9G 4G 7G24G 8
  23319079.687    11098906.09049   8650636.03545  23319080.506    23319093.535
       217.000         160.000
  22853363.347   -14451492.35949 -10968169.74746  22853363.296    22853372.144
       223.000         170.000
  21040437.019   -18231752.88749 -14190904.28947  21040436.849    21040445.439
       244.000         211.000
  20419712.698   -26401631.59549 -19287952.30948  20419712.637    20419721.175
       246.000         214.000
  22227595.732     8802482.58449   6871661.17246  22227595.256    22227604.692
       229.000         185.000
  21831155.286   -15442750.52849 -12014036.61847  21831154.626    21831165.898
       234.000         190.000
  22624571.717   -10354858.78449  -8037562.13246  22624571.105    22624580.668
       224.000         171.000
 99  4  3 19 40 30.0000000  0  7G 2G 5G 9G 4G 7G24G 8
  23332508.048    11169471.07649   8705621.54145  23332508.451    23332521.675
       217.000         161.000
  22838123.674   -14531577.47149 -11030573.68246  22838122.897    22838132.724
       224.000         170.000
  21038910.186   -18239776.47849 -14197156.45747  21038909.916    21038918.502
       244.000         211.000
  20416842.913   -26416712.36349 -19299703.52848  20416842.844    20416851.571
       247.000         214.000
  22240101.415     8868200.71649   6922870.03446  22240100.709    22240111.100
       230.000         184.000
  21814455.274   -15530509.40849 -12082420.08647  21814454.807    21814465.820
       235.000         190.000
  22608595.022   -10438816.97649  -8102984.06146  22608594.476    22608604.417
       221.000         172.000
 99  4  3 19 41  0.0000000  0  7G 2G 5G 9G 4G 7G24G 8
  23345987.876    11240307.58749   8760818.61046  23345988.738    23346002.151
       218.000         163.000
  22822900.737   -14611574.79849 -11092909.21946  22822900.245    22822910.012
       223.000         171.000
  21037493.933   -18247218.87049 -14202955.74447  21037493.696    21037502.196
       244.000         212.000
  20414105.737   -26431096.51749 -19310911.93048  20414105.799    20414114.291
       247.000         214.000
  22252633.180     8934055.32549   6974185.26146  22252632.513    22252643.424
       228.000         184.000
  21797829.672   -15617876.83549 -12150498.53147  21797829.487    21797840.527
       234.000         190.000
  22592701.884   -10522336.03349  -8168063.81646  22592701.668    22592711.116
       221.000         170.000
 99  4  3 19 41 30.0000000  0  7G 2G 5G 9G 4G 7G24G 8
  23359513.776    11311384.89949   8816203.34046  23359513.755    23359527.931
       216.000         163.000
  22807690.475   -14691504.92049 -11155192.38146  22807689.735    22807699.312
       220.000         169.000
  21036180.477   -18254121.42549 -14208334.37948  21036180.126    21036188.924
       243.000         213.000
  20411495.265   -26444814.58049 -19321601.30748  20411495.356    20411503.794
       247.000         214.000
  22265183.477     9000007.82249   7025576.73446  22265183.324    22265193.054
       229.000         183.000
  21781271.081   -15704892.58549 -12218302.94747  21781271.140    21781281.262
       235.000         191.000
  22576887.879   -10605438.98949  -8232819.32846  22576886.657    22576896.857
       221.000         169.000
 99  4  3 19 42  0.0000000  0  7G 2G 5G 9G 4G 7G24G 8
  23373093.766    11382747.76349   8871810.56145  23373092.855    23373107.766
       216.000         161.000
  22792501.922   -14771320.71149 -11217386.45846  22792501.889    22792510.504
       222.000         169.000
  21034981.664   -18260421.14249 -14213243.27247  21034981.615    21034990.149
       244.000         212.000
  20409011.269   -26457868.11049 -19331772.85848  20409011.246    20409019.665
       247.000         214.000
  22277756.136     9066077.62749   7077059.63546  22277755.871    22277766.005
       228.000         182.000
  21764785.929   -15791522.42749 -12285806.64047  21764785.612    21764796.545
       233.000         191.000
  22561160.108   -10688088.33749  -8297221.37546  22561158.915    22561169.271
       221.000         171.000
 99  4  3 19 42 30.0000000  0  7G 2G 5G 9G 4G 7G24G 8
  23386719.369    11454350.57349   8927604.74645  23386717.612    23386732.552
       215.000         159.000
  22777329.930   -14851049.59549 -11279512.79946  22777329.363    22777339.514
       222.000         169.000
  21033893.505   -18266139.58349 -14217699.22247  21033893.399    21033901.919
       244.000         212.000
  20406643.484   -26470310.71049 -19341468.36848  20406643.665    20406651.964
       246.000         214.000
  22290343.057     9132222.56549   7128601.08746  22290342.807    22290353.167
       227.000         181.000
  21748367.422   -15877802.02749 -12353037.42247  21748367.239    21748378.267
       236.000         192.000
  22545511.047   -10770324.31549  -8361301.33646  22545510.288    22545520.339
       223.000         172.000
 99  4  3 19 43  0.0000000  0  7G 2G 5G 9G 4G 7G24G 8
  23400385.402    11526165.97849   8983564.59445  23400385.870    23400399.854
       220.000         158.000
  22762170.736   -14930711.81949 -11341587.23346  22762170.058    22762179.597
       221.000         170.000
  21032914.186   -18271286.23349 -14221709.62947  21032914.007    21032922.648
       244.000         212.000
  20404386.128   -26482173.09949 -19350711.77248  20404385.988    20404394.496
       247.000         214.000
  22302936.971     9198403.35949   7180170.44946  22302936.458    22302946.927
       228.000         182.000
  21732008.207   -15963770.35949 -12420025.65547  21732007.444    21732018.548
       234.000         192.000
  22529936.258   -10852170.60249  -8425077.65146  22529935.470    22529945.248
       223.000         172.000
 99  4  3 19 43 30.0000000  0  7G 2G 5G 9G 4G 7G24G 8
  23414099.329    11598232.18249   9039719.87745  23414098.437    23414112.870
       215.000         158.000
  22747027.904   -15010287.92349 -11403594.54146  22747028.200    22747037.082
       225.000         171.000
  21032050.153   -18275826.53149 -14225247.54347  21032049.945    21032058.711
       244.000         212.000
  20402239.408   -26493453.95149 -19359502.03348  20402239.533    20402247.995
       247.000         214.000
  22315541.509     9264640.63249   7231783.84846  22315541.622    22315551.280
       228.000         182.000
  21715712.715   -16049403.62149 -12486752.79847  21715712.195    21715723.610
       234.000         192.000
  22514441.249   -10933596.81449  -8488526.60246  22514440.397    22514451.285
       223.000         172.000
 99  4  3 19 44  0.0000000  0  7G 2G 5G 9G 4G 7G24G 8
  23427864.743    11670570.38149   9096087.09145  23427864.667    23427879.120
       216.000         157.000
  22731903.490   -15089767.17849 -11465526.40846  22731902.351    22731912.291
       225.000         172.000
  21031304.685   -18279744.11249 -14228300.22747  21031304.631    21031313.199
       244.000         212.000
  20400206.648   -26504135.74549 -19367825.49548  20400206.701    20400215.357
       247.000         214.000
  22328161.956     9330961.39949   7283462.29246  22328161.595    22328172.078
       227.000         182.000
  21699488.907   -16134660.02049 -12553186.26747  21699488.447    21699499.520
       235.000         192.000
  22499032.370   -11014571.04049  -8551623.37846  22499031.874    22499041.289
       224.000         173.000
 99  4  3 19 44 30.0000000  0  7G 2G 5G 9G 4G 7G24G 8
  23441674.389    11743141.12949   9152635.50145  23441673.857    23441689.515
       214.000         157.000
  22716788.742   -15169194.59249 -11527417.85746  22716787.805    22716797.564
       223.000         171.000
  21030666.059   -18283100.32249 -14230915.47147  21030665.953    21030674.860
       244.000         212.000
  20398286.154   -26514227.39349 -19375689.10848  20398286.230    20398294.761
       246.000         213.000
  22340793.405     9397339.37049   7335185.32146  22340792.571    22340803.411
       228.000         182.000
  21683332.142   -16219564.10449 -12619345.20647  21683332.002    21683342.500
       235.000         193.000
  22483705.080   -11095116.49049  -8614386.04246  22483704.475    22483714.396
       223.000         173.000
 99  4  3 19 45  0.0000000  0  7G 2G 5G 9G 4G 7G24G 8
  23455527.578    11815940.12949   9209361.77145  23455528.106    23455542.609
       215.000         157.000
  22701678.786   -15248597.67349 -11589290.36546  22701678.685    22701687.736
       224.000         171.000
  21030127.115   -18285932.66449 -14233122.51547  21030126.926    21030135.582
       244.000         212.000
  20396473.507   -26523752.60349 -19383111.34048  20396473.685    20396482.310
       244.000         213.000
  22353430.785     9463749.18749   7386933.16746  22353430.802    22353441.713
       227.000         181.000
  21667238.614   -16304135.68749 -12685245.04247  21667238.093    21667248.880
       236.000         194.000
  22468454.315   -11175259.91849  -8676835.45746  22468454.003    22468463.686
       225.000         172.000
 99  4  3 19 45 30.0000000  0  7G 2G 5G 9G 4G 7G24G 8
  23469424.475    11888967.77049   9266266.22545  23469425.915    23469439.724
       217.000         160.000
  22686573.041   -15327979.13249 -11651146.02546  22686572.023    22686582.321
       223.000         172.000
  21029684.363   -18288258.96749 -14234935.23847  21029684.253    21029692.797
       244.000         212.000
  20394767.992   -26532715.24149 -19390095.21448  20394768.136    20394776.717
       245.000         214.000
  22366075.042     9530195.05049   7438709.09146  22366074.309    22366085.687
       227.000         181.000
  21651210.144   -16388365.35749 -12750878.45347  21651210.079    21651220.434
       236.000         194.000
  22453276.887   -11255018.17649  -8738984.73446  22453276.320    22453285.288
       222.000         172.000
 99  4  3 19 46  0.0000000  0  7G 2G 5G 9G 4G 7G24G 8
  23483366.485    11962231.57949   9323354.69345  23483368.242    23483381.095
       219.000         161.000
  22671477.503   -15407306.32149 -11712959.38646  22671477.383    22671486.855
       222.000         171.000
  21029342.589   -18290055.06749 -14236334.81747  21029342.279    21029350.936
       244.000         212.000
  20393176.196   -26541080.36049 -19396613.49248  20393176.238    20393184.848
       245.000         214.000
  22378729.540     9596694.61049   7490526.85946  22378729.148    22378739.787
       229.000         181.000
  21635250.618   -16472233.11049 -12816229.84947  21635250.208    21635260.610
       236.000         195.000
  22438176.714   -11334369.99449  -8800817.32046  22438176.973    22438186.381
       226.000         173.000
 99  4  3 19 46 30.0000000  0  7G 2G 5G 9G 4G 7G24G 8
  23497346.208    12035693.32949   9380597.36545  23497347.325    23497360.045
       219.000         160.000
  22656388.768   -15486597.77049 -11774744.89646  22656388.858    22656398.228
       225.000         173.000
  21029099.059   -18291334.98449 -14237332.17447  21029098.998    21029107.603
       244.000         212.000
  20391692.374   -26548877.79349 -19402689.41348  20391692.535    20391700.777
       245.000         214.000
  22391387.942     9663214.80149   7542360.69746  22391387.435    22391397.941
       225.000         181.000
  21619352.592   -16555777.68449 -12881329.41847  21619352.124    21619362.797
       237.000         195.000
  22423147.077   -11413350.98649  -8862360.92146  22423145.859    22423156.360
       222.000         173.000
 99  4  3 19 47  0.0000000  0  7G 2G 5G 9G 4G 7G24G 8
  23511367.756    12109375.90549   9438012.12445  23511367.689    23511382.249
       216.000         158.000
  22641317.800   -15565797.04249 -11836458.59446  22641317.272    22641327.043
       224.000         175.000
  21028964.025   -18292044.78449 -14237885.28647  21028963.671    21028972.594
       243.000         212.000
  20390322.936   -26556074.29849 -19408297.07848  20390323.113    20390331.520
       245.000         214.000
  22404056.526     9729788.77849   7594236.44646  22404056.035    22404067.143
       226.000         179.000
  21603523.653   -16638959.43549 -12946146.27447  21603523.322    21603534.586
       236.000         195.000
  22408194.361   -11491927.73149  -8923589.54846  22408193.860    22408203.517
       225.000         174.000
 99  4  3 19 47 30.0000000  0  7G 2G 5G 9G 4G 7G24G 8
  23525430.343    12183275.68449   9495596.13845  23525430.234    23525445.330
       216.000         156.000
  22626266.570   -15644891.84649 -11898090.88246  22626266.672    22626275.252
       226.000         174.000
  21028941.640   -18292162.39749 -14237976.95047  21028941.397    21028950.020
       243.000         212.000
  20389069.379   -26562661.65949 -19413430.08948  20389069.591    20389077.986
       245.000         214.000
  22416735.903     9796419.71549   7646156.57746  22416736.117    22416745.829
       227.000         179.000
  21587766.719   -16721762.19649 -13010667.81447  21587766.021    21587777.254
       236.000         196.000
  22393324.225   -11570070.90249  -8984480.32346  22393323.884    22393333.704
       225.000         174.000
 99  4  3 19 48  0.0000000  0  7G 2G 5G 9G 4G 7G24G 8
  23539534.744    12257392.72649   9553349.43345  23539535.199    23539549.090
       214.000         156.000
  22611233.809   -15723889.75949 -11959647.66646  22611232.859    22611243.321
       225.000         175.000
  21029031.526   -18291690.13249 -14237608.96847  21029031.604    21029040.507
       244.000         212.000
  20387931.277   -26568642.59249 -19418090.56448  20387931.399    20387940.130
       245.000         214.000
  22429425.294     9863101.77649   7698116.54946  22429425.582    22429435.417
       227.000         179.000
  21572080.027   -16804195.75249 -13074901.65847  21572079.410    21572090.260
       237.000         196.000
  22378539.442   -11647765.62149  -9045021.66846  22378539.320    22378549.057
       225.000         173.000
 99  4  3 19 48 30.0000000  0  7G 2G 5G 9G 4G 7G24G 8
  23553687.047    12331763.13749   9611300.17745  23553686.122    23553701.835
       214.000         156.000
  22596221.001   -15802782.36549 -12021122.37746  22596220.362    22596229.888
       224.000         175.000
  21029234.962   -18290621.35349 -14236776.16847  21029234.684    21029243.441
       244.000         212.000
  20386913.224   -26573992.42049 -19422259.26348  20386913.513    20386921.907
       244.000         214.000
  22442128.803     9929858.95749   7750135.05646  22442128.058    22442139.215
       226.000         179.000
  21556469.931   -16886226.70749 -13138821.79447  21556469.307    21556480.372
       237.000         196.000
  22363843.966   -11724991.01849  -9105197.29846  22363843.553    22363853.137
       223.000         174.000
 99  4  3 19 49  0.0000000  0  7G 2G 5G 9G 4G 7G24G 8
  23567887.214    12406383.92449   9669446.00545  23567887.081    23567901.681
       215.000         155.000
  22581221.002   -15881606.83749 -12082544.03146  22581220.217    22581229.974
       224.000         175.000
  21029546.037   -18288986.92849 -14235502.61747  21029545.958    21029554.522
       243.000         212.000
  20386011.316   -26578732.05049 -19425952.48948  20386011.288    20386019.880
       245.000         214.000
  22454844.025     9996676.89149   7802200.89946  22454843.665    22454854.723
       228.000         178.000
  21540932.110   -16967878.06949 -13202446.14947  21540931.723    21540942.633
       237.000         196.000
  22349233.885   -11801767.15649  -9165022.84146  22349233.677    22349242.814
       225.000         175.000
 99  4  3 19 49 30.0000000  0  7G 2G 5G 9G 4G 7G24G 8
  23582133.824    12481249.43949   9727782.55145  23582134.028    23582147.914
       217.000         153.000
  22566225.196   -15960409.99649 -12143949.05846  22566225.137    22566234.239
       224.000         174.000
  21029957.714   -18286823.59149 -14233816.91747  21029957.603    21029966.170
       244.000         212.000
  20385220.036   -26582890.35149 -19429192.73048  20385220.346    20385228.417
       245.000         214.000
  22467565.483    10063528.23949   7854292.78146  22467564.609    22467575.966
       226.000         178.000
  21525461.510   -17049176.18949 -13265795.25447  21525460.963    21525472.152
       237.000         196.000
  22334705.533   -11878113.87349  -9224513.77946  22334705.255    22334715.169
       226.000         175.000
 99  4  3 19 50  0.0000000  0  7G 2G 5G 9G 4G 7G24G 8
  23596431.102    12556381.49849   9786326.76345  23596431.490    23596445.362
       217.000         153.000
  22551240.535   -16039154.82649 -12205308.63446  22551240.671    22551249.720
       226.000         175.000
  21030476.188   -18284098.56249 -14231693.53847  21030476.184    21030484.779
       243.000         212.000
  20384547.662   -26586423.74349 -19431946.02348  20384547.851    20384556.316
       246.000         214.000
  22480300.150    10130449.59349   7906439.19846  22480299.223    22480310.421
       225.000         178.000
  21510063.391   -17130093.63949 -13328847.73247  21510063.113    21510073.906
       236.000         197.000
  22320262.148   -11954014.33449  -9283656.99846  22320261.764    22320271.473
       226.000         174.000
 99  4  3 19 50 30.0000000  0  7G 2G 5G 9G 4G 7G24G 8
  23610779.999    12631784.34249   9845081.98045  23610780.457    23610794.416
       213.000         154.000
  22536269.947   -16117826.18449 -12266610.97446  22536268.826    22536278.573
       227.000         176.000
  21031105.011   -18280794.09049 -14229118.64547  21031105.089    21031113.718
       244.000         212.000
  20383997.164   -26589316.46649 -19434200.09448  20383997.402    20384005.579
       245.000         214.000
  22493049.643    10197447.91149   7958645.60746  22493049.396    22493059.816
       226.000         178.000
  21494742.270   -17210606.54449 -13391584.99447  21494741.800    21494752.694
       238.000         197.000
  22305905.351   -12029459.86949  -9342445.73446  22305904.074    22305914.400
       224.000         175.000
 99  4  3 19 51  0.0000000  0  7G 2G 5G 9G 4G 7G24G 8
  23625180.494    12707457.67949   9904047.95145  23625180.868    23625195.189
       213.000         156.000
  22521317.401   -16196402.21849 -12327839.01846  22521317.396    22521326.285
       227.000         175.000
  21031849.363   -18276882.72249 -14226070.83847  21031849.324    21031857.989
       244.000         212.000
  20383572.728   -26591546.87449 -19435938.07548  20383572.626    20383581.223
       245.000         214.000
  22505814.755    10264528.81649   8010916.35446  22505813.989    22505824.855
       224.000         178.000
  21479501.190   -17290698.77549 -13453994.45647  21479500.441    21479511.570
       236.000         197.000
  22291639.432   -12104427.57549  -9400862.11446  22291638.900    22291648.347
       225.000         175.000
 99  4  3 19 51 30.0000000  0  7G 2G 5G 9G 4G 7G24G 8
  23639622.708    12783351.70549   9963185.90545  23639622.410    23639638.317
       211.000         154.000
  22506381.260   -16274892.32049 -12389000.10246  22506380.777    22506390.423
       226.000         176.000
  21032704.439   -18272389.40349 -14222569.56547  21032704.362    21032712.900
       244.000         212.000
  20383271.369   -26593130.33749 -19437171.94848  20383271.425    20383279.873
       245.000         214.000
  22518586.033    10331642.15449   8063212.38546  22518585.208    22518596.425
       225.000         178.000
  21464337.317   -17370384.75249 -13516087.36847  21464336.909    21464347.817
       237.000         197.000
  22277460.143   -12178940.29949  -9458923.96746  22277460.245    22277469.012
       227.000         176.000
 99  4  3 19 52  0.0000000  0  7G 2G 5G 9G 4G 7G24G 8
  23654111.926    12859495.11049  10022518.20045  23654110.630    23654128.407
       209.000         153.000
  22491470.436   -16353248.93449 -12450057.17946  22491469.759    22491479.194
       226.000         177.000
  21033677.659   -18267275.29249 -14218584.56047  21033677.428    21033686.044
       244.000         212.000
  20383098.882   -26594036.41149 -19437877.97448  20383099.044    20383107.714
       245.000         214.000
  22531369.165    10398817.06349   8115556.36046  22531368.598    22531379.922
       227.000         178.000
  21449257.911   -17449627.26349 -13577834.71747  21449257.408    21449268.297
       236.000         197.000
  22263373.303   -12252966.60949  -9516606.80446  22263372.698    22263381.978
       227.000         174.000
 99  4  3 19 52 30.0000000  0  7G 2G 5G 9G 4G 7G24G 8
  23668653.831    12935912.19249  10082063.71345  23668653.562    23668670.117
       208.000         153.000
  22476584.692   -16431473.41949 -12511011.28646  22476584.135    22476593.891
       226.000         177.000
  21034767.269   -18261549.27149 -14214122.74247  21034767.324    21034775.984
       244.000         212.000
  20383054.748   -26594268.49049 -19438058.80748  20383054.855    20383063.188
       245.000         214.000
  22544164.467    10466056.00549   8167950.24846  22544164.789    22544174.831
       226.000         177.000
  21434265.610   -17528411.80149 -13639225.20447  21434264.967    21434276.068
       237.000         198.000
  22249382.519   -12326488.25149  -9573896.40446  22249382.163    22249391.360
       227.000         175.000
 99  4  3 19 53  0.0000000  0  7G 2G 5G 9G 4G 7G24G 8
  23683238.393    13012554.28549  10141784.53945  23683238.705    23683254.277
       216.000         152.000
  22461715.722   -16509610.30249 -12571897.12946  22461715.028    22461724.954
       227.000         178.000
  21035961.076   -18255275.78949 -14209234.32447  21035960.917    21035969.608
       244.000         212.000
  20383127.275   -26593887.32349 -19437761.78448  20383127.494    20383135.969
       244.000         214.000
  22556964.219    10533318.96949   8220362.84746  22556963.949    22556974.705
       226.000         177.000
  21419349.632   -17606795.12249 -13700303.06347  21419349.723    21419359.957
       239.000         199.000
  22235478.305   -12399555.32249  -9630831.75446  22235477.969    22235487.762
       228.000         177.000
 99  4  3 19 53 30.0000000  0  7G 2G 5G 9G 4G 7G24G 8
  23697870.639    13089445.03749  10201699.13345  23697869.806    23697886.475
       212.000         152.000
  22446869.475   -16587627.50649 -12632689.72546  22446869.246    22446879.033
       227.000         178.000
  21037259.899   -18248450.51949 -14203915.94247  21037259.588    21037268.778
       243.000         211.000
  20383315.371   -26592899.21949 -19436991.82048  20383315.824    20383324.064
       246.000         214.000
  22569774.721    10600638.47649   8272819.53846  22569774.230    22569785.198
       226.000         176.000
  21404513.460   -17684760.03149 -13761054.87547  21404513.294    21404523.906
       239.000         199.000
  22221664.146   -12472149.75649  -9687398.84646  22221664.192    22221673.066
       227.000         178.000
 99  4  3 19 54  0.0000000  0  7G 2G 5G 9G 4G 7G24G 8
  23712546.378    13166565.49249  10261792.73145  23712548.364    23712562.605
       216.000         154.000
  22432039.910   -16665557.63949 -12693414.46946  22432039.592    22432048.228
       227.000         177.000
  21038658.134   -18241102.85449 -14198190.50047  21038657.880    21038666.792
       243.000         212.000
  20383611.009   -26591345.71549 -19435781.28948  20383611.150    20383619.814
       245.000         215.000
  22582595.881    10668013.79049   8325319.68846  22582595.155    22582606.273
       224.000         176.000
  21389750.497   -17762339.48449 -13821506.34047  21389749.984    21389761.111
       238.000         199.000
  22207936.394   -12544289.65349  -9743611.72046  22207936.456    22207945.992
       227.000         179.000
 99  4  3 19 54 30.0000000  0  7G 2G 5G 9G 4G 7G24G 8
  23727260.597    13243885.36749  10322041.70845  23727260.589    23727276.339
       214.000         155.000
  22417221.785   -16743426.71449 -12754091.62946  22417221.600    22417230.743
       227.000         177.000
  21040151.021   -18233257.64649 -14192077.36047  21040151.086    21040159.795
       244.000         212.000
  20384009.869   -26589249.46749 -19434147.83748  20384010.113    20384018.819
       244.000         214.000
  22595425.605    10735433.34649   8377854.29946  22595425.343    22595436.104
       226.000         176.000
  21375056.236   -17839558.04349 -13881676.58447  21375055.777    21375066.732
       239.000         200.000
  22194291.410   -12615995.42649  -9799486.34546  22194291.372    22194300.561
       228.000         180.000
